     2              OBSERVATION DATA    GPS                 RINEX VERSION / TYPE
teqc 1997Jul24 19970813                                     PGM / RUN BY / DATE
                                                            COMMENT
BIT 2 OF LLI FLAGS DATA COLLECTED UNDER A-S CONDITION       COMMENT
BIT 2 OF LLI FLAGS DATA COLLECTED UNDER A-S CONDITION       COMMENT
Original Marker Name: 55463.SANP                            COMMENT
Campaign Name: TREX12                                       COMMENT
4-Character Station Name: SANP                              COMMENT
6-Character Antenna Code: TI4100                            COMMENT
Vertical Measurement Point: PAE                             COMMENT
Vertical Offset to Rinex Ref. Point: 0.0000                 COMMENT
Radial Measurement Point: RRP                               COMMENT
Radial Offset to Rinex Ref. Point: 0.0000                   COMMENT
Antenna Height from Field Measurement: 1.5230 m             COMMENT
Original XYZ: -2554406.5425 -4608663.6839 3582161.1550      COMMENT
New XYZ position is based on association with SCEC monument COMMENT
E1E9H7D4+0011. Position of that monument is believed to be  COMMENT
valid to within 1 m horizontally; vertical accuracy         COMMENT
should be no worse than 3-times this value.                 COMMENT
                                                            COMMENT
Revised Rinex header created by UCSD GPS archive for        COMMENT
GSAC on 14-Apr-1999 (1999:104) 04:31:30 GMT                 COMMENT
For assistance contact dagnew@ucsd.edu or hjohnson@ucsd.edu COMMENT
                                                            COMMENT
SANTA PAULA NCMN 1981                                       MARKER NAME
5 NATIONAL GEODETIC SURVEY                                  OBSERVER / AGENCY
UT18 TI 4100 1.5                                            REC # / TYPE / VERS
4014 TI 4100                                                ANT # / TYPE
 -2554477.0000 -4608627.0000  3582138.0000                  APPROX POSITION XYZ
        1.5230        0.0000        0.0000                  ANTENNA: DELTA H/E/N
     1     1     0                                          WAVELENGTH FACT L1/2
     4    P1    P2    L1    L2                              # / TYPES OF OBSERV
    30                                                      INTERVAL
  1988     3    21     2    34   29.000000                  TIME OF FIRST OBS
  1988     3    21     8    35   59.000000                  TIME OF LAST OBS
     0                                                      # OF SATELLITES
                                                            END OF HEADER
 88  3 21  2 34 29.0800000  0  3G 6G 8G11
  22251534.488    22251537.707      700257.463 9  -1176727.759 9
  21756120.745    21756123.479      504881.196 9  -1087138.633 8
  24699793.007    24699799.187      373922.962 9  -1475525.983 9
 88  3 21  2 34 59.0800000  0  3G 6G 8G11
  22240086.791    22240088.851      640089.776 9  -1223611.615 9
  21738537.813    21738540.683      412487.184 9  -1159133.914 8
  24677677.619    24677684.299      257707.386 8  -1566083.349 8
 88  3 21  2 35 29.0800000  0  3G 6G 8G11
  22228643.815    22228646.819      579963.735 9  -1270463.029 9
  21721042.029    21721044.166      320541.670 9  -1230779.700 8
  24655564.414    24655571.487      141504.997 9  -1656630.418 8
 88  3 21  2 35 59.0800000  0  3G 6G 8G11
  22217210.427    22217212.688      519879.733 9  -1317281.685 9
  21703631.472    21703633.396      229047.777 9  -1302073.598 9
  24633455.486    24633461.225       25318.579 8  -1747165.082 9
 88  3 21  2 36 29.0800000  0  3G 6G 8G11
  22205784.996    22205786.599      459838.789 9  -1364066.779 9
  21686307.055    21686308.634      138008.525 9  -1373013.214 8
  24611348.608    24611353.255      -90848.793 7  -1837684.860 7
 88  3 21  2 36 59.0800000  0  3G 6G 8G11
  22194368.119    22194370.639      399841.455 9  -1410817.885 9
  21669070.239    21669073.045       47427.357 9  -1443595.890 8
  24589248.516    24589252.468     -206994.176 8  -1928187.562 8
 88  3 21  2 37 29.0800000  0  3G 6G 8G11
  22182959.229    22182961.375      339888.699 9  -1457534.271 9
  21651921.475    21651922.419      -42691.731 8  -1513818.506 8
  24567149.813    24567155.623     -323114.649 7  -2018670.833 7
 88  3 21  2 37 59.0800000  0  3G 6G 8G11
  22171560.070    22171562.086      279981.275 9  -1504215.348 9
  21634860.177    21634862.873     -132345.786 9  -1583678.738 8
  24545058.332    24545064.858     -439207.316 7  -2109132.480 7
 88  3 21  2 38 29.0800000  0  3G 6G 8G11
  22160166.404    22160169.581      220119.820 9  -1550860.572 9
  21617888.502    21617891.659     -221531.167 9  -1653173.789 8
  24522972.404    24522978.482     -555269.411 8  -2199570.273 8
 88  3 21  2 38 59.0800000  0  3G 6G 8G11
  22148785.875    22148787.563      160305.247 9  -1597469.260 8
  21601006.827    21601010.311     -310244.431 9  -1722300.944 8
  24500892.872    24500898.225     -671297.786 8  -2289981.812 8
 88  3 21  2 39 29.0800000  0  3G 6G 8G11
  22137412.242    22137414.058      100538.431 9  -1644040.756 9
  21584215.160    21584219.083     -398482.600 8  -1791057.903 8
  24478818.980    24478824.933     -787289.585 9  -2380364.875 8
 88  3 21  2 39 59.0800000  0  3G 6G 8G11
  22126048.282    22126050.242       40820.165 9  -1690574.429 9
  21567514.698    21567517.715     -486242.457 9  -1859442.145 7
  24456755.183    24456759.157     -903241.393 9  -2470716.775 7
 88  3 21  2 40 29.0800000  0  3G 6G 8G11
  22114693.165    22114695.684      -18848.624 9  -1737069.540 9
  21550906.662    21550909.289     -573520.336 9  -1927450.832 8
  24434697.976    24434703.124    -1019150.435 9  -2561035.360 8
 88  3 21  2 40 59.0800000  0  3G 6G 8G11
  22103347.978    22103350.154      -78467.334 9  -1783525.616 9
  21534392.343    21534393.079     -660312.919 9  -1995081.372 8
  24412648.603    24412655.487    -1135014.006 9  -2651318.515 9
 88  3 21  2 41 29.0800000  0  3G 6G 8G11
  22092012.867    22092015.458     -138034.938 9  -1829941.888 9
  21517967.365    21517971.556     -746617.362 9  -2062331.541 8
  24390610.925    24390617.117    -1250829.354 8  -2741564.082 8
 88  3 21  2 41 59.0800000  0  3G 6G 8G11
  22080687.199    22080689.961     -197550.578 9  -1876317.654 9
  21501638.181    21501641.458     -832429.738 8  -2129198.270 9
  24368581.127    24368586.563    -1366593.351 9  -2831769.653 8
 88  3 21  2 42 29.0800000  0  3G 6G 8G11
  22069372.549    22069374.537     -257013.570 9  -1922652.427 8
  21485403.927    21485405.505     -917747.085 9  -2195679.269 8
  24346563.513    24346567.016    -1482302.784 8  -2921932.714 9
 88  3 21  2 42 59.0800000  0  3G 6G 8G11
  22058067.085    22058068.800     -316422.991 9  -1968945.426 9
  21469261.469    21469265.927    -1002566.265 9  -2261772.095 8
  24324553.427    24324560.251    -1597954.990 9  -3012051.174 7
 88  3 21  2 43 29.0800000  0  3G 6G 8G11
  22046772.695    22046773.756     -375777.763 9  -2015195.852 9
  21453216.622    21453218.597    -1086884.080 9  -2327474.246 9
  24302558.244    24302563.156    -1713546.648 9  -3102122.436 8
 88  3 21  2 43 59.0800000  0  3G 6G 8G11
  22035488.468    22035489.268     -435077.724 9  -2061403.572 9
  21437267.809    21437269.722    -1170698.024 9  -2392783.767 9
  24280574.513    24280579.967    -1829075.649 8  -3192144.907 8
 88  3 21  2 44 29.0800000  0  3G 6G 8G11
  22024213.167    22024216.243     -494321.342 9  -2107567.397 9
  21421415.185    21421416.412    -1254004.168 9  -2457697.581 9
  24258600.168    24258607.001    -1944538.856 8  -3282116.100 8
 88  3 21  2 44 59.0800000  0  3G 6G 8G11
  22012951.004    22012953.164     -553507.492 9  -2153686.413 9
  21405658.881    21405662.238    -1336799.153 9  -2522213.107 9
  24236641.846    24236648.890    -2059932.529 8  -3372033.091 8
 88  3 21  2 45 29.0800000  0  3G 6G 8G11
  22001699.571    22001700.446     -612635.527 9  -2199760.160 9
  21390002.954    21390003.452    -1419080.630 9  -2586328.500 9
  24214696.889    24214703.301    -2175254.053 8  -3461893.882 8
 88  3 21  2 45 59.0800000  0  3G 6G 8G11
  21990459.129    21990460.545     -671704.441 9  -2245787.846 9
  21374443.133    21374445.101    -1500844.785 9  -2650040.794 8
  24192767.810    24192772.867    -2290500.132 8  -3551695.878 7
 88  3 21  2 46 29.0800000  0  3G 6G 8G11
  21979228.531    21979231.766     -730713.359 9  -2291768.773 9
  21358981.772    21358984.763    -1582088.845 9  -2713347.787 9
  24170850.086    24170857.303    -2405668.331 9  -3641437.196 8
 88  3 21  2 46 59.0800000  0  3G 6G 8G11
  21968012.412    21968015.218     -789661.306 9  -2337702.179 9
  21343621.400    21343624.886    -1662809.395 9  -2776246.862 8
  24148950.484    24148955.138    -2520755.544 9  -3731115.414 9
 88  3 21  2 47 29.0800000  0  3G 6G 8G11
  21956806.141    21956808.317     -848547.389 9  -2383587.382 9
  21328361.594    21328364.204    -1743003.561 9  -2838735.754 8
  24127067.183    24127069.695    -2635759.154 8  -3820728.514 8
 88  3 21  2 47 59.0800000  0  3G 6G 8G11
  21945613.923    21945614.794     -907370.627 9  -2429423.640 9
  21313201.936    21313204.418    -1822668.422 9  -2900812.225 9
  24105199.282    24105202.015    -2750676.092 8  -3910274.048 8
 88  3 21  2 48 29.0800000  0  3G 6G 8G11
  21934431.259    21934433.907     -966129.765 9  -2475209.936 8
  21298142.978    21298145.827    -1901800.985 9  -2962473.911 9
  24083348.524    24083351.704    -2865503.016 9  -3999749.472 8
 88  3 21  2 48 59.0800000  0  3G 6G 8G11
  21923261.904    21923264.366    -1024823.744 9  -2520945.445 9
  21283186.414    21283189.175    -1980397.573 9  -3023717.951 9
  24061514.439    24061518.866    -2980237.043 9  -4089152.498 8
 88  3 21  2 49 29.0800000  0  3G 6G 8G11
  21912106.143    21912107.747    -1083451.659 9  -2566629.474 9
  21268332.279    21268334.796    -2058455.692 9  -3084542.412 8
  24039699.347    24039703.603    -3094875.043 9  -4178480.707 8
 88  3 21  2 49 59.0800000  0  3G 6G 8G11
  21900961.000    21900963.890    -1142012.587 9  -2612261.323 9
  21253581.455    21253584.253    -2135972.445 9  -3144945.022 7
  24017902.122    24017906.645    -3209414.263 8  -4267731.924 9
 88  3 21  2 50 29.0800000  0  3G 6G 8G11
  21889830.711    21889832.426    -1200505.509 9  -2657840.178 8
  21238933.500    21238936.501    -2212945.132 9  -3204923.702 8
  23996125.895    23996131.009    -3323851.927 9  -4356904.036 8
 88  3 21  2 50 59.0800000  0  3G 6G 8G11
  21878712.468    21878715.100    -1258929.257 9  -2703365.110 8
  21224391.330    21224392.875    -2289370.502 9  -3264475.903 8
  23974369.361    23974374.349    -3438184.868 7  -4445994.517 9
 88  3 21  2 51 29.0800000  0  3G 6G 8G11
  21867608.821    21867610.581    -1317282.623 9  -2748835.221 9
  21209953.047    21209953.970    -2365245.778 9  -3323599.442 9
  23952632.568    23952638.251    -3552409.928 8  -4535000.928 9
 88  3 21  2 51 59.0800000  0  3G 6G 8G11
  21856518.854    21856520.372    -1375564.780 9  -2794249.852 9
  21195619.332    21195621.736    -2440568.156 9  -3382292.162 7
  23930916.983    23930922.252    -3666524.590 8  -4623921.327 8
 88  3 21  2 52 29.0800000  0  3G 6G 8G11
  21845440.878    21845441.980    -1433774.622 9  -2839608.124 9
  21181390.429    21181394.129    -2515334.775 9  -3440551.817 8
  23909222.863    23909228.632    -3780525.430 8  -4712753.047 9
 88  3 21  2 52 59.0800000  0  3G 6G 8G11
  21834378.184    21834380.088    -1491910.975 9  -2884909.129 9
  21167270.183    21167272.574    -2589542.806 9  -3498376.206 8
  23887552.330    23887557.483    -3894409.407 9  -4801493.710 9
 88  3 21  2 53 29.0800000  0  3G 6G 8G11
  21823329.998    21823330.927    -1549972.980 9  -2930152.212 9
  21153256.258    21153258.026    -2663189.616 9  -3555763.286 9
  23865904.227    23865907.251    -4008173.779 9  -4890141.185 9
 88  3 21  2 53 59.0800000  0  3G 6G 8G11
  21812295.180    21812296.783    -1607959.329 9  -2975336.331 8
  21139348.139    21139350.596    -2736272.170 9  -3612710.688 8
  23844278.188    23844282.320    -4121815.824 8  -4978693.329 9
 88  3 21  2 54 29.0800000  0  3G 6G 8G11
  21801274.155    21801276.442    -1665868.908 9  -3020460.639 9
  21125549.011    21125551.698    -2808787.445 9  -3669216.047 7
  23822676.807    23822681.601    -4235332.277 9  -5067147.616 8
 88  3 21  2 54 59.0800000  0  3G 6G 8G11
  21790270.272    21790270.758    -1723700.295 9  -3065524.012 9
  21111857.804    21111860.442    -2880732.725 9  -3725277.278 8
  23801100.180    23801103.807    -4348720.021 9  -5155501.612 8
 88  3 21  2 55 29.0800000  0  3G 6G 8G11
  21779281.070    21779281.313    -1781452.768 9  -3110525.897 9
  21098275.949    21098280.242    -2952105.271 9  -3780892.194 9
  23779548.202    23779551.879    -4461976.586 9  -5243753.411 8
 88  3 21  2 55 59.0800000  0  3G 6G 8G11
  21768305.434    21768307.050    -1839124.914 9  -3155465.179 8
  21084804.081    21084807.518    -3022902.487 9  -3836058.799 9
  23758020.783    23758024.819    -4575098.515 8  -5331900.289 8
 88  3 21  2 56 29.0800000  0  3G 6G 8G11
  21757346.338    21757347.525    -1896715.594 9  -3200341.002 9
  21071441.494    21071444.392    -3093121.879 9  -3890775.172 8
  23736522.169    23736525.518    -4688082.979 9  -5419940.054 9
 88  3 21  2 56 59.0800000  0  3G 6G 8G11
  21746402.897    21746404.915    -1954223.764 9  -3245152.513 8
  21058189.710    21058193.164    -3162760.618 9  -3945039.079 8
  23715048.116    23715051.440    -4800926.965 8  -5507870.339 8
 88  3 21  2 57 29.0800000  0  3G 6G 8G11
  21735474.595    21735477.300    -2011648.205 9  -3289898.787 9
  21045049.166    21045051.836    -3231816.338 9  -3998848.688 9
  23693600.791    23693603.940    -4913627.547 9  -5595688.896 7
 88  3 21  2 57 59.0800000  0  3G 6G 8G11
  21724563.321    21724566.155    -2068987.409 9  -3334578.649 9
  21032019.160    21032022.164    -3300285.904 9  -4052201.562 8
  23672183.290    23672186.095    -5026181.365 9  -5683393.080 8
 88  3 21  2 58 29.0800000  0  3G 6G 8G11
  21713667.902    21713670.951    -2126240.511 9  -3379191.400 9
  21019102.469    21019104.687    -3368166.927 8  -4105095.812 8
  23650792.748    23650796.933    -5138585.823 9  -5770980.885 8
 88  3 21  2 58 59.0800000  0  3G 6G 8G11
  21702790.654    21702791.842    -2183406.290 9  -3423736.132 9
  21006296.912    21006299.028    -3435457.291 9  -4157529.837 7
  23629431.389    23629435.801    -5250838.033 9  -5858450.056 8
 88  3 21  2 59 29.0800000  0  3G 6G 8G11
  21691928.636    21691930.822    -2240483.283 9  -3468211.670 9
  20993605.553    20993607.936    -3502153.461 9  -4209500.837 8
  23608099.144    23608105.710    -5362935.084 9  -5945798.335 8
 88  3 21  2 59 59.0800000  0  3G 6G 8G11
  21681085.216    21681086.731    -2297470.227 9  -3512617.044 9
  20981027.446    20981029.799    -3568253.453 8  -4261007.293 8
  23586799.391    23586803.273    -5474873.697 8  -6033023.128 9
 88  3 21  3  0 29.0800000  0  3G 6G 8G11
  21670257.992    21670259.710    -2354365.881 9  -3556951.273 9
  20968562.968    20968564.482    -3633754.762 8  -4312047.235 7
  23565527.829    23565533.283    -5586650.832 8  -6120122.109 9
 88  3 21  3  0 59.0800000  0  3G 6G 8G11
  21659447.971    21659450.546    -2411168.991 9  -3601213.406 9
  20956212.282    20956214.805    -3698654.895 9  -4362618.720 9
  23544289.393    23544293.218    -5698263.759 9  -6207093.135 9
 88  3 21  3  1 29.0800000  0  3G 6G 8G11
  21648657.207    21648658.440    -2467878.173 9  -3645402.340 9
  20943976.822    20943979.220    -3762951.424 9  -4412719.868 8
  23523081.535    23523085.640    -5809709.500 8  -6293933.886 8
 88  3 21  3  1 59.0800000  0  3G 6G 8G11
  21637884.621    21637885.835    -2524492.282 9  -3689517.188 9
  20931857.705    20931859.802    -3826641.777 9  -4462348.657 8
  23501906.072    23501910.697    -5920985.240 9  -6380642.182 9
 88  3 21  3  2 29.0800000  0  3G 6G 8G11
  21627129.000    21627130.287    -2581009.767 9  -3733556.747 8
  20919853.112    20919853.581    -3889723.661 9  -4511503.331 8
  23480763.199    23480767.931    -6032087.743 9  -6467215.476 9
 88  3 21  3  2 59.0800000  0  3G 6G 8G11
  21616392.441    21616394.203    -2637429.515 9  -3777520.157 9
  20907965.565    20907967.374    -3952194.820 9  -4560182.101 8
  23459655.446    23459659.812    -6143013.941 9  -6553651.402 9
 88  3 21  3  3 29.0800000  0  3G 6G 8G11
  21605675.057    21605676.259    -2693750.166 9  -3821406.343 9
  20896193.947    20896195.930    -4014052.996 8  -4608383.243 7
  23438581.011    23438585.010    -6253761.014 9  -6639947.732 9
 88  3 21  3  3 59.0800000  0  3G 6G 8G11
  21594977.334    21594977.877    -2749970.471 9  -3865214.336 8
  20884539.231    20884542.231    -4075296.121 9  -4656105.100 8
  23417541.073    23417545.617    -6364326.443 8  -6726102.543 9
 88  3 21  3  4 29.0800000  0  3G 6G 8G11
  21584297.554    21584299.515    -2806088.919 9  -3908942.969 9
  20873003.149    20873005.589    -4135921.485 8  -4703345.612 9
  23396537.007    23396540.584    -6474707.017 9  -6812113.305 8
 88  3 21  3  4 59.0800000  0  3G 6G 8G11
  21573637.836    21573639.224    -2862104.297 9  -3952591.274 9
  20861583.708    20861587.544    -4195927.052 9  -4750103.154 8
  23375567.846    23375572.721    -6584899.362 8  -6897977.383 8
 88  3 21  3  5 29.0800000  0  3G 6G 8G11
  21562999.696    21563000.882    -2918015.147 9  -3996158.130 9
  20850284.807    20850285.543    -4255310.732 9  -4796376.107 7
  23354635.906    23354638.388    -6694900.822 8  -6983692.747 8
 88  3 21  3  5 59.0800000  0  3G 6G 8G11
  21552380.016    21552380.361    -2973820.232 9  -4039642.579 9
  20839103.439    20839104.872    -4314069.868 9  -4842162.398 8
  23333738.957    23333743.279    -6804708.633 8  -7069257.214 9
 88  3 21  3  6 29.0800000  0  3G 6G 8G11
  21541780.624    21541781.454    -3029517.905 9  -4083043.328 9
  20828040.878    20828042.929    -4372202.202 9  -4887460.270 8
  23312880.190    23312885.237    -6914319.367 8  -7154668.112 8
 88  3 21  3  6 59.0800000  0  3G 6G 8G11
  21531201.981    21531203.812    -3085106.640 9  -4126359.198 9
  20817097.673    20817100.229    -4429705.507 8  -4932268.001 9
  23292060.329    23292066.375    -7023729.973 8  -7239923.071 8
 88  3 21  3  7 29.0800000  0  3G 6G 8G11
  21520645.033    21520646.936    -3140585.209 9  -4169589.221 9
  20806275.430    20806277.594    -4486577.686 8  -4976583.947 8
  23271278.038    23271282.653    -7132937.857 9  -7325020.045 8
 88  3 21  3  7 59.0800000  0  3G 6G 8G11
  21510109.632    21510110.777    -3195952.110 9  -4212732.223 9
  20795573.768    20795575.793    -4542816.880 9  -5020406.650 9
  23250536.986    23250541.128    -7241940.078 9  -7409956.789 8
 88  3 21  3  8 29.0800000  0  3G 6G 8G11
  21499594.037    21499595.611    -3251205.888 9  -4255787.085 8
  20784992.810    20784994.145    -4598420.656 9  -5063734.224 8
  23229834.571    23229837.817    -7350733.555 9  -7494730.884 7
 88  3 21  3  8 59.0800000  0  3G 6G 8G11
  21489101.134    21489103.696    -3306344.996 9  -4298752.597 9
  20774531.362    20774535.060    -4653386.951 8  -5106565.050 8
  23209170.885    23209174.872    -7459315.364 8  -7579340.013 8
 88  3 21  3  9 29.0800000  0  3G 6G 8G11
  21478630.756    21478632.373    -3361368.202 9  -4341627.788 9
  20764195.137    20764196.328    -4707714.215 9  -5148897.926 9
  23188550.813    23188553.503    -7567682.715 9  -7663782.050 9
 88  3 21  3  9 59.0800000  0  3G 6G 8G11
  21468182.928    21468184.032    -3416274.080 9  -4384411.558 8
  20753978.398    20753980.130    -4761400.213 9  -5190731.130 8
  23167969.753    23167973.455    -7675832.754 8  -7748054.750 8
 88  3 21  3 10 29.0800000  0  3G 6G 8G11
  21457757.908    21457758.810    -3471060.975 9  -4427102.616 9
  20743884.239    20743886.595    -4814443.035 9  -5232063.165 8
  23147432.070    23147434.452    -7783762.356 9  -7832155.677 9
 88  3 21  3 10 59.0800000  0  3G 6G 8G11
  21447354.496    21447355.798    -3525727.551 9  -4469699.914 9
  20733912.825    20733914.821    -4866841.105 9  -5272892.792 8
  23126935.103    23126938.524    -7891468.817 9  -7916082.734 8
 88  3 21  3 11 29.0800000  0  3G 6G 8G11
  21436975.296    21436976.854    -3580272.167 9  -4512202.180 9
  20724065.221    20724067.120    -4918592.170 9  -5313218.257 8
  23106482.088    23106485.486    -7998948.864 9  -7999833.376 9
 88  3 21  3 11 59.0800000  0  3G 6G 8G11
  21426620.193    21426620.522    -3634693.188 9  -4554608.149 8
  20714340.591    20714343.920    -4969694.434 9  -5353038.161 9
  23086073.269    23086077.187    -8106199.547 9  -8083405.280 9
 88  3 21  3 12 29.0800000  0  3G 6G 8G11
  21416286.895    21416288.068    -3688989.137 9  -4596916.659 9
  20704741.382    20704743.113    -5020145.577 9  -5392350.717 8
  23065708.791    23065711.768    -8213218.123 8  -8166796.329 9
 88  3 21  3 12 59.0800000  0  3G 6G 8G11
  21405977.954    21405980.056    -3743158.592 9  -4639126.588 9
  20695264.530    20695266.093    -5069944.247 8  -5431154.844 8
  23045387.533    23045391.857    -8320001.986 8  -8250004.464 9
 88  3 21  3 13 29.0800000  0  3G 6G 8G11
  21395695.426    21395696.355    -3797199.897 9  -4681236.674 9
  20685911.707    20685915.442    -5119088.510 9  -5469449.023 8
  23025112.269    23025116.905    -8426547.598 9  -8333026.954 9
 88  3 21  3 13 59.0800000  0  3G 6G 8G11
  21385434.789    21385437.365    -3851111.519 9  -4723245.701 9
  20676684.738    20676687.007    -5167576.419 9  -5507231.786 8
  23004884.360    23004885.474    -8532852.550 9  -8415861.942 9
 88  3 21  3 14 29.0800000  0  3G 6G 8G11
  21375202.315    21375203.531    -3904891.899 9  -4765152.445 9
  20667582.864    20667585.861    -5215406.385 9  -5544501.845 9
  22984701.223    22984704.028    -8638913.649 8  -8498506.901 8
 88  3 21  3 14 59.0800000  0  3G 6G 8G11
  21364993.681    21364994.696    -3958539.307 9  -4806955.616 9
  20658605.975    20658609.765    -5262577.011 9  -5581258.133 9
  22964566.445    22964567.803    -8744728.016 8  -8580959.606 9
 88  3 21  3 15 29.0800000  0  3G 6G 8G11
  21354809.056    21354811.546    -4012052.345 9  -4848654.056 9
  20649757.439    20649758.284    -5309086.298 9  -5617499.097 9
  22944477.120    22944480.167    -8850292.807 8  -8663217.831 8
 88  3 21  3 15 59.0800000  0  3G 6G 8G11
  21344652.677    21344654.423    -4065429.436 9  -4890246.549 9
  20641031.921    20641033.956    -5354932.635 9  -5653223.485 8
  22924436.536    22924438.299    -8955605.252 9  -8745279.423 9
 88  3 21  3 16 29.0800000  0  3G 6G 8G11
  21334521.428    21334522.814    -4118668.987 9  -4931731.902 8
  20632434.970    20632436.682    -5400114.202 9  -5688429.860 8
  22904444.142    22904447.420    -9060662.578 9  -8827142.228 8
 88  3 21  3 16 59.0800000  0  3G 6G 8G11
  21324417.019    21324419.008    -4171769.429 9  -4973108.829 9
  20623963.936    20623965.515    -5444630.195 9  -5723117.600 8
  22884500.857    22884506.252    -9165461.805 9  -8908803.917 8
 88  3 21  3 17 29.0800000  0  3G 6G 8G11
  21314339.772    21314340.372    -4224729.212 9  -5014376.173 9
  20615619.341    20615620.901    -5488478.799 9  -5757285.306 9
  22864609.078    22864612.533    -9270000.301 9  -8990262.434 8
 88  3 21  3 17 59.0800000  0  3G 6G 8G11
  21304287.421    21304288.651    -4277546.637 9  -5055532.595 9
  20607401.759    20607404.215    -5531658.333 9  -5790931.663 8
  22844765.745    22844768.792    -9374274.998 9  -9071515.383 8
 88  3 21  3 18 29.0800000  0  3G 6G 8G11
  21294264.491    21294266.709    -4330220.021 9  -5096576.767 9
  20599312.719    20599314.378    -5574167.488 9  -5824055.649 9
  22824974.042    22824977.812    -9478282.907 9  -9152560.460 7
 88  3 21  3 18 59.0800000  0  3G 6G 8G11
  21284269.922    21284270.280    -4382747.777 9  -5137507.455 9
  20591352.109    20591353.511    -5616004.734 8  -5856656.065 9
  22805232.631    22805237.152    -9582021.391 9  -9233395.600 8
 88  3 21  3 19 29.0800000  0  3G 6G 8G11
  21274300.736    21274301.826    -4435128.289 9  -5178323.417 9
  20583518.292    20583520.378    -5657168.912 8  -5888732.030 9
  22785542.981    22785547.705    -9685487.517 9  -9314018.526 8
 88  3 21  3 19 59.0800000  0  3G 6G 8G11
  21264362.458    21264363.231    -4487359.783 9  -5219023.245 9
  20575812.709    20575815.752    -5697658.435 9  -5920282.258 8
  22765907.293    22765911.315    -9788678.467 8  -9394426.994 9
 88  3 21  3 20 29.0800000  0  3G 6G 8G11
  21254451.255    21254452.099    -4539440.682 9  -5259605.752 9
  20568237.149    20568238.416    -5737472.013 8  -5951305.807 8
  22746322.910    22746328.113    -9891591.726 9  -9474619.108 9
 88  3 21  3 20 59.0800000  0  3G 6G 8G11
  21244570.130    21244570.630    -4591369.162 9  -5300069.471 9
  20560790.148    20560791.582    -5776608.193 9  -5981801.499 8
  22726793.434    22726797.195    -9994224.217 9  -9554592.447 8
 88  3 21  3 21 29.0800000  0  3G 6G 8G11
  21234717.048    21234718.392    -4643143.637 9  -5340413.193 9
  20553470.554    20553473.729    -5815065.924 8  -6011768.537 8
  22707316.705    22707321.099   -10096573.104 8  -9634344.805 8
 88  3 21  3 21 59.0800000  0  3G 6G 8G11
  21224894.789    21224895.462    -4694762.408 9  -5380635.590 9
  20546282.992    20546284.637    -5852843.790 9  -6041205.806 8
  22687894.160    22687897.783   -10198635.558 9  -9713873.931 8
 88  3 21  3 22 29.0800000  0  3G 6G 8G11
  21215101.807    21215102.824    -4746223.648 9  -5420735.225 9
  20539223.216    20539224.594    -5889940.698 9  -6070112.447 8
  22668527.391    22668531.091   -10300408.743 9  -9793177.652 9
 88  3 21  3 22 59.0800000  0  3G 6G 8G11
  21205339.820    21205339.890    -4797525.912 9  -5460710.993 8
  20532293.437    20532294.980    -5926355.532 9  -6098487.612 8
  22649217.355    22649220.839   -10401890.106 9  -9872254.006 8
 88  3 21  3 23 29.0800000  0  3G 6G 8G11
  21195606.621    21195608.727    -4848667.317 9  -5500561.424 9
  20525494.733    20525496.522    -5962087.234 8  -6126330.469 9
  22629962.276    22629965.695   -10503076.856 9  -9951100.802 8
 88  3 21  3 23 59.0800000  0  3G 6G 8G11
  21185905.819    21185907.838    -4899645.976 9  -5540285.018 9
  20518825.402    20518827.363    -5997134.301 8  -6153639.856 8
  22610764.163    22610767.611   -10603965.793 9 -10029715.527 8
 88  3 21  3 24 29.0800000  0  3G 6G 8G11
  21176236.757    21176237.930    -4950460.156 9  -5579880.466 9
  20512286.837    20512288.580    -6031495.783 9  -6180415.009 8
  22591621.592    22591625.090   -10704554.606 9 -10108096.388 8
 88  3 21  3 24 59.0800000  0  3G 6G 8G11
  21166598.198    21166600.317    -5001108.310 9  -5619346.530 9
  20505877.806    20505879.405    -6065170.837 9  -6206655.281 8
  22572537.588    22572540.970   -10804840.564 9 -10186241.279 8
 88  3 21  3 25 29.0800000  0  3G 6G 8G11
  21156992.380    21156994.000    -5051588.363 9  -5658681.623 9
  20499599.982    20499601.853    -6098157.790 8  -6232359.375 8
  22553512.316    22553517.416   -10904820.464 9 -10264147.640 8
 88  3 21  3 25 59.0800000  0  3G 6G 8G11
  21147417.901    21147419.433    -5101898.566 9  -5697884.350 9
  20493454.681    20493455.166    -6130456.433 9  -6257527.133 8
  22534545.230    22534548.165   -11004492.079 8 -10341813.796 8
 88  3 21  3 26 29.0800000  0  3G 6G 8G11
  21137877.962    21137879.436    -5152037.188 9  -5736953.389 9
  20487438.266    20487439.901    -6162065.707 9  -6282157.709 7
  22515637.444    22515641.417   -11103852.320 9 -10419237.343 9
 88  3 21  3 26 59.0800000  0  3G 6G 8G11
  21128369.363    21128370.909    -5202002.730 9  -5775887.545 9
  20481554.942    20481558.113    -6192984.543 9  -6306250.298 9
  22496789.371    22496793.326   -11202898.354 9 -10496416.028 8
 88  3 21  3 27 29.0800000  0  3G 6G 8G11
  21118895.247    21118895.118    -5251792.941 9  -5814685.100 9
  20475802.941    20475805.040    -6223212.076 9  -6329804.188 8
  22478002.275    22478006.425   -11301627.517 9 -10573347.806 8
 88  3 21  3 27 59.0800000  0  3G 6G 8G11
  21109453.127    21109455.072    -5301406.196 9  -5853344.760 9
  20470183.270    20470183.414    -6252747.520 9  -6352818.792 8
  22459276.595    22459278.770   -11400036.934 9 -10650030.421 9
 88  3 21  3 28 29.0800000  0  3G 6G 8G11
  21100047.294    21100048.039    -5350840.558 9  -5891865.018 9
  20464694.267    20464696.798    -6281590.084 9  -6375293.486 8
  22440610.819    22440614.233   -11498123.977 8 -10726461.856 8
 88  3 21  3 28 59.0800000  0  3G 6G 8G11
  21090673.831    21090675.590    -5400094.378 9  -5930244.611 9
  20459338.154    20459339.858    -6309739.133 9  -6397227.798 8
  22422006.622    22422010.301   -11595886.239 9 -10802640.204 9
 88  3 21  3 29 29.0800000  0  3G 6G 8G11
  21081335.881    21081336.510    -5449165.851 9  -5968482.095 9
  20454113.177    20454115.614    -6337193.705 9  -6418620.947 7
  22403465.576    22403468.359   -11693320.750 9 -10878563.165 8
 88  3 21  3 29 59.0800000  0  3G 6G 8G11
  21072032.730    21072033.733    -5498053.110 9  -6006576.049 9
  20449021.320    20449023.342    -6363953.195 8  -6439472.472 8
  22384987.409    22384991.393   -11790425.088 9 -10954228.838 8
 88  3 21  3 30 29.0800000  0  3G 6G 8G11
  21062765.498    21062766.470    -5546754.247 9  -6044524.974 9
  20444062.415    20444062.309    -6390016.880 8  -6459781.814 7
  22366571.808    22366575.671   -11887196.564 9 -11029635.157 9
 88  3 21  3 30 59.0800000  0  3G 6G 8G11
  21053534.038    21053533.994    -5595267.670 9  -6082327.620 9
  20439233.827    20439236.201    -6415384.207 9  -6479548.548 8
  22348221.227    22348224.268   -11983632.347 9 -11104779.861 8
 88  3 21  3 31 29.0800000  0  2G 6G11
  21044338.293    21044339.371    -5643591.371 9  -6119982.444 9
  22329934.045    22329939.380   -12079730.039 9 -11179661.150 8
 88  3 21  3 31 59.0800000  0  3G 6G 8G11
  21035176.974    21035179.324    -5691723.503 1  -6157487.982 9
                  20052447.933   -20690655.467 1
  22311712.729    22311716.014   -12175487.039 8 -11254276.968 8
 88  3 21  3 32 29.0800000  0  3G 6G 8G11
  21026056.580    21026057.423    -5739662.036 9  -6194842.662 9
                  20425516.839   -20737082.974 9
  22293554.836    22293558.875   -12270900.249 9 -11328624.893 8
 88  3 21  3 32 59.0800000  0  3G 6G 8G11
  21016971.087    21016972.580    -5787405.080 9  -6232045.029 8
  20421251.376    20421254.653   -20759659.114 8  26558307.920 9
  22275465.401    22275468.100   -12365967.189 8 -11402702.996 8
 88  3 21  3 33 29.0800000  0  3G 6G 8G11
  21007923.556    21007923.230    -5834951.038 8  -6269093.800 8
  20417089.204    20417091.178   -20781536.046 8  26541260.965 7
  22257441.024    22257444.212   -12460685.849 9 -11476509.705 8
 88  3 21  3 33 59.0800000  0  3G 6G 8G11
  20998914.553    20998914.709    -5882297.751 9  -6305987.340 9
  20413060.308    20413060.908   -20802713.388 9  26524759.167 8
  22239483.073    22239486.099   -12555053.413 9 -11550042.832 8
 88  3 21  3 34 29.0800000  0  3G 6G 8G11
  20989941.681    20989943.063    -5929443.291 9  -6342724.102 8
  20409163.312    20409164.342   -20823190.707 9  26508802.849 8
  22221592.827    22221596.112   -12649066.737 8 -11623299.918 9
 88  3 21  3 34 59.0800000  0  3G 6G 8G11
  20981008.981    20981010.385    -5976385.952 9  -6379302.785 9
  20405399.822    20405400.780   -20842967.690 9  26493392.227 7
  22203770.198    22203773.257   -12742723.513 9 -11696279.187 9
 88  3 21  3 35 29.0800000  0  3G 6G 8G11
  20972116.026    20972115.509    -6023123.580 9  -6415721.696 9
  20401768.291    20401770.467   -20862044.434 9  26478527.252 8
  22186016.737    22186018.894   -12836021.347 9 -11768978.752 7
 88  3 21  3 35 59.0800000  0  3G 6G 8G11
  20963260.457    20963261.936    -6069654.400 9  -6451979.461 9
  20398271.955    20398274.615   -20880420.116 9  26464208.556 8
  22168331.389    22168333.944   -12928957.299 9 -11841396.341 9
 88  3 21  3 36 29.0800000  0  3G 6G 8G11
  20954446.753    20954446.597    -6115976.339 9  -6488074.468 9
  20394909.437    20394910.138   -20898094.704 8  26450436.163 8
  22150715.472    22150718.417   -13021529.272 8 -11913530.292 9
 88  3 21  3 36 59.0800000  0  3G 6G 8G11
  20945672.080    20945671.485    -6162087.740 9  -6524005.421 8
  20391678.678    20391681.139   -20915068.251 8  26437210.050 7
  22133169.501    22133172.413   -13113734.526 9 -11985378.501 8
 88  3 21  3 37 29.0800000  0  3G 6G 8G11
  20936937.224    20936938.383    -6207986.435 9  -6559770.625 8
  20388583.399    20388584.801   -20931340.349 9  26424530.505 9
  22115693.677    22115696.350   -13205570.500 9 -12056938.961 9
 88  3 21  3 37 59.0800000  0  3G 6G 8G11
  20928243.770    20928242.892    -6253670.508 9  -6595368.592 8
  20385620.566    20385621.109   -20946910.528 9  26412397.924 9
  22098288.233    22098292.104   -13297034.834 9 -12128209.841 8
 88  3 21  3 38 29.0800000  0  3G 6G 8G11
  20919590.844    20919593.471    -6299137.697 9  -6630797.553 9
  20382790.636    20382792.610   -20961778.736 9  26400812.340 8
  22080954.645    22080958.098   -13388124.792 9 -12199188.983 9
 88  3 21  3 38 59.0800000  0  3G 6G 8G11
  20910980.956    20910981.895    -6344386.360 9  -6666056.242 8
  20380094.039    20380097.173   -20975945.142 9  26389773.606 8
  22063692.887    22063695.349   -13478837.864 9 -12269874.460 8
 88  3 21  3 39 29.0800000  0  3G 6G 8G11
  20902411.660    20902414.352    -6389414.482 9  -6701143.066 9
  20377532.721    20377534.010   -20989409.654 8  26379281.799 9
  22046502.961    22046505.888   -13569171.780 9 -12340264.484 8
 88  3 21  3 39 59.0800000  0  3G 6G 8G11
  20893885.356    20893887.235    -6434220.003 9  -6736056.442 9
  20375103.793    20375106.612   -21002171.864 9  26369337.219 8
  22029384.659    22029387.800   -13659124.125 9 -12410357.175 8
 88  3 21  3 40 29.0800000  0  3G 6G 8G11
  20885402.981    20885403.830    -6478800.885 8  -6770794.784 9
  20372808.398    20372809.414   -21014232.322 9  26359939.474 8
  22012340.644    22012343.871   -13748692.202 9 -12480150.456 8
 88  3 21  3 40 59.0800000  0  3G 6G 8G11
  20876962.035    20876963.696    -6523155.265 8  -6805356.620 9
  20370647.108    20370648.796   -21025591.044 9  26351088.543 8
  21995370.017    21995372.912   -13837873.403 9 -12549642.275 9
 88  3 21  3 41 29.0800000  0  3G 6G 8G11
  20868565.565    20868566.282    -6567281.112 9  -6839740.379 9
  20368617.692    20368620.338   -21036247.801 8  26342784.586 8
  21978473.683    21978475.579   -13926665.676 9 -12618831.012 8
 88  3 21  3 41 59.0800000  0  3G 6G 8G11
  20860213.547    20860213.499    -6611176.269 9  -6873944.391 8
  20366725.157    20366725.701   -21046202.769 8  26335027.489 7
  21961650.870    21961653.436   -14015066.301 9 -12687714.586 7
 88  3 21  3 42 29.0800000  0  3G 6G 8G11
  20851903.609    20851904.725    -6654838.861 9  -6907967.180 9
  20364963.782    20364966.256   -21055456.089 8  26327817.128 8
  21944904.067    21944907.512   -14103072.803 9 -12756291.031 8
 88  3 21  3 42 59.0800000  0  3G 6G 8G11
  20843638.856    20843639.672    -6698266.794 9  -6941807.126 9
  20363337.511    20363337.955   -21064008.436 9  26321152.986 8
  21928232.852    21928235.125   -14190683.038 9 -12824558.710 8
 88  3 21  3 43 29.0800000  0  3G 6G 8G11
  20835420.324    20835420.211    -6741458.196 9  -6975462.749 8
  20361842.716    20361843.046   -21071859.841 9  26315035.013 8
  21911636.575    21911639.745   -14277894.851 8 -12892515.916 9
 88  3 21  3 43 59.0800000  0  3G 6G 8G11
  20827246.927    20827247.880    -6784411.035 9  -7008932.469 8
  20360482.426    20360484.387   -21079010.180 8  26309463.347 8
  21895116.559    21895121.346   -14364705.812 9 -12960160.778 8
 88  3 21  3 44 29.0800000  0  3G 6G 8G11
  20819118.891    20819118.878    -6827123.274 9  -7042214.721 8
  20359254.754    20359255.841   -21085459.681 9  26304437.780 7
  21878674.087    21878677.075   -14451113.399 9 -13027491.325 8
 88  3 21  3 44 59.0800000  0  3G 6G 8G11
  20811037.732    20811039.203    -6869592.875 9  -7075307.906 9
  20358161.130    20358162.389   -21091209.015 8  26299957.805 8
  21862308.428    21862311.486   -14537115.084 9 -13094505.588 7
 88  3 21  3 45 29.0800000  0  3G 6G 8G11
  20803001.640    20803003.504    -6911817.649 9  -7108210.310 9
  20357199.580    20357202.184   -21096258.393 8  26296023.242 7
  21846021.415    21846022.746   -14622708.742 9 -13161201.920 8
 88  3 21  3 45 59.0800000  0  3G 6G 8G11
  20795014.573    20795015.687    -6953795.534 9  -7140920.347 8
  20356372.023    20356372.079   -21100608.541 8  26292633.529 8
  21829811.532    21829812.578   -14707892.173 8 -13227578.590 9
 88  3 21  3 46 29.0800000  0  3G 6G 8G11
  20787073.540    20787073.823    -6995524.681 9  -7173436.554 9
  20355676.909    20355678.569   -21104259.591 8  26289788.582 7
  21813679.492    21813682.190   -14792662.924 9 -13293633.671 8
 88  3 21  3 46 59.0800000  0  3G 6G 8G11
  20779179.316    20779179.975    -7037003.063 9  -7205757.350 8
  20355114.614    20355116.833   -21107211.961 8  26287488.041 8
  21797627.028    21797629.679   -14877018.619 9 -13359365.357 8
 88  3 21  3 47 29.0800000  0  3G 6G 8G11
  20771335.543    20771336.294    -7078228.610 9  -7237881.147 9
  20354685.453    20354686.226   -21109466.419 8  26285731.364 8
  21781653.784    21781656.536   -14960957.193 9 -13424771.989 8
 88  3 21  3 47 59.0800000  0  3G 6G 8G11
  20763538.188    20763539.853    -7119199.211 9  -7269806.278 9
  20354390.626    20354391.627   -21111023.610 9  26284517.987 8
  21765761.398    21765764.085   -15044475.964 9 -13489851.527 9
 88  3 21  3 48 29.0800000  0  3G 6G 8G11
  20755790.551    20755791.758    -7159912.889 8  -7301531.209 8
  20354227.443    20354228.058   -21111884.054 8  26283847.522 9
  21749948.176    21749951.214   -15127573.301 9 -13554602.658 8
 88  3 21  3 48 59.0800000  0  3G 6G 8G11
  20748092.391    20748094.378    -7200367.984 9  -7333054.660 9
  20354194.245    20354196.720   -21112048.772 9  26283719.187 8
  21734215.713    21734218.114   -15210247.448 9 -13619024.032 9
 88  3 21  3 49 29.0800000  0  3G 6G 8G11
  20740443.573    20740444.930    -7240561.561 9  -7364374.307 9
  20354295.068    20354295.897   -21111517.547 8  26284133.152 8
  21718564.683    21718567.270   -15292495.047 9 -13683113.022 8
 88  3 21  3 49 59.0800000  0  3G 6G 8G11
  20732844.591    20732846.398    -7280491.910 9  -7395488.868 9
  20354527.448    20354530.466   -21110291.709 8  26285088.346 8
  21702995.319    21702997.287   -15374314.544 9 -13746868.427 8
 88  3 21  3 50 29.0800000  0  3G 6G 8G11
  20725296.741    20725299.169    -7320156.945 9  -7426396.690 8
  20354895.021    20354895.522   -21108371.818 8  26286584.375 8
  21687506.720    21687509.461   -15455703.485 9 -13810288.338 8
 88  3 21  3 50 59.0800000  0  3G 6G 8G11
  20717799.830    20717802.382    -7359554.508 9  -7457096.084 9
  20355391.607    20355393.653   -21105758.169 9  26288621.006 8
  21672100.946    21672103.562   -15536659.444 9 -13873370.866 8
 88  3 21  3 51 29.0800000  0  3G 6G 8G11
  20710355.670    20710355.170    -7398682.550 8  -7487585.453 9
  20356021.411    20356022.885   -21102451.624 8  26291197.556 9
  21656778.104    21656781.693   -15617180.488 8 -13936114.486 8
 88  3 21  3 51 59.0800000  0  3G 6G 8G11
  20702960.586    20702961.860    -7437539.110 9  -7517863.286 9
  20356782.116    20356783.790   -21098453.202 8  26294313.231 8
  21641538.861    21641541.967   -15697264.959 9 -13998517.918 8
 88  3 21  3 52 29.0800000  0  3G 6G 8G11
  20695617.809    20695619.678    -7476121.975 9  -7547927.850 9
  20357674.122    20357676.310   -21093763.657 9  26297967.430 8
  21626382.664    21626386.421   -15776910.356 9 -14060579.220 8
 88  3 21  3 52 59.0800000  0  3G 6G 8G11
  20688329.493    20688329.330    -7514429.132 9  -7577777.566 8
  20358698.202    20358698.887   -21088383.691 8  26302159.621 8
  21611311.081    21611314.094   -15856114.325 9 -14122296.562 8
 88  3 21  3 53 29.0800000  0  3G 6G 8G11
  20681092.200    20681093.204    -7552458.444 9  -7607410.789 8
  20359852.237    20359853.611   -21082314.479 8  26306888.879 9
  21596322.964    21596326.224   -15934875.337 9 -14183668.724 8
 88  3 21  3 53 59.0800000  0  3G 6G 8G11
  20673909.089    20673909.449    -7590207.680 9  -7636825.770 9
  20361137.202    20361140.608   -21075556.613 8  26312154.767 9
  21581420.534    21581423.789   -16013190.896 8 -14244693.801 8
 88  3 21  3 54 29.0800000  0  3G 6G 8G11
  20666779.720    20666780.112    -7627674.900 9  -7666020.993 8
  20362555.271    20362558.060   -21068111.151 9  26317956.448 8
  21566602.302    21566605.297   -16091058.781 9 -14305370.029 9
 88  3 21  3 54 59.0800000  0  3G 6G 8G11
  20659704.418    20659703.955    -7664857.999 9  -7694994.823 9
  20364102.237    20364104.827   -21059979.236 8  26324293.015 9
  21551869.340    21551872.907   -16168477.343 9 -14365696.158 8
 88  3 21  3 55 29.0800000  0  3G 6G 8G11
  20652681.556    20652683.364    -7701754.774 9  -7723745.561 8
  20365781.277    20365783.981   -21051161.883 8  26331163.694 8
  21537223.037    21537226.883   -16245444.367 9 -14425670.425 9
 88  3 21  3 55 59.0800000  0  3G 6G 8G11
  20645715.633    20645715.559    -7738363.324 9  -7752271.698 9
  20367589.157    20367590.745   -21041660.205 9  26338567.611 7
  21522663.895    21522665.977   -16321957.877 9 -14485291.304 8
 88  3 21  3 56 29.0800000  0  4G 6G 8G11G 9
  20638804.098    20638806.018    -7774681.570 8  -7780571.620 9
  20369525.941    20369528.410   -21031475.122 8  26346504.042 8
  21508190.295    21508192.464   -16398016.313 9 -14544557.582 9
                  22630143.805   -29438258.623 9
 88  3 21  3 56 59.0800000  0  4G 6G 8G11G 9
  20631948.835    20631949.840    -7810707.189 9  -7808643.523 9
  20371595.249    20371596.802   -21020607.701 9  26354972.183 8
  21493803.846    21493806.564   -16473617.006 9 -14603467.172 8
  22613400.857    22613403.053   -29526376.803 8  37477706.626 8
 88  3 21  3 57 29.0800000  0  4G 6G 8G11G 9
  20625148.781    20625150.537    -7846438.011 8  -7836485.710 9
  20373793.713    20373794.479   -21009059.109 8  26363971.097 8
  21479504.956    21479507.645   -16548758.291 9 -14662018.782 9
  22596644.928    22596645.422   -29614439.662 9  37409086.247 9
 88  3 21  3 57 59.0800000  0  4G 6G 8G11G 9
  20618406.419    20618407.670    -7881871.949 9  -7864096.563 9
  20376121.074    20376120.566   -20996830.124 8  26373500.187 9
  21465293.449    21465295.330   -16623438.376 9 -14720211.007 8
  22579896.541    22579897.921   -29702445.722 9  37340510.132 9
 88  3 21  3 58 29.0800000  0  4G 6G 8G11G 9
  20611720.559    20611720.995    -7917006.889 9  -7891474.423 9
  20378575.615    20378578.255   -20983922.381 8  26383558.180 9
  21451170.233    21451173.122   -16697655.109 9 -14778042.193 8
  22563159.766    22563162.370   -29790393.353 9  37271979.552 9
 88  3 21  3 58 59.0800000  0  4G 6G 8G11G 9
  20605091.468    20605093.077    -7951840.940 8  -7918617.841 9
  20381161.428    20381163.024   -20970337.394 8  26394143.900 9
  21437135.860    21437139.141   -16771406.940 9 -14835511.108 9
  22546436.004    22546437.808   -29878280.757 9  37203495.898 9
 88  3 21  3 59 29.0800000  0  4G 6G 8G11G 9
  20598520.160    20598521.355    -7986371.914 9  -7945525.072 9
  20383873.592    20383876.360   -20956076.388 8  26405256.384 8
  21423190.893    21423193.045   -16844691.636 9 -14892616.027 9
  22529722.617    22529725.207   -29966105.984 9  37135060.715 9
 88  3 21  3 59 59.0800000  0  4G 6G 8G11G 9
  20592008.018    20592009.131    -8020597.613 9  -7972194.439 8
  20386717.056    20386719.011   -20941140.219 8  26416894.957 9
  21409333.398    21409337.196   -16917507.303 9 -14949355.479 8
  22513022.674    22513024.649   -30053867.446 9  37066675.181 8
 88  3 21  4  0 29.0800000  0  4G 6G 8G11G 9
  20585553.109    20585554.975    -8054515.817 8  -7998624.210 9
  20389687.243    20389688.883   -20925530.407 8  26429058.453 8
  21395566.478    21395571.073   -16989852.373 9 -15005728.222 8
  22496335.351    22496335.408   -30141563.237 9  36998340.828 9
 88  3 21  4  0 59.0800000  0  4G 6G 8G11G 9
  20579158.406    20579159.350    -8088124.578 8  -8024812.846 8
  20392785.698    20392787.223   -20909248.912 8  26441745.347 7
  21381890.324    21381892.537   -17061725.027 9 -15061732.850 8
  22479659.626    22479661.514   -30229191.524 9  36930059.069 9
 88  3 21  4  1 29.0800000  0  4G 6G 8G11G 9
  20572821.719    20572823.604    -8121421.757 9  -8050758.696 9
  20396011.276    20396013.057   -20892296.568 9  26454954.986 9
  21368302.919    21368305.876   -17133123.184 9 -15117367.752 9
  22462998.010    22462999.555   -30316750.347 9  36861831.463 8
 88  3 21  4  1 59.0800000  0  4G 6G 8G11G 9
  20566544.991    20566546.128    -8154405.195 9  -8076460.076 9
  20399365.636    20399366.759   -20874675.076 9  26468686.023 9
  21354807.046    21354809.992   -17204045.197 9 -15172631.612 8
  22446349.580    22446351.239   -30404237.962 9  36793659.331 9
 88  3 21  4  2 29.0800000  0  4G 6G 8G11G 9
  20560328.857    20560330.902    -8187072.797 9  -8101915.346 9
  20402845.316    20402847.671   -20856385.726 8  26482937.480 9
  21341401.558    21341405.212   -17274489.430 9 -15227523.189 8
  22429713.848    22429715.644   -30491652.459 9  36725544.189 9
 88  3 21  4  2 59.0800000  0  4G 6G 8G11G 9
  20554172.530    20554173.875    -8219422.406 9  -8127122.849 9
  20406452.263    20406453.801   -20837429.915 9  26497708.245 9
  21328088.278    21328091.056   -17344453.975 9 -15282040.975 9
  22413094.658    22413096.784   -30578992.021 9  36657487.430 9
 88  3 21  4  3 29.0800000  0  4G 6G 8G11G 9
  20548078.088    20548079.861    -8251451.884 9  -8152080.874 8
  20410185.960    20410187.555   -20817809.336 8  26512997.008 9
  21314866.408    21314869.265   -17413936.964 9 -15336183.530 8
  22396488.741    22396491.317   -30666254.525 9  36589490.696 9
 88  3 21  4  3 59.0800000  0  4G 6G 8G11G 9
  20542043.744    20542044.848    -8283159.216 8  -8176787.874 9
  20414045.892    20414048.804   -20797525.662 9  26528802.476 8
  21301736.312    21301738.420   -17482936.912 9 -15389949.692 8
  22379899.629    22379900.645   -30753438.393 9  36521555.284 9
 88  3 21  4  4 29.0800000  0  4G 6G 8G11G 9
  20536071.455    20536073.103    -8314542.116 8  -8201242.078 9
  20418031.488    20418033.985   -20776580.199 9  26545123.642 8
  21288699.345    21288701.050   -17551451.916 9 -15443337.968 8
  22363323.540    22363325.134   -30840541.513 9  36453682.759 9
 88  3 21  4  4 59.0800000  0  4G 6G 8G11G 9
  20530162.760    20530164.308    -8345598.544 8  -8225441.880 9
  20422142.804    20422145.402   -20754974.544 8  26561959.212 8
  21275752.395    21275755.155   -17619480.622 9 -15496347.323 8
  22346765.006    22346765.056   -30927562.012 9  36385874.633 9
 88  3 21  4  5 29.0800000  0  4G 6G 8G11G 9
  20524314.099    20524316.384    -8376326.467 9  -8249385.716 8
  20426379.870    20426381.738   -20732710.437 9  26579307.880 8
  21262899.370    21262902.380   -17687021.314 9 -15548976.385 9
  22330221.183    22330221.649   -31014497.903 9  36318132.393 9
 88  3 21  4  5 59.0800000  0  4G 6G 8G11G 9
  20518529.845    20518532.531    -8406723.765 9  -8273071.922 9
  20430740.796    20430743.222   -20709789.274 9  26597168.534 8
  21250140.868    21250142.741   -17754072.159 9 -15601223.762 7
  22313695.018    22313695.754   -31101347.355 9  36250457.530 8
 88  3 21  4  6 29.0800000  0  4G 6G 8G11G 9
  20512810.495    20512811.279    -8436788.380 9  -8296498.899 9
  20435228.759    20435229.825   -20686213.175 9  26615539.540 9
  21237474.783    21237477.066   -17820631.689 9 -15653088.307 7
  22297183.963    22297185.551   -31188108.357 9  36182851.586 9
 88  3 21  4  6 59.0800000  0  4G 6G 8G11G 9
  20507151.610    20507153.341    -8466518.038 9  -8319664.833 8
  20439839.094    20439840.733   -20661983.706 9  26634419.654 9
  21224902.819    21224904.584   -17886698.099 9 -15704568.591 8
  22280690.715    22280691.374   -31274778.932 9  36115316.117 9
 88  3 21  4  7 29.0800000  0  4G 6G 8G11G 9
  20501559.599    20501560.218    -8495910.670 9  -8342568.186 9
  20444572.517    20444574.872   -20637102.429 8  26653807.667 9
  21212424.987    21212426.903   -17952269.738 9 -15755663.333 8
  22264215.054    22264216.822   -31361356.828 9  36047852.855 8
 88  3 21  4  7 59.0800000  0  4G 6G 8G11G 9
  20496030.409    20496031.532    -8524964.224 8  -8365207.334 9
  20449432.921    20449433.028   -20611571.258 9  26673702.095 8
  21200040.700    21200044.837   -18017345.087 8 -15806371.386 8
  22247758.518    22247759.512   -31447840.391 9  35980463.087 9
 88  3 21  4  8 29.0800000  0  4G 6G 8G11G 9
  20490566.114    20490567.874    -8553676.693 8  -8387580.675 9
  20454414.608    20454414.744   -20585391.893 9  26694101.604 8
  21187751.669    21187754.071   -18081922.709 8 -15856691.562 8
  22231318.772    22231320.647   -31534227.484 9  35913148.502 8
 88  3 21  4  8 59.0800000  0  4G 6G 8G11G 9
  20485168.497    20485169.008    -8582045.835 9  -8409686.496 9
  20459518.838    20459519.576   -20558566.031 9  26715004.881 8
  21175559.073    21175561.469   -18146001.051 8 -15906622.717 8
  22214898.703    22214901.486   -31620516.086 9  35845910.658 9
 88  3 21  4  9 29.0800000  0  4G 6G 8G11G 9
  20479834.245    20479836.048    -8610069.485 9  -8431523.097 8
  20464745.041    20464748.483   -20531095.697 8  26736410.351 9
  21163459.631    21163463.224   -18209578.572 9 -15956163.603 9
  22198497.398    22198498.716   -31706704.157 9  35778751.184 9
 88  3 21  4  9 59.0800000  0  4G 6G 8G11G 9
  20474569.199    20474570.013    -8637745.807 9  -8453089.057 9
  20470095.563    20470096.973   -20502982.904 8  26758316.433 9
  21151458.061    21151460.434   -18272653.945 9 -16005313.222 8
  22182116.486    22182118.089   -31792789.806 9  35711671.475 8
 88  3 21  4 10 29.0800000  0  4G 6G 8G11G 9
  20469369.034    20469370.167    -8665072.621 8  -8474382.685 9
  20475567.054    20475569.480   -20474229.565 9  26780721.629 9
  21139551.181    21139552.843   -18335225.931 8 -16054070.570 7
  22165754.383    22165756.149   -31878770.931 9  35644673.243 9
 88  3 21  4 10 59.0800000  0  4G 6G 8G11G 9
  20464234.466    20464236.205    -8692047.747 9  -8495402.265 8
  20481159.858    20481162.413   -20444837.680 9  26803624.410 9
  21127739.379    21127741.877   -18397292.620 8 -16102434.185 9
  22149413.199    22149414.078   -31964645.339 9  35577758.133 9
 88  3 21  4 11 29.0800000  0  4G 6G 8G11G 9
  20459170.038    20459169.959    -8718669.193 9  -8516146.243 9
  20486875.007    20486875.743   -20414808.859 8  26827023.499 8
  21116024.780    21116027.746   -18458852.600 8 -16150402.971 8
  22133092.943    22133094.581   -32050410.897 9  35510927.857 9
 88  3 21  4 11 59.0800000  0  4G 6G 8G11G 9
  20454171.609    20454173.482    -8744934.916 9  -8536613.030 9
  20492709.951    20492711.947   -20384145.653 9  26850916.911 9
  21104407.014    21104410.642   -18519905.036 8 -16197976.264 8
  22116793.742    22116793.506   -32136065.963 9  35444183.697 9
 88  3 21  4 12 29.0800000  0  4G 6G 8G11G 9
  20449240.478    20449241.483    -8770842.933 8  -8556801.085 8
  20498665.779    20498667.332   -20352850.032 9  26875303.118 9
  21092886.600    21092889.480   -18580448.084 8 -16245152.629 8
  22100514.275    22100517.716   -32221608.095 9  35377527.495 8
 88  3 21  4 12 59.0800000  0  4G 6G 8G11G 9
  20444380.238    20444380.468    -8796391.050 9  -8576708.732 9
  20504741.118    20504742.013   -20320923.555 9  26900180.900 9
  21081461.946    21081464.246   -18640480.571 8 -16291931.161 8
  22084258.324    22084260.527   -32307035.323 8  35310960.863 9
 88  3 21  4 13 29.0800000  0  4G 6G 8G11G 9
  20439585.922    20439587.861    -8821577.177 9  -8596334.277 9
  20510935.367    20510937.177   -20288368.405 9  26925548.555 8
  21070135.717    21070138.773   -18700001.333 8 -16338310.943 8
  22068023.623    22068025.662   -32392345.278 9  35244485.591 9
 88  3 21  4 13 59.0800000  0  4G 6G 8G11G 9
  20434863.727    20434863.333    -8846399.255 9  -8615676.150 8
  20517248.754    20517250.894   -20255186.749 9  26951404.398 9
  21058906.584    21058909.169   -18759009.081 8 -16384290.978 8
  22051813.668    22051814.133   -32477536.225 9  35178103.067 8
 88  3 21  4 14 29.0800000  0  4G 6G 8G11G 9
  20430209.000    20430210.502    -8870855.372 9  -8634732.879 9
  20523682.395    20523683.518   -20221380.822 9  26977746.674 8
  21047776.068    21047778.782   -18817502.272 9 -16429870.054 8
  22035625.371    22035626.602   -32562605.763 9  35111815.140 8
 88  3 21  4 14 59.0800000  0  4G 6G 8G11G 9
  20425625.390    20425627.834    -8894943.337 9  -8653502.706 9
  20530234.773    20530235.640   -20186952.644 9  27004573.841 9
  21036743.036    21036746.955   -18875479.803 9 -16475047.315 8
  22019460.105    22019462.130   -32647551.836 9  35045623.413 9
 88  3 21  4 15 29.0800000  0  4G 6G 8G11G 9
  20421112.467    20421112.252    -8918661.107 9  -8671984.082 9
  20536903.829    20536904.681   -20151904.634 9  27031883.999 9
  21025810.008    21025810.865   -18932940.243 9 -16519821.666 8
  22003320.223    22003321.697   -32732372.195 9  34979529.651 9
 88  3 21  4 15 59.0800000  0  4G 6G 8G11G 9
  20416669.442    20416670.800    -8942006.413 8  -8690175.245 9
  20543691.137    20543691.703   -20116238.823 9  27059675.543 9
  21014973.532    21014975.780   -18989882.061 9 -16564191.882 8
  21987203.565    21987205.211   -32817064.507 9  34913535.679 9
 88  3 21  4 16 29.0800000  0  4G 6G 8G11G 9
  20412298.863    20412299.896    -8964977.374 9  -8708074.683 9
  20550594.091    20550596.201   -20079957.086 9  27087947.036 8
  21004237.294    21004239.478   -19046304.466 8 -16608157.367 9
  21971111.949    21971113.766   -32901626.596 9  34847643.147 9
 88  3 21  4 16 59.0800000  0  4G 6G 8G11G 9
  20407997.945    20407999.927    -8987572.166 9  -8725681.008 9
  20557615.525    20557617.636   -20043061.861 9  27116696.551 9
  20993598.073    20993601.552   -19102206.486 8 -16651717.353 9
  21955044.536    21955046.690   -32986056.510 9  34781853.647 9
 88  3 21  4 17 29.0800000  0  4G 6G 8G11G 9
  20403770.119    20403772.519    -9009788.664 9  -8742992.566 9
  20564752.921    20564754.645   -20005555.380 8  27145922.396 8
  20983059.181    20983062.234   -19157586.829 8 -16694870.828 8
  21939003.860    21939005.391   -33070352.047 9  34716168.828 9
 88  3 21  4 17 59.0800000  0  4G 6G 8G11G 9
  20399615.659    20399617.927    -9031624.779 8  -8760007.725 9
  20572005.506    20572008.046   -19967440.096 9  27175622.625 9
  20972621.611    20972623.549   -19212444.020 9 -16737616.666 8
  21922989.061    21922990.829   -33154510.999 9  34650590.440 9
 88  3 21  4 18 29.0800000  0  4G 6G 8G11G 9
  20395532.820    20395534.927    -9053078.542 9  -8776724.929 9
  20579374.338    20579376.621   -19928717.952 8  27205795.726 9
  20962282.229    20962284.320   -19266777.105 9 -16779954.099 7
  21907001.258    21907003.182   -33238530.950 9  34585120.364 9
 88  3 21  4 18 59.0800000  0  4G 6G 8G11G 9
  20391525.334    20391524.739    -9074147.709 8  -8793142.458 8
  20586858.217    20586859.898   -19889391.779 8  27236439.493 8
  20952042.597    20952044.808   -19320585.036 9 -16821882.337 9
  21891038.888    21891040.893   -33322409.748 9  34519760.314 9
 88  3 21  4 19 29.0800000  0  4G 6G 8G11G 9
  20387588.849    20387589.243    -9094830.477 9  -8809258.920 9
  20594456.512    20594458.008   -19849463.845 9  27267552.172 9
  20941902.461    20941906.723   -19373866.840 8 -16863400.604 8
  21875104.144    21875107.241   -33406145.122 9  34454512.016 9
 88  3 21  4 19 59.0800000  0  4G 6G 8G11G 9
  20383726.870    20383727.763    -9115125.005 9  -8825072.843 9
  20602168.536    20602170.476   -19808936.545 9  27299131.902 9
  20931863.586    20931866.950   -19426621.458 8 -16904508.065 8
  21859197.874    21859200.428   -33489735.016 9  34389377.051 9
 88  3 21  4 20 29.0800000  0  4G 6G 8G11G 9
  20379937.664    20379940.442    -9135029.221 8  -8840582.617 9
  20609994.577    20609996.116   -19767812.021 9  27331176.986 9
  20921925.697    20921928.991   -19478847.974 9 -16945204.024 8
  21843318.991    21843321.532   -33573177.001 9  34324357.346 9
 88  3 21  4 20 59.0800000  0  4G 6G 8G11G 9
  20376226.445    20376226.555    -9154541.064 9  -8855786.652 9
  20617932.200    20617935.313   -19726092.737 9  27363685.520 9
  20912087.712    20912091.217   -19530545.313 8 -16985487.634 8
  21827469.401    21827471.569   -33656468.904 9  34259454.611 9
 88  3 21  4 21 29.0800000  0  4G 6G 8G11G 9
  20372587.434    20372588.873    -9173658.542 9  -8870683.396 9
  20625984.696    20625986.550   -19683781.167 9  27396655.576 9
  20902350.847    20902353.764   -19581712.275 9 -17025357.974 8
  21811649.422    21811650.295   -33739608.102 9  34194670.832 9
 88  3 21  4 21 59.0800000  0  4G 6G 8G11G 9
  20369023.855    20369026.230    -9192379.685 9  -8885271.295 9
  20634148.692    20634149.873   -19640879.374 9  27430085.552 9
  20892715.862    20892718.977   -19632348.085 9 -17064814.421 7
  21795857.333    21795858.979   -33822592.522 9  34130007.669 9
 88  3 21  4 22 29.0800000  0  4G 6G 8G11G 9
  20365538.786    20365538.626    -9210702.601 9  -8899548.877 8
  20642423.811    20642425.479   -19597390.131 8  27463973.273 9
  20883180.767    20883185.563   -19682451.776 8 -17103856.234 7
  21780095.751    21780096.680   -33905420.005 9  34065466.820 9
 88  3 21  4 22 59.0800000  0  4G 6G 8G11G 9
  20362127.715    20362129.027    -9228625.304 8  -8913514.625 9
  20650811.945    20650812.825   -19553315.762 9  27498316.932 9
  20873748.079    20873751.476   -19732022.260 8 -17142482.558 8
  21764365.168    21764366.105   -33988088.098 9  34001050.121 8
 88  3 21  4 23 29.0800000  0  4G 6G 8G11G 9
  20358793.733    20358795.836    -9246145.725 8  -8927166.892 9
  20659309.830    20659310.381   -19508658.952 9  27533114.448 9
  20864416.575    20864420.161   -19781058.831 8 -17180692.851 7
  21748664.014    21748665.530   -34070594.533 9  33936759.409 8
 88  3 21  4 23 59.0800000  0  4G 6G 8G11G 9
  20355536.531    20355538.831    -9263261.941 8  -8940504.213 8
  20667918.154    20667919.392   -19463421.953 9  27568364.069 9
  20855187.847    20855189.938   -19829560.609 8 -17218486.422 8
  21732995.484    21732996.522   -34152936.462 9  33872596.884 9
 88  3 21  4 24 29.0800000  0  4G 6G 8G11G 9
  20352356.564    20352358.870    -9279972.081 8  -8953525.095 9
  20676635.198    20676637.682   -19417607.649 8  27604063.532 9
  20846059.651    20846062.082   -19877526.959 9 -17255862.770 7
  21717357.347    21717359.557   -34235112.212 9  33808563.845 8
 88  3 21  4 24 59.0800000  0  4G 6G 8G11G 9
  20349254.998    20349256.788    -9296274.160 8  -8966228.020 9
  20685463.026    20685465.337   -19371218.229 9  27640211.132 9
  20837034.427    20837036.104   -19924956.915 8 -17292821.175 8
  21701751.813    21701752.787   -34317119.280 9  33744662.256 9
 88  3 21  4 25 29.0800000  0  4G 6G 8G11G 9
  20346230.514    20346232.010    -9312166.353 9  -8978611.544 8
  20694399.144    20694401.570   -19324256.926 9  27676804.362 9
  20828109.362    20828112.093   -19971849.598 8 -17329360.885 7
  21686179.226    21686180.464   -34398955.223 9  33680893.977 9
 88  3 21  4 25 59.0800000  0  4G 6G 8G11G 9
  20343285.558    20343286.211    -9327646.612 9  -8990674.083 8
  20703443.926    20703445.995   -19276726.112 8  27713841.366 9
  20819288.818    20819292.666   -20018203.863 9 -17365481.079 7
  21670638.700    21670640.953   -34480617.493 9  33617261.067 9
 88  3 21  4 26 29.0800000  0  4G 6G13G11G 9
  20340418.237    20340419.132    -9342713.271 8  -9002414.348 9
                  23494095.322   -40262213.694 9
  20810570.731    20810574.181   -20064019.317 9 -17401181.394 8
  21655133.190    21655133.616   -34562103.904 9  33553765.206 9
 88  3 21  4 26 59.0800000  0  4G 6G13G11G 9
  20337629.089    20337631.228    -9357364.204 8  -9013830.658 8
  23772015.748    23772018.342   -40377343.522 9  51088761.888 9
  20801955.197    20801958.265   -20109295.310 9 -17436461.357 8
  21639660.811    21639661.115   -34643412.016 9  33490408.241 9
 88  3 21  4 27 29.0800000  0  4G 6G13G11G 9
  20334920.730    20334922.712    -9371597.671 9  -9024921.661 9
  23750146.051    23750147.654   -40492270.963 8  50999208.090 9
  20793441.238    20793445.011   -20154030.900 8 -17471320.247 8
  21624221.672    21624224.279   -34724539.374 9  33427192.139 9
 88  3 21  4 27 59.0800000  0  4G 6G13G11G 9
  20332293.133    20332293.827    -9385411.660 9  -9035685.823 9
  23728312.810    23728316.763   -40606993.890 9  50909813.654 9
  20785032.473    20785035.223   -20198225.735 8 -17505757.749 8
  21608819.658    21608820.098   -34805483.534 9  33364118.798 9
 88  3 21  4 28 29.0800000  0  4G 6G13G11G 9
  20329743.463    20329745.775    -9398804.683 8  -9046121.936 9
  23706520.930    23706525.147   -40721510.412 9  50820580.065 8
  20776724.151    20776727.622   -20241879.515 7 -17539773.653 8
  21593451.521    21593452.826   -34886242.374 9  33301189.856 9
 88  3 21  4 28 59.0800000  0  4G 6G13G11G 9
  20327276.358    20327277.754    -9411774.358 8  -9056228.177 8
  23684770.163    23684774.209   -40835817.375 8  50731509.766 8
  20768520.974    20768523.855   -20284991.269 8 -17573367.197 8
  21578118.735    21578119.976   -34966813.338 9  33238407.301 9
 88  3 21  4 29 29.0800000  0  4G 6G13G11G 9
  20324888.984    20324890.178    -9424318.990 9  -9066003.229 9
  23663058.894    23663062.442   -40949912.355 8  50642604.639 9
  20760420.085    20760423.396   -20327559.990 8 -17606537.617 7
  21562823.511    21562823.771   -35047193.509 9  33175773.430 9
 88  3 21  4 29 59.0800000  0  4G 6G13G11G 9
  20322583.143    20322583.694    -9436436.754 9  -9075445.652 9
  23641388.595    23641391.285   -41063792.604 9  50553866.844 8
  20752423.807    20752427.293   -20369585.071 9 -17639284.403 8
  21547564.817    21547566.523   -35127380.914 9  33113289.765 9
 88  3 21  4 30 29.0800000  0  4G 6G13G11G 9
  20320358.749    20320359.386    -9448125.840 8  -9084554.029 9
  23619757.593    23619760.916   -41177456.135 9  50465297.894 8
  20744529.455    20744533.022   -20411066.225 9 -17671607.355 8
  21532342.419    21532343.031   -35207372.866 9  33050958.379 9
 88  3 21  4 30 59.0800000  0  4G 6G13G11G 9
  20318216.348    20318217.701    -9459384.588 9  -9093327.092 9
  23598170.491    23598174.344   -41290900.036 9  50376900.095 8
  20736740.556    20736742.268   -20452002.915 8 -17703506.053 8
  21517157.426    21517159.204   -35287167.236 9  32988780.980 8
 88  3 21  4 31 29.0800000  0  4G 6G13G11G 9
  20316156.511    20316157.348    -9470210.953 9  -9101763.224 9
  23576625.073    23576628.321   -41404122.239 9  50288675.046 7
  20729054.520    20729057.198   -20492394.740 9 -17734980.179 8
  21502011.896    21502012.694   -35366761.175 9  32926759.744 8
 88  3 21  4 31 59.0800000  0  4G 6G13G11G 9
  20314177.922    20314179.389    -9480603.224 9  -9109861.094 9
  23555120.968    23555126.272   -41517120.075 8  50200624.817 8
  20721471.301    20721474.631   -20532240.869 9 -17766029.088 8
  21486905.167    21486905.822   -35446152.143 9  32864896.668 9
 88  3 21  4 32 29.0800000  0  4G 6G13G11G 9
  20312283.356    20312284.622    -9490559.558 8  -9117619.274 9
  23533662.341    23533666.162   -41629891.168 9  50112751.268 7
  20713993.106    20713994.808   -20571540.907 8 -17796652.478 8
  21471834.926    21471836.839   -35525337.927 9  32803193.465 9
 88  3 21  4 32 59.0800000  0  4G 6G13G11G 9
  20310472.241    20310473.593    -9500078.126 9  -9125036.339 9
  23512248.989    23512249.784   -41742432.887 9  50025056.474 8
  20706618.678    20706620.479   -20610294.720 8 -17826850.228 8
  21456806.818    21456807.358   -35604315.994 9  32741652.142 9
 88  3 21  4 33 29.0800000  0  4G 6G13G11G 9
  20308742.831    20308745.314    -9509157.267 8  -9132111.003 8
  23490875.527    23490877.133   -41854742.900 9  49937542.191 8
  20699348.549    20699349.507   -20648501.618 9 -17856621.810 8
  21441818.254    21441818.908   -35683083.617 9  32680274.784 8
 88  3 21  4 33 59.0800000  0  4G 6G13G11G 9
  20307100.136    20307102.604    -9517795.086 8  -9138841.785 8
  23469546.668    23469550.802   -41966818.655 9  49850210.452 9
  20692181.310    20692183.365   -20686161.124 8 -17885966.858 8
  21426869.427    21426869.780   -35761638.392 9  32619063.279 9
 88  3 21  4 34 29.0800000  0  4G 6G13G11G 9
  20305541.235    20305542.415    -9525989.979 8  -9145227.424 9
  23448266.326    23448267.465   -42078657.154 8  49763063.616 8
  20685118.196    20685121.604   -20723272.817 8 -17914885.042 8
  21411961.695    21411962.292   -35839977.654 9  32558019.725 8
 88  3 21  4 34 59.0800000  0  4G 6G13G11G 9
  20304066.042    20304068.096    -9533740.126 9  -9151266.505 9
  23427027.404    23427031.889   -42190256.977 8  49676102.750 7
  20678161.377    20678163.858   -20759836.742 8 -17943376.387 9
  21397094.659    21397095.800   -35918099.149 9  32497145.833 9
 88  3 21  4 35 29.0800000  0  4G 6G13G11G 9
  20302677.106    20302678.545    -9541044.033 8  -9156957.855 8
  23405837.982    23405841.786   -42301615.260 9  49589330.102 8
  20671308.272    20671310.757   -20795852.336 8 -17971440.469 7
  21382271.101    21382271.991   -35996000.272 9  32436443.658 9
 88  3 21  4 35 59.0800000  0  4G 6G13G11G 9
  20301371.849    20301373.117    -9547899.686 8  -9162299.936 9
  23384693.525    23384697.500   -42412729.919 9  49502747.297 8
  20664558.882    20664560.691   -20831318.954 9 -17999076.775 8
  21367488.174    21367490.367   -36073678.610 9  32375915.116 9
 88  3 21  4 36 29.0800000  0  4G 6G13G11G 9
  20300153.307    20300155.074    -9554305.376 8  -9167291.380 9
  23363595.609    23363598.066   -42523597.806 8  49416356.778 8
  20657915.085    20657916.153   -20866236.425 8 -18026285.172 8
  21352749.134    21352752.414   -36151130.981 9  32315562.636 9
 88  3 21  4 36 59.0800000  0  4G 6G13G11G 9
  20299018.932    20299020.512    -9560259.474 8  -9171930.946 9
  23342544.683    23342547.896   -42634217.070 9  49330159.979 8
  20651373.541    20651377.006   -20900604.482 8 -18053065.465 8
  21338055.089    21338055.936   -36228355.311 9  32255387.856 9
 88  3 21  4 37 29.0800000  0  4G 6G13G11G 9
  20297972.270    20297974.123    -9565760.482 8  -9176217.463 9
  23321542.823    23321545.882   -42744585.391 9  49244158.732 9
  20644940.739    20644941.252   -20934423.214 9 -18079417.706 8
  21323403.827    21323403.996   -36305349.200 9  32195392.617 9
 88  3 21  4 37 59.0800000  0  4G 6G13G11G 9
  20297012.638    20297014.048    -9570806.721 8  -9180149.597 9
  23300589.183    23300592.138   -42854700.486 9  49158354.792 8
  20638608.556    20638610.261   -20967692.301 8 -18105341.643 8
  21308796.246    21308797.229   -36382109.807 9  32135579.168 8
 88  3 21  4 38 29.0800000  0  4G 6G13G11G 9
  20296139.148    20296141.516    -9575396.416 7  -9183725.994 9
  23279683.503    23279686.909   -42964559.406 9  49072750.487 9
  20632382.164    20632384.388   -21000411.405 8 -18130837.041 8
  21294234.911    21294235.508   -36458634.490 9  32075949.576 9
 88  3 21  4 38 59.0800000  0  4G 6G13G11G 9
  20295353.487    20295355.169    -9579527.844 8  -9186945.292 9
  23258826.553    23258830.363   -43074159.646 9  48987347.744 9
  20626258.549    20626263.008   -21032580.387 8 -18155903.750 8
  21279718.050    21279720.642   -36534920.602 9  32016505.851 8
 88  3 21  4 39 29.0800000  0  4G 6G13G11G 9
  20294653.996    20294656.278    -9583199.591 8  -9189806.404 9
  23238019.546    23238024.082   -43183499.324 9  48902148.035 8
  20620243.307    20620245.209   -21064199.541 8 -18180542.033 8
  21265246.476    21265247.732   -36610965.886 9  31957249.799 9
 88  3 21  4 39 59.0800000  0  4G 6G13G11G 9
  20294042.077    20294045.246    -9586410.027 8  -9192308.056 8
  23217263.468    23217266.709   -43292575.973 9  48817153.269 9
  20614330.287    20614333.684   -21095268.251 7 -18204751.401 8
  21250823.003    21250823.221   -36686767.264 9  31898183.810 9
 88  3 21  4 40 29.0800000  0  4G 6G13G11G 9
  20293519.362    20293522.374    -9589157.499 9  -9194448.948 9
  23196556.937    23196561.644   -43401387.663 9  48732364.975 8
  20608523.316    20608526.144   -21125786.179 8 -18228531.583 9
  21236444.641    21236444.944   -36762322.626 9  31839309.503 8
 88  3 21  4 40 59.0800000  0  4G 6G13G11G 9
  20293086.279    20293087.961    -9591440.271 8  -9196227.727 9
  23175903.227    23175906.408   -43509931.171 9  48647785.657 8
  20602820.347    20602823.128   -21155753.697 8 -18251882.888 9
  21222113.791    21222115.854   -36837629.170 9  31780629.102 9
 88  3 21  4 41 29.0800000  0  4G 6G13G11G 9
  20292739.797    20292742.207    -9593256.804 8  -9197643.216 9
  23155299.704    23155301.850   -43618204.117 9  48563417.159 8
  20597223.646    20597225.423   -21185170.876 8 -18274805.329 9
  21207831.500    21207832.361   -36912683.848 9  31722144.949 9
 88  3 21  4 41 59.0800000  0  4G 6G13G11G 9
  20292484.005    20292484.856    -9594605.781 8  -9198694.381 8
  23134747.722    23134750.999   -43726204.915 9  48479260.716 8
  20591730.032    20591731.923   -21214037.482 7 -18297298.772 8
  21193598.861    21193597.999   -36987484.515 9  31663858.724 8
 88  3 21  4 42 29.0800000  0  4G 6G13G11G 9
  20292316.615    20292318.068    -9595485.712 8  -9199380.046 9
  23114247.460    23114251.775   -43833931.187 9  48395318.193 8
  20586341.859    20586342.595   -21242353.580 9 -18319363.250 7
  21179411.676    21179413.482   -37062029.009 9  31605772.117 9
 88  3 21  4 42 59.0800000  0  4G 6G13G11G 9
  20292238.314    20292240.468    -9595894.897 8  -9199698.895 8
  23093800.483    23093803.960   -43941380.141 9  48311591.761 9
  20581056.951    20581060.492   -21270119.075 8 -18340998.680 7
  21165277.364    21165278.318   -37136313.550 9  31547888.077 8
 88  3 21  4 43 29.0800000  0  4G 6G13G11G 9
  20292250.936    20292252.001    -9595831.984 8  -9199649.882 9
  23073406.865    23073409.062   -44048550.522 9  48228082.401 8
  20575878.747    20575880.577   -21297334.305 9 -18362205.340 8
  21151191.358    21151190.596   -37210336.740 9  31490207.672 9
 88  3 21  4 43 59.0800000  0  4G 6G13G11G 9
  20292353.188    20292353.253    -9595294.926 9  -9199231.396 9
  23053066.749    23053069.819   -44155439.339 9  48144792.431 8
  20570804.403    20570806.186   -21323998.774 8 -18382982.827 8
  21137155.272    21137154.938   -37284094.675 9  31432733.963 8
 88  3 21  4 44 29.0800000  0  4G 6G13G11G 9
  20292545.990    20292546.856    -9594282.855 9  -9198442.777 9
  23032779.820    23032782.252   -44262043.800 9  48061724.066 8
  20565834.591    20565837.677   -21350113.106 9 -18403331.641 8
  21123169.438    21123170.129   -37357585.460 9  31375468.425 9
 88  3 21  4 44 59.0800000  0  4G 6G13G11G 9
  20292826.277    20292831.092    -9592794.041 8  -9197282.675 9
  23012548.314    23012550.692   -44368362.134 9  47978878.629 8
  20560970.735    20560970.737   -21375677.246 8 -18423251.735 9
  21109236.456    21109236.516   -37430805.990 8  31318413.471 8
 88  3 21  4 45 29.0800000  0  4G 6G13G11G 9
  20293203.639    20293205.192    -9590827.028 8  -9195749.939 9
  22992371.798    22992374.134   -44474391.908 9  47896258.063 9
  20556209.608    20556213.928   -21400691.086 8 -18442743.026 7
  21095355.430    21095356.864   -37503754.143 9  31261570.758 9
 88  3 21  4 45 59.0800000  0  4G 6G13G11G 9
  20293667.657    20293671.199    -9588380.409 9  -9193843.497 8
  22972249.632    22972253.882   -44580130.759 9  47813864.186 8
  20551555.250    20551557.098   -21425154.919 8 -18461805.737 8
  21081524.924    21081526.880   -37576426.726 9  31204942.787 9
 88  3 21  4 46 29.0800000  0  4G 6G13G11G 9
  20294226.202    20294227.726    -9585452.711 9  -9191562.187 9
  22952184.166    22952186.299   -44685576.816 8  47731698.448 9
  20547005.907    20547006.545   -21449068.961 8 -18480440.045 8
  21067750.143    21067749.646   -37648821.077 9  31148531.632 8
 88  3 21  4 46 59.0800000  0  4G 6G13G11G 9
  20294875.009    20294876.504    -9582042.718 9  -9188905.065 8
  22932174.035    22932178.456   -44790727.526 9  47649762.864 8
  20542559.017    20542561.115   -21472433.746 8 -18498646.355 7
  21054026.769    21054028.232   -37720935.175 9  31092338.839 9
 88  3 21  4 47 29.0800000  0  4G 6G13G11G 9
  20295615.909    20295617.620    -9578148.942 8  -9185870.965 9
  22912221.454    22912225.407   -44895580.920 9  47568058.944 7
  20538216.384    20538218.681   -21495249.305 8 -18516424.698 8
  21040358.228    21040359.669   -37792765.923 9  31036366.829 8
 88  3 21  4 47 59.0800000  0  4G 6G13G11G 9
  20296449.048    20296450.257    -9573770.071 8  -9182458.869 9
  22892325.957    22892328.761   -45000134.911 9  47486588.342 8
  20533978.749    20533982.196   -21517515.694 8 -18533775.107 8
  21026743.367    21026743.457   -37864310.853 9  30980617.549 9
 88  3 21  4 48 29.0800000  0  4G 6G13G11G 9
  20297375.253    20297377.149    -9568904.554 8  -9178667.572 9
  22872487.835    22872489.196   -45104386.988 9  47405352.973 8
  20529847.104    20529848.130   -21539233.428 8 -18550698.006 8
  21013183.655    21013183.812   -37935566.541 9  30925093.626 8
 88  3 21  4 48 59.0800000  0  4G 6G13G11G 9
  20298394.868    20298394.603    -9563551.168 9  -9174496.110 9
  22852707.273    22852708.840   -45208335.157 9  47324354.420 8
  20525819.088    20525821.422   -21560402.807 8 -18567193.608 8
  20999679.007    20999680.423   -38006531.235 9  30869796.481 9
 88  3 21  4 49 29.0800000  0  4G 6G13G11G 9
  20299505.203    20299505.783    -9557708.715 8  -9169943.544 8
  22832984.927    22832987.081   -45311976.543 9  47243594.938 8
  20521894.527    20521896.143   -21581023.912 7 -18583261.986 8
  20986232.717    20986231.586   -38077201.447 9  30814728.806 9
 88  3 21  4 49 59.0800000  0  4G 6G13G11G 9
  20300709.665    20300713.350    -9551375.595 8  -9165008.658 9
  22813320.670    22813324.140   -45415309.628 9  47163075.687 9
  20518074.029    20518077.755   -21601097.081 7 -18598903.413 8
  20972839.956    20972841.043   -38147575.102 9  30759892.196 9
 88  3 21  4 50 29.0800000  0  4G 6G13G11G 9
  20302008.167    20302010.091    -9544550.741 8  -9159690.601 8
  22793716.418    22793718.478   -45518331.865 9  47082798.644 9
  20514358.911    20514360.828   -21620622.733 8 -18614118.188 8
  20959505.048    20959505.287   -38217649.002 9  30705289.155 9
 88  3 21  4 50 59.0800000  0  4G 6G13G11G 9
  20303401.167    20303403.548    -9537232.951 8  -9153988.442 9
  22774171.156    22774174.317   -45621041.635 9  47002765.073 8
  20510746.934    20510748.983   -21639601.648 8 -18628906.944 8
  20946227.748    20946228.761   -38287420.941 9  30650921.424 9
 88  3 21  4 51 29.0800000  0  4G 6G13G11G 9
  20304888.062    20304891.232    -9529420.845 8  -9147901.092 9
  22754686.500    22754689.376   -45723436.303 9  46922977.043 8
  20507238.446    20507242.583   -21658033.987 8 -18643269.778 9
  20933008.802    20933010.129   -38356887.830 9  30596791.402 9
 88  3 21  4 51 59.0800000  0  4G 6G13G11G 9
  20306467.425    20306470.165    -9521113.054 8  -9141427.502 9
  22735261.850    22735264.368   -45825513.826 9  46843436.148 9
  20503836.634    20503839.298   -21675920.221 7 -18657207.089 8
  20919848.048    20919849.124   -38426046.952 9  30542901.186 9
 88  3 21  4 52 29.0800000  0  4G 6G13G11G 9
  20308143.918    20308146.228    -9512308.535 8  -9134566.854 9
  22715897.421    22715901.005   -45927272.489 9  46764143.685 8
  20500535.578    20500539.745   -21693260.817 8 -18670719.235 8
  20906747.399    20906748.257   -38494895.862 9  30489252.697 8
 88  3 21  4 52 59.0800000  0  4G 6G13G11G 9
  20309915.653    20309917.406    -9503006.076 8  -9127318.191 9
  22696593.783    22696597.067   -46028709.932 8  46685101.582 8
  20497340.472    20497342.313   -21710056.065 8 -18683806.428 8
  20893705.429    20893705.903   -38563431.644 9  30435848.205 9
 88  3 21  4 53 29.0800000  0  4G 6G13G11G 9
  20311779.511    20311781.564    -9493204.335 8  -9119680.488 9
  22677352.226    22677355.789   -46129823.806 9  46606311.576 9
  20494247.955    20494250.396   -21726306.550 9 -18696469.126 8
  20880723.314    20880723.992   -38631651.334 9  30382690.014 9
 88  3 21  4 53 59.0800000  0  4G 6G13G11G 9
  20313741.071    20313742.052    -9482902.251 8  -9111652.906 9
  22658173.865    22658175.318   -46230612.234 9  46527775.170 8
  20491259.196    20491262.145   -21742013.031 8 -18708707.933 8
  20867802.094    20867802.599   -38699552.705 9  30329779.857 8
 88  3 21  4 54 29.0800000  0  4G 6G13G11G 9
  20315796.186    20315798.597    -9472098.612 9  -9103234.506 9
  22639056.292    22639059.625   -46331072.904 9  46449494.141 9
  20488373.555    20488377.158   -21757175.864 8 -18720523.115 8
  20854942.023    20854942.319   -38767132.627 9  30277120.178 9
 88  3 21  4 54 59.0800000  0  4G 6G13G11G 9
  20317948.030    20317950.198    -9460792.457 9  -9094424.532 9
  22620003.530    22620004.003   -46431203.552 8  46371470.289 7
  20485590.240    20485594.479   -21771795.523 8 -18731915.043 8
  20842143.269    20842144.414   -38834388.732 9  30224712.836 9
 88  3 21  4 55 29.0800000  0  4G 6G13G11G 9
  20320195.832    20320196.784    -9448982.535 9  -9085222.004 9
  22601010.624    22601013.815   -46531002.857 9  46293704.598 8
  20482912.690    20482914.641   -21785872.398 9 -18742884.021 8
  20829407.408    20829408.993   -38901318.071 9  30172560.113 9
 88  3 21  4 55 59.0800000  0  4G 6G13G11G 9
  20322539.276    20322540.872    -9436667.675 8  -9075626.025 9
  22582083.584    22582085.072   -46630468.244 8  46216199.130 8
  20480336.923    20480338.965   -21799407.578 7 -18753430.907 8
  20816734.390    20816734.446   -38967917.840 9  30120664.198 8
 88  3 21  4 56 29.0800000  0  4G 6G13G11G 9
  20324978.307    20324980.789    -9423846.732 8  -9065635.685 9
  22563220.562    22563222.573   -46729597.362 9  46138955.678 9
  20477865.093    20477867.358   -21812401.828 8 -18763556.283 8
  20804123.090    20804123.362   -39034185.363 9  30069027.178 8
 88  3 21  4 56 59.0800000  0  4G 6G13G11G 9
  20327513.723    20327516.993    -9410518.862 8  -9055250.343 9
  22544421.317    22544423.399   -46828389.003 9  46061975.226 9
  20475494.034    20475497.238   -21824855.374 8 -18773260.348 8
  20791578.231    20791578.363   -39100117.941 9  30017651.140 8
 88  3 21  4 57 29.0800000  0  4G 6G13G11G 9
  20330148.360    20330148.267    -9396682.963 8  -9044469.147 9
  22525685.747    22525688.316   -46926840.808 9  45985259.556 8
  20473227.700    20473229.527   -21836769.170 7 -18782543.807 9
  20779095.196    20779094.899   -39165712.985 9  29966538.136 8
 88  3 21  4 57 59.0800000  0  4G 6G13G11G 9
  20332877.151    20332878.647    -9382338.020 8  -9033291.288 9
  22507015.621    22507018.561   -47024950.769 9  45908810.247 8
  20471062.518    20471065.440   -21848143.549 7 -18791406.946 8
  20766676.838    20766678.519   -39230967.446 9  29915690.496 9
 88  3 21  4 58 29.0800000  0  4G 6G13G11G 9
  20335703.817    20335705.484    -9367482.857 8  -9021715.856 9
  22488411.703    22488414.408   -47122716.585 9  45832629.113 8
  20468999.974    20469002.640   -21858979.472 8 -18799850.514 8
  20754325.654    20754325.561   -39295878.811 9  29865110.238 8
 88  3 21  4 58 59.0800000  0  4G 6G13G11G 9
  20338627.843    20338630.038    -9352116.770 8  -9009742.291 8
  22469873.680    22469876.691   -47220136.324 9  45756717.663 9
  20467040.898    20467043.865   -21869277.964 9 -18807875.291 8
  20742038.204    20742039.549   -39360444.412 9  29814799.369 9
 88  3 21  4 59 29.0800000  0  4G 6G13G11G 9
  20341650.888    20341652.369    -9336238.540 8  -8997369.661 9
  22451400.241    22451404.533   -47317208.297 9  45681077.191 9
  20465182.341    20465186.073   -21879039.594 7 -18815481.733 8
  20729818.107    20729818.535   -39424661.320 9  29764760.221 9
 88  3 21  4 59 59.0800000  0  4G 6G13G11G 9
  20344768.975    20344770.370    -9319847.491 8  -8984597.419 9
  22432994.984    22432997.839   -47413931.030 9  45605708.839 9
  20463427.500    20463430.674   -21888265.034 7 -18822670.389 8
  20717665.010    20717665.967   -39488526.850 9  29714994.888 8
 88  3 21  5  0 29.0800000  0  4G 6G13G11G 9
  20347986.168    20347988.135    -9302942.347 9  -8971424.593 9
  22414656.116    22414659.486   -47510301.959 9  45530614.641 8
  20461774.390    20461776.257   -21896954.992 7 -18829441.772 8
  20705579.716    20705580.942   -39552038.300 9  29665505.443 9
 88  3 21  5  0 59.0800000  0  4G 6G13G11G 9
  20351300.777    20351303.073    -9285522.418 8  -8957850.639 9
  22396385.859    22396387.735   -47606318.761 9  45455796.385 8
  20460221.633    20460223.731   -21905110.550 7 -18835796.742 8
  20693560.466    20693562.433   -39615192.881 9  29616294.087 8
 88  3 21  5  1 29.0800000  0  4G 6G13G11G 9
  20354713.146    20354715.057    -9267586.797 8  -8943874.842 9
  22378181.476    22378184.231   -47701979.887 9  45381255.274 8
  20458771.481    20458774.896   -21912732.498 7 -18841735.906 8
  20681612.952    20681613.585   -39677987.994 9  29567362.831 9
 88  3 21  5  1 59.0800000  0  4G 6G13G11G 9
  20358225.624    20358226.675    -9249134.733 8  -8929496.628 9
  22360046.556    22360046.893   -47797283.710 9  45306992.574 8
  20457423.194    20457426.744   -21919821.472 7 -18847259.786 9
  20669731.786    20669733.117   -39740420.980 9  29518713.762 8
 88  3 21  5  2 29.0800000  0  4G 6G13G11G 9
  20361834.802    20361837.299    -9230165.351 9  -8914715.318 9
  22341978.282    22341981.479   -47892228.214 8  45233009.869 8
  20456175.847    20456177.358   -21926378.941 8 -18852369.479 8
  20657920.352    20657921.128   -39802489.013 9  29470349.066 9
 88  3 21  5  2 59.0800000  0  4G 6G13G11G 9
  20365543.972    20365545.068    -9210677.773 8  -8899530.206 9
  22323980.473    22323982.255   -47986810.859 9  45159309.112 8
  20455027.258    20455029.767   -21932405.625 7 -18857065.595 8
  20646178.079    20646178.916   -39864189.291 9  29422270.933 8
 88  3 21  5  3 29.0800000  0  4G 6G13G11G 9
  20369351.076    20369351.899    -9190670.934 9  -8883940.462 9
  22306050.475    22306053.444   -48081030.487 9  45085891.235 9
  20453981.824    20453984.308   -21937901.998 8 -18861348.469 9
  20634508.339    20634509.790   -39925518.994 9  29374481.553 9
 88  3 21  5  3 59.0800000  0  4G 6G13G11G 9
  20373256.712    20373257.936    -9170144.340 8  -8867945.731 9
  22288189.820    22288193.004   -48174885.375 9  45012757.568 9
  20453038.450    20453038.502   -21942869.516 8 -18865219.248 8
  20622908.527    20622909.539   -39986475.598 9  29326982.916 8
 88  3 21  5  4 29.0800000  0  4G 6G13G11G 9
  20377261.597    20377263.221    -9149097.278 8  -8851545.447 9
  22270400.531    22270402.721   -48268373.418 8  44939909.754 8
  20452192.024    20452194.367   -21947309.360 8 -18868678.858 8
  20611379.174    20611381.339   -40047056.304 9  29279777.187 8
 88  3 21  5  4 59.0800000  0  4G 6G13G11G 9
  20381365.416    20381367.026    -9127528.907 8  -8834738.950 9
  22252680.085    22252682.539   -48361492.760 9  44867349.257 9
  20451447.145    20451450.826   -21951222.335 8 -18871727.928 9
  20599924.586    20599923.656   -40107258.519 9  29232866.360 8
 88  3 21  5  5 29.0800000  0  4G 6G13G11G 9
  20385569.570    20385571.338    -9105438.369 9  -8817525.548 9
  22235031.106    22235033.166   -48454241.763 8  44795077.325 7
  20450802.545    20450805.209   -21954609.205 8 -18874367.037 7
  20588538.762    20588541.349   -40167079.339 9  29186252.741 8
 88  3 21  5  5 59.0800000  0  4G 6G13G11G 9
  20389872.888    20389875.528    -9082825.078 9  -8799904.825 8
  22217452.341    22217455.825   -48546618.437 9  44723095.507 8
  20450258.484    20450260.657   -21957470.774 8 -18876596.818 9
  20577229.857    20577230.844   -40226515.979 9  29139938.496 8
 88  3 21  5  6 29.0800000  0  4G 6G13G11G 9
  20394276.313    20394276.520    -9059688.215 9  -8781876.128 8
  22199943.899    22199946.933   -48638621.235 9  44651405.036 8
  20449814.236    20449815.966   -21959808.348 7 -18878418.286 8
  20565993.942    20565994.614   -40285565.770 9  29093925.669 8
 88  3 21  5  6 59.0800000  0  4G 6G13G11G 9
  20398778.957    20398779.837    -9036027.268 8  -8763439.038 9
  22182508.613    22182509.952   -48730247.831 9  44580007.715 9
  20449469.098    20449470.882   -21961623.222 8 -18879832.466 9
  20554830.089    20554831.566   -40344226.133 8  29048216.309 8
 88  3 21  5  7 29.0800000  0  4G 6G13G11G 9
  20403381.136    20403382.560    -9011841.684 9  -8744593.147 9
  22165145.182    22165147.056   -48821497.425 9  44508904.150 8
  20449222.131    20449224.159   -21962916.699 8 -18880840.367 9
  20543743.395    20543743.727   -40402494.445 9  29002812.453 8
 88  3 21  5  7 59.0800000  0  4G 6G13G11G 9
  20408083.795    20408084.045    -8987130.551 9  -8725337.733 9
  22147852.422    22147854.905   -48912367.719 9  44438096.139 9
  20449075.105    20449077.911   -21963689.672 7 -18881442.671 8
  20532730.307    20532730.049   -40460367.714 9  28957716.398 8
 88  3 21  5  8 29.0800000  0  4G 6G13G11G 9
  20412886.674    20412887.153    -8961893.328 9  -8705672.388 9
  22130632.211    22130636.345   -49002856.823 9  44367585.171 9
  20449025.924    20449029.145   -21963942.820 8 -18881639.924 8
  20521792.485    20521792.664   -40517843.240 9  28912930.286 9
 88  3 21  5  8 59.0800000  0  4G 6G13G11G 9
  20417787.944    20417789.654    -8936129.524 9  -8685596.705 9
  22113486.120    22113488.746   -49092963.325 9  44297372.354 8
  20449077.922    20449078.797   -21963677.534 8 -18881433.206 9
  20510932.108    20510933.460   -40574918.397 9  28868456.140 7
 88  3 21  5  9 29.0800000  0  4G 6G13G11G 9
  20422791.811    20422793.019    -8909838.678 9  -8665110.347 9
  22096411.762    22096414.103   -49182685.536 8  44227458.957 8
  20449226.859    20449228.300   -21962895.455 8 -18880823.784 9
  20500146.461    20500147.570   -40631590.651 9  28824295.929 9
 88  3 21  5  9 59.0800000  0  4G 6G13G11G 9
  20427894.897    20427896.908    -8883020.204 9  -8644212.849 8
  22079412.577    22079414.287   -49272021.208 8  44157846.765 9
  20449473.331    20449475.350   -21961597.210 8 -18879812.135 8
  20489439.440    20489440.956   -40687857.095 9  28780451.938 8
 88  3 21  5 10 29.0800000  0  4G 6G13G11G 9
  20433099.007    20433101.476    -8855673.323 8  -8622903.606 8
  22062486.555    22062488.624   -49360969.015 9  44088536.815 8
  20449816.661    20449820.409   -21959783.880 9 -18878399.161 8
  20478810.586    20478811.140   -40743715.244 9  28736926.117 8
 88  3 21  5 10 59.0800000  0  4G 6G13G11G 9
  20438403.654    20438405.721    -8827797.749 8  -8601182.387 9
  22045633.582    22045636.365   -49449527.095 9  44019530.550 9
  20450261.912    20450262.405   -21957457.344 7 -18876586.259 8
  20468259.170    20468260.882   -40799162.277 8  28693720.631 9
 88  3 21  5 11 29.0800000  0  4G 6G13G11G 9
  20443808.549    20443810.331    -8799393.213 9  -8579048.995 9
  22028856.383    22028859.460   -49537694.322 9  43950828.848 8
  20450800.933    20450803.718   -21954618.747 7 -18874374.357 9
  20457786.678    20457786.847   -40854195.750 8  28650837.409 8
 88  3 21  5 11 59.0800000  0  4G 6G13G11G 9
  20449315.241    20449316.164    -8770458.869 9  -8556502.773 8
  22012153.313    22012156.117   -49625468.920 9  43882433.063 8
  20451439.007    20451441.679   -21951269.084 7 -18871764.221 9
  20447393.519    20447393.690   -40908812.657 8  28608278.791 8
 88  3 21  5 12 29.0800000  0  4G 6G13G11G 9
  20454919.807    20454924.408    -8740994.448 9  -8533543.502 9
  21995525.186    21995526.496   -49712849.320 9  43814344.478 8
  20452173.530    20452174.649   -21947409.626 8 -18868756.841 8
  20437078.941    20437081.691   -40963010.296 9  28566046.862 8
 88  3 21  5 12 59.0800000  0  4G 6G13G11G 9
  20460630.377    20460630.828    -8710999.618 9  -8510170.905 9
  21978973.809    21978976.834   -49799833.235 9  43746564.811 8
  20453004.679    20453007.300   -21943041.849 8 -18865353.364 9
  20426846.477    20426847.013   -41016786.318 8  28524143.457 8
 88  3 21  5 13 29.0800000  0  4G 6G13G11G 9
  20466438.563    20466439.315    -8680473.907 9  -8486384.654 9
  21962496.644    21962498.511   -49886420.104 8  43679094.553 8
  20453931.538    20453934.552   -21938167.035 8 -18861554.816 9
  20416694.101    20416695.424   -41070137.734 9  28482570.931 7
 88  3 21  5 13 59.0800000  0  4G 6G13G11G 9
  20472347.887    20472349.511    -8649416.880 8  -8462184.393 9
  21946094.567    21946097.916   -49972607.817 9  43611935.332 9
  20454955.522    20454957.427   -21932786.693 8 -18857362.333 9
  20406623.756    20406623.956   -41123062.049 9  28441331.206 9
 88  3 21  5 14 29.0800000  0  4G 6G13G11G 9
  20478358.949    20478360.974    -8617828.199 9  -8437569.852 9
  21929770.012    21929772.851   -50058394.292 9  43545088.748 8
  20456074.529    20456078.327   -21926901.760 8 -18852776.654 9
  20396634.430    20396634.057   -41175556.701 8  28400426.285 8
 88  3 21  5 14 59.0800000  0  4G 6G13G11G 9
  20484471.349    20484473.346    -8585707.602 8  -8412540.831 9
  21913522.166    21913524.685   -50143778.530 9  43478555.598 8
  20457291.696    20457292.983   -21920513.928 9 -18847799.132 8
  20386726.484    20386728.501   -41227618.896 9  28359858.354 8
 88  3 21  5 15 29.0800000  0  4G 6G13G11G 9
  20490685.688    20490686.710    -8553054.740 8  -8387097.050 9
  21897350.182    21897353.194   -50228759.180 9  43412336.916 9
  20458602.376    20458604.488   -21913624.447 8 -18842430.690 9
  20376903.673    20376903.255   -41279246.065 9  28319629.387 9
 88  3 21  5 15 59.0800000  0  4G 6G13G11G 9
  20497000.563    20497002.116    -8519869.532 9  -8361238.489 8
  21881256.204    21881258.228   -50313335.016 9  43346433.687 8
  20460007.596    20460011.164   -21906234.860 8 -18836672.566 8
  20367160.201    20367161.932   -41330435.521 9  28279741.506 8
 88  3 21  5 16 29.0800000  0  4G 6G13G11G 9
  20503415.830    20503418.772    -8486151.531 9  -8334964.738 8
  21865239.066    21865241.427   -50397503.761 9  43280847.672 8
  20461509.262    20461511.586   -21898346.358 8 -18830525.665 8
  20357504.379    20357504.525   -41381184.891 8  28240196.556 8
 88  3 21  5 16 59.0800000  0  4G 6G13G11G 9
  20509933.524    20509936.164    -8451900.577 9  -8308275.703 9
  21849300.793    21849303.254   -50481264.307 9  43215579.729 7
  20463104.565    20463107.132   -21889960.829 7 -18823991.489 9
  20347932.226    20347931.972   -41431491.344 9  28200996.708 9
 88  3 21  5 17 29.0800000  0  4G 6G13G11G 9
  20516554.072    20516554.981    -8417116.222 9  -8281171.029 9
  21833439.218    21833441.851   -50564615.134 9  43150631.054 8
  20464794.805    20464797.734   -21881079.320 8 -18817070.822 8
  20338441.705    20338444.223   -41481352.141 9  28162144.142 9
 88  3 21  5 17 59.0800000  0  4G 6G13G11G 9
  20523274.842    20523275.565    -8381798.676 9  -8253650.885 9
  21817656.808    21817659.155   -50647554.828 9  43086002.736 8
  20466578.539    20466581.753   -21871703.657 7 -18809765.120 9
  20329040.711    20329040.547   -41530765.022 9  28123640.628 9
 88  3 21  5 18 29.0800000  0  4G 6G13G11G 9
  20530096.062    20530098.473    -8345947.719 9  -8225715.109 9
  21801951.432    21801955.424   -50730082.037 9  43021695.833 9
  20468456.645    20468460.439   -21861835.474 8 -18802075.615 8
  20319723.209    20319723.026   -41579727.409 9  28085488.105 8
 88  3 21  5 18 59.0800000  0  4G 6G13G11G 9
  20537018.763    20537022.676    -8309562.998 9  -8197363.393 9
  21786327.232    21786329.192   -50812195.444 9  42957711.383 8
  20470428.394    20470430.882   -21851475.832 8 -18794003.168 8
  20310491.004    20310493.643   -41628236.465 8  28047688.838 8
 88  3 21  5 19 29.0800000  0  4G 6G13G11G 9
  20544045.577    20544048.060    -8272644.278 9  -8168595.579 9
  21770778.856    21770783.013   -50893893.414 9  42894050.640 8
  20472493.236    20472496.782   -21840626.511 8 -18785549.136 9
  20301346.997    20301348.280   -41676289.623 9  28010244.830 8
 88  3 21  5 19 59.0800000  0  4G 6G13G11G 9
  20551171.612    20551174.709    -8235191.781 9  -8139411.848 8
  21755312.307    21755314.669   -50975174.800 9  42830714.534 8
  20474651.061    20474652.712   -21829288.825 8 -18776714.566 9
  20292291.534    20292291.702   -41723884.529 9  27973157.889 8
 88  3 21  5 20 29.0800000  0  4G 6G13G11G 9
  20558400.987    20558402.240    -8197205.333 8  -8109812.016 9
  21739925.425    21739927.321   -51056038.300 9  42767704.036 8
  20476899.578    20476903.125   -21817464.439 8 -18767500.756 8
  20283320.629    20283321.820   -41771018.599 9  27936430.037 8
 88  3 21  5 20 59.0800000  0  4G 6G13G11G 9
  20565731.156    20565733.139    -8158684.771 9  -8079796.011 9
  21724617.415    21724619.732   -51136482.472 9  42705020.294 8
  20479242.299    20479244.846   -21805155.120 8 -18757909.069 9
  20274439.875    20274441.979   -41817689.174 9  27900063.364 9
 88  3 21  5 21 29.0800000  0  4G 6G13G11G 9
  20573164.267    20573165.347    -8119630.200 9  -8049363.905 8
  21709389.743    21709391.697   -51216506.020 9  42642664.296 8
  20481677.827    20481678.899   -21792362.516 7 -18747940.810 8
  20265649.320    20265649.423   -41863893.701 9  27864059.845 8
 88  3 21  5 21 59.0800000  0  4G 6G13G11G 9
  20580696.310    20580699.207    -8080041.589 9  -8018515.653 8
  21694241.446    21694242.548   -51296107.153 9  42580637.460 8
  20484204.526    20484205.903   -21779087.915 8 -18737596.949 8
  20256943.500    20256945.445   -41909629.669 9  27828421.431 8
 88  3 21  5 22 29.0800000  0  4G 6G13G11G 9
  20588331.695    20588333.104    -8039918.877 9  -7987251.225 8
  21679174.532    21679176.821   -51375285.142 9  42518940.352 8
  20486820.637    20486823.389   -21765332.944 8 -18726878.790 8
  20248330.732    20248331.475   -41954894.458 8  27793150.151 9
 88  3 21  5 22 59.0800000  0  4G 6G13G11G 9
  20596069.017    20596070.971    -7999262.096 9  -7955570.628 9
  21664188.164    21664190.060   -51454038.544 9  42457574.081 8
  20489529.173    20489532.291   -21751099.278 8 -18715787.604 8
  20239808.656    20239808.674   -41999685.870 8  27758247.777 8
 88  3 21  5 23 29.0800000  0  4G 6G13G11G 9
  20603907.135    20603909.531    -7958071.389 9  -7923473.997 9
  21649283.029    21649285.097   -51532366.073 8  42396539.656 8
  20492328.733    20492330.825   -21736388.598 8 -18704324.735 8
  20231375.343    20231374.735   -42044000.995 8  27723716.506 9
 88  3 21  5 23 59.0800000  0  4G 6G13G11G 9
  20611848.106    20611848.757    -7916346.787 9  -7890961.331 9
  21634459.750    21634461.124   -51610266.564 9  42335838.000 9
  20495219.322    20495220.820   -21721202.639 8 -18692491.514 9
  20223032.880    20223033.001   -42087837.661 8  27689558.068 8
 88  3 21  5 24 29.0800000  0  4G 6G13G11G 9
  20619889.127    20619890.022    -7874087.995 8  -7858032.421 9
  21619716.281    21619718.070   -51687739.081 9  42275469.843 9
  20498198.348    20498199.421   -21705543.340 8 -18680289.465 8
  20214782.822    20214783.429   -42131193.481 8  27655774.302 8
 88  3 21  5 24 59.0800000  0  4G 6G13G11G 9
  20628031.945    20628033.211    -7831295.732 9  -7824687.811 8
  21605055.347    21605057.730   -51764782.110 9  42215436.322 8
  20501266.930    20501268.928   -21689412.148 8 -18667719.688 9
  20206624.890    20206624.257   -42174065.847 8  27622367.273 9
 88  3 21  5 25 29.0800000  0  4G 6G13G11G 9
  20636276.128    20636278.396    -7787970.153 9  -7790927.643 9
  21590476.984    21590478.443   -51841394.207 9  42155738.589 9
  20504426.588    20504429.199   -21672810.481 8 -18654783.316 9
  20198558.155    20198559.534   -42216452.135 9  27589338.994 8
 88  3 21  5 25 59.0800000  0  4G 6G13G11G 9
  20644622.364    20644623.931    -7744111.206 9  -7756751.864 8
  21575979.668    21575982.295   -51917574.498 9  42096377.353 9
  20507673.673    20507677.568   -21655740.332 8 -18641481.896 8
  20190584.865    20190586.187   -42258350.053 8  27556691.283 8
 88  3 21  5 26 29.0800000  0  4G 6G13G11G 9
  20653069.766    20653071.935    -7699719.036 9  -7722160.575 8
  21561565.725    21561568.844   -51993321.953 9  42037353.383 8
  20511013.970    20511014.638   -21638203.595 8 -18627816.906 8
  20182705.864    20182705.486   -42299757.219 8  27524425.945 8
 88  3 21  5 26 59.0800000  0  4G 6G13G11G 9
  20661618.793    20661620.690    -7654793.846 9  -7687153.946 9
  21547233.609    21547236.428   -52068635.143 9  41978667.795 9
  20514436.730    20514441.557   -21620201.754 8 -18613789.496 9
  20174919.503    20174920.919   -42340671.030 8  27492545.058 8
 88  3 21  5 27 29.0800000  0  4G 6G13G11G 9
  20670270.159    20670271.039    -7609335.804 9  -7651732.120 9
  21532984.401    21532986.196   -52143512.639 9  41920321.727 8
  20517952.459    20517954.135   -21601736.717 8 -18599401.153 8
  20167228.248    20167229.241   -42381088.983 8  27461050.554 8
 88  3 21  5 27 59.0800000  0  4G 6G13G11G 9
  20679021.374    20679022.612    -7563345.353 9  -7615895.416 8
  21518819.116    21518820.633   -52217953.672 9  41862315.751 8
  20521554.492    20521555.682   -21582810.251 8 -18584653.241 8
  20159632.009    20159633.460   -42421008.993 8  27429944.065 8
 88  3 21  5 28 29.0800000  0  4G 6G13G11G 9
  20687874.385    20687875.737    -7516822.590 9  -7579643.937 8
  21504737.997    21504738.434   -52291956.930 8  41804650.881 7
  20525242.822    20525245.139   -21563424.195 8 -18569547.223 7
  20152130.643    20152132.742   -42460428.460 8  27399227.580 8
 88  3 21  5 28 59.0800000  0  4G 6G13G11G 9
  20696829.507    20696829.300    -7469767.937 9  -7542978.008 9
  21490738.069    21490740.738   -52365521.817 9  41747327.609 9
  20529019.247    20529021.245   -21543580.117 8 -18554084.299 8
  20144725.299    20144727.227   -42499345.003 7  27368903.012 7
 88  3 21  5 29 29.0800000  0  4G 6G13G11G 9
  20705883.704    20705885.314    -7422181.770 9  -7505897.880 9
  21476821.993    21476825.298   -52438647.587 9  41690346.512 8
  20532880.875    20532884.998   -21523280.115 8 -18538266.109 7
  20137415.867    20137416.624   -42537756.435 8  27338972.029 8
 88  3 21  5 29 59.0800000  0  4G 6G13G11G 9
  20715040.929    20715043.025    -7374064.419 9  -7468403.873 9
  21462991.172    21462992.674   -52511332.384 9  41633709.028 8
  20536831.818    20536834.177   -21502525.909 7 -18522093.984 8
  20130203.439    20130203.632   -42575660.322 8  27309436.534 8
 88  3 21  5 30 29.0800000  0  4G 6G13G11G 9
  20724298.289    20724298.810    -7325416.131 9  -7430496.144 8
  21449242.735    21449245.854   -52583575.558 8  41577415.659 8
  20540867.615    20540868.923   -21481319.162 7 -18505569.248 8
  20123086.269    20123088.458   -42613054.291 8  27280298.372 8
 88  3 21  5 30 59.0800000  0  4G 6G13G11G 9
  20733656.186    20733658.453    -7276237.412 9  -7392175.077 8
  21435580.975    21435582.564   -52655375.879 8  41521467.379 8
  20544988.267    20544989.547   -21459661.781 8 -18488693.361 8
  20116068.857    20116070.080   -42649935.983 8  27251559.392 8
 88  3 21  5 31 29.0800000  0  4G 6G13G11G 9
  20743115.505    20743117.029    -7226528.746 9  -7353441.077 9
  21422001.903    21422003.592   -52726732.701 9  41465864.663 7
  20549192.830    20549197.408   -21437555.975 7 -18471468.053 9
  20109147.851    20109149.775   -42686303.287 8  27223221.240 8
 88  3 21  5 31 59.0800000  0  4G 6G13G11G 9
  20752675.934    20752677.129    -7176290.411 9  -7314294.342 9
  21408507.410    21408509.943   -52797644.698 9  41410608.572 8
  20553485.756    20553488.731   -21415003.498 8 -18453894.694 8
  20102326.401    20102325.360   -42722153.760 9  27195285.808 9
 88  3 21  5 32 29.0800000  0  4G 6G13G11G 9
  20762335.811    20762337.207    -7125523.050 9  -7274735.379 9
  21395097.400    21395100.927   -52868111.165 9  41355699.651 8
  20557863.172    20557864.320   -21392006.096 8 -18435974.623 9
  20095602.350    20095604.302   -42757485.033 8  27167754.942 8
 88  3 21  5 32 59.0800000  0  4G 6G13G11G 9
  20772098.085    20772098.680    -7074227.010 9  -7234764.450 9
  21381773.818    21381776.215   -52938130.797 9  41301138.913 8
  20562323.051    20562325.582   -21368565.447 7 -18417709.187 8
  20088979.694    20088978.582   -42792295.027 9  27140630.274 7
 88  3 21  5 33 29.0800000  0  4G 6G13G11G 9
  20781958.349    20781962.191    -7022402.867 9  -7194382.035 9
  21368534.795    21368536.720   -53007703.547 9  41246926.393 9
  20566866.409    20566869.237   -21344683.991 9 -18399100.249 8
  20082455.097    20082455.628   -42826581.714 8  27113913.372 8
 88  3 21  5 33 59.0800000  0  4G 6G13G11G 9
  20791922.440    20791924.322    -6970051.154 9  -7153588.508 9
  21355380.999    21355383.911   -53076827.919 9  41193063.250 8
  20571494.377    20571497.412   -21320363.708 8 -18380149.371 8
  20076029.871    20076030.815   -42860342.527 7  27087606.258 8
 88  3 21  5 34 29.0800000  0  4G 6G13G11G 9
  20801984.607    20801985.271    -6917172.418 9  -7112384.317 8
  21342312.477    21342313.973   -53145502.973 9  41139550.255 8
  20576206.544    20576209.086   -21295606.207 8 -18360857.805 8
  20069705.065    20069706.337   -42893575.188 8  27061710.669 8
 88  3 21  5 34 59.0800000  0  4G 6G13G11G 9
  20812146.165    20812149.262    -6863767.218 9  -7070769.902 8
  21329329.948    21329332.050   -53213728.512 9  41086387.499 9
  20580999.919    20581003.209   -21270413.635 9 -18341227.227 8
  20063480.859    20063482.415   -42926277.684 8  27036228.205 7
 88  3 21  5 35 29.0800000  0  4G 6G13G11G 9
  20822409.489    20822411.471    -6809836.240 9  -7028745.783 8
  21316432.686    21316435.254   -53281502.888 9  41033576.312 9
  20585877.185    20585880.038   -21244787.642 8 -18321258.926 9
  20057360.270    20057362.527   -42958447.804 8  27011160.571 8
 88  3 21  5 35 59.0800000  0  4G 6G13G11G 9
  20832772.806    20832773.014    -6755379.958 9  -6986312.347 9
  21303620.563    21303624.555   -53348825.339 8  40981117.275 8
  20590835.803    20590837.572   -21218730.420 7 -18300954.603 8
  20051340.177    20051341.372   -42990083.329 8  26986509.524 8
 88  3 21  5 36 29.0800000  0  4G 6G13G11G 9
  20843235.058    20843236.038    -6700399.102 9  -6943470.148 8
  21290895.641    21290898.482   -53415695.665 9  40929010.565 8
  20595875.951    20595877.219   -21192243.518 8 -18280315.441 9
  20045422.639    20045423.758   -43021182.028 8  26962276.766 8
 88  3 21  5 36 59.0800000  0  4G 6G13G11G 9
  20853797.302    20853799.183    -6644894.345 9  -6900219.732 9
  21278257.470    21278260.109   -53482112.935 8  40877256.852 8
  20600997.303    20600998.829   -21165329.509 9 -18259343.485 8
  20039607.934    20039607.926   -43051741.907 8  26938463.878 8
 88  3 21  5 37 29.0800000  0  4G 6G13G11G 9
  20864458.165    20864461.119    -6588866.316 9  -6856561.547 9
  21265705.996    21265707.549   -53548076.302 9  40825856.842 8
  20606199.262    20606202.324   -21137990.224 8 -18238040.132 9
  20033891.976    20033895.475   -43081760.950 7  26915072.413 7
 88  3 21  5 37 59.0800000  0  4G 6G13G11G 9
  20875220.250    20875221.059    -6532315.768 9  -6812496.214 9
  21253238.075    21253241.180   -53613585.233 9  40774810.933 9
  20611481.765    20611485.209   -21110227.693 9 -18216407.010 8
  20028285.906    20028285.684   -43111236.883 8  26892104.145 8
 88  3 21  5 38 29.0800000  0  4G 6G13G11G 9
  20886081.270    20886082.250    -6475243.521 9  -6768024.349 9
  21240859.164    21240862.304   -53678638.764 9  40724119.900 8
  20616846.639    20616848.000   -21082043.993 7 -18194445.687 9
  20022780.987    20022781.520   -43140167.701 8  26869560.641 8
 88  3 21  5 38 59.0800000  0  4G 6G13G11G 9
  20897039.364    20897042.047    -6417650.229 9  -6723146.487 9
  21228567.360    21228570.729   -53743235.793 9  40673784.569 8
  20622289.422    20622291.367   -21053440.979 8 -18172157.607 8
  20017380.268    20017380.909   -43168551.251 8  26847443.575 8
 88  3 21  5 39 29.0800000  0  4G 6G13G11G 9
  20908098.337    20908101.006    -6359536.734 9  -6677863.272 9
  21216361.919    21216363.586   -53807375.665 9  40623805.456 9
  20627811.214    20627813.885   -21024420.613 8 -18149544.330 9
  20012082.124    20012084.153   -43196385.615 7  26825754.461 9
 88  3 21  5 39 59.0800000  0  4G 6G13G11G 9
  20919256.644    20919257.768    -6300903.791 9  -6632175.297 9
  21204243.106    21204246.547   -53871058.327 8  40574182.627 9
  20633412.154    20633414.842   -20994985.009 8 -18126607.502 8
  20006891.060    20006891.708   -43223668.545 7  26804495.035 9
 88  3 21  5 40 29.0800000  0  4G 6G13G11G 9
  20930513.228    20930514.222    -6241752.245 9  -6586083.200 9
  21192212.746    21192214.577   -53934282.856 9  40524916.780 9
  20639091.980    20639094.553   -20965136.432 7 -18103348.870 9
  20001803.530    20001804.571   -43250398.297 8  26783666.657 8
 88  3 21  5 40 59.0800000  0  4G 6G13G11G 9
  20941867.313    20941869.295    -6182082.783 9  -6539587.539 8
  21180268.504    21180270.357   -53997048.740 9  40476008.319 8
  20644849.630    20644852.529   -20934876.642 8 -18079769.808 8
  19996823.409    19996823.834   -43276572.508 8  26763271.173 8
 88  3 21  5 41 29.0800000  0  4G 6G13G11G 9
  20953320.820    20953321.600    -6121896.411 9  -6492689.089 9
  21168411.685    21168413.982   -54059355.040 9  40427457.982 9
  20650685.573    20650689.939   -20904207.849 9 -18055872.044 9
  19991948.753    19991950.798   -43302189.224 7  26743310.084 7
 88  3 21  5 41 59.0800000  0  4G 6G13G11G 9
  20964871.428    20964873.095    -6061194.089 9  -6445388.624 9
  21156642.453    21156645.551   -54121201.288 9  40379266.114 8
  20656600.430    20656602.844   -20873132.283 8 -18031657.311 9
  19987180.447    19987179.903   -43327246.869 8  26723784.639 8
 88  3 21  5 42 29.0800000  0  4G 6G13G11G 9
  20976521.113    20976522.680    -5999976.657 9  -6397686.754 9
  21144962.760    21144964.585   -54182586.760 8  40331433.297 8
  20662589.871    20662592.807   -20841651.599 9 -18007126.911 8
  19982518.408    19982520.511   -43351743.333 8  26704696.489 8
 88  3 21  5 42 59.0800000  0  4G 6G13G11G 9
  20988267.958    20988269.940    -5938245.007 9  -6349584.199 9
  21133368.258    21133369.639   -54243511.071 9  40283959.827 8
  20668658.403    20668660.899   -20809768.347 8 -17982282.812 9
  19977964.847    19977965.973   -43375676.725 8  26686047.088 8
 88  3 21  5 43 29.0800000  0  4G 6G13G11G 9
  21000112.820    21000114.760    -5876000.107 9  -6301081.704 9
  21121861.291    21121864.447   -54303973.659 9  40236846.131 8
  20674801.730    20674803.441   -20777484.555 8 -17957126.606 8
  19973517.767    19973518.686   -43399044.929 8  26667838.100 8
 88  3 21  5 43 59.0800000  0  4G 6G13G11G 9
  21012054.728    21012057.339    -5813242.932 9  -6252180.042 9
  21110443.950    21110447.986   -54363974.435 9  40190092.299 9
  20681021.047    20681023.411   -20744802.244 8 -17931659.877 8
  19969179.445    19969180.031   -43421846.398 8  26650070.694 8
 88  3 21  5 44 29.0800000  0  4G 6G13G11G 9
  21024095.655    21024097.166    -5749974.598 9  -6202880.073 9
  21099115.363    21099117.187   -54423512.769 9  40143698.803 8
  20687315.932    20687318.156   -20711723.525 9 -17905884.237 9
  19964949.665    19964950.327   -43444079.091 7  26632746.523 8
 88  3 21  5 44 59.0800000  0  4G 6G13G11G 9
  21036231.882    21036233.907    -5686195.874 9  -6153182.408 9
  21087873.503    21087876.136   -54482587.608 9  40097666.482 8
  20693683.702    20693687.939   -20678250.646 9 -17879801.470 8
  19960826.399    19960827.923   -43465741.021 7  26615867.098 8
 88  3 21  5 45 29.0800000  0  4G 6G13G11G 9
  21048465.525    21048466.934    -5621907.977 9  -6103087.973 9
  21076719.802    21076722.678   -54541199.234 9  40051995.106 8
  20700129.802    20700132.011   -20644385.550 9 -17853413.079 8
  19956813.285    19956814.670   -43486830.577 8  26599433.674 7
 88  3 21  5 45 59.0800000  0  4G 6G13G11G 9
  21060795.241    21060797.837    -5557111.826 9  -6052597.495 9
  21065654.940    21065657.651   -54599346.669 9  40006685.425 9
  20706647.729    20706650.500   -20610130.503 8 -17826720.833 8
  19952910.410    19952910.331   -43507345.660 8  26583447.896 8
 88  3 21  5 46 29.0800000  0  4G 6G13G11G 9
  21073222.030    21073223.610    -5491808.694 9  -6001711.970 9
  21054678.895    21054680.504   -54657029.771 9  39961737.569 8
  20713239.587    20713242.658   -20575487.800 8 -17799726.512 9
  19949114.038    19949115.818   -43527284.790 7  26567910.895 8
 88  3 21  5 46 59.0800000  0  4G 6G13G11G 9
  21085745.291    21085746.986    -5425999.572 9  -5950432.159 8
  21043790.665    21043792.547   -54714248.268 9  39917151.752 9
  20719905.942    20719908.999   -20540459.407 8 -17772431.661 8
  19945432.136    19945431.291   -43546646.245 8  26552824.045 8
 88  3 21  5 47 29.0800000  0  4G 6G13G11G 9
  21098364.567    21098366.004    -5359685.672 9  -5898759.019 8
  21032990.437    21032991.839   -54771001.551 9  39872928.428 8
  20726645.725    20726647.626   -20505047.358 9 -17744837.843 9
  19941856.733    19941857.863   -43565427.964 8  26538188.926 8
 88  3 21  5 47 59.0800000  0  4G 6G13G11G 9
  21111079.250    21111082.068    -5292868.145 9  -5846693.456 9
  21022279.255    21022280.836   -54827288.937 9  39829068.131 8
  20733456.367    20733459.507   -20469253.795 8 -17716946.748 8
  19938392.108    19938393.839   -43583628.614 7  26524006.594 8
 88  3 21  5 48 29.0800000  0  4G 6G13G11G 9
  21123890.749    21123890.956    -5225548.217 9  -5794236.396 8
  21011655.052    21011658.006   -54883110.792 9  39785570.607 8
  20740339.253    20740342.521   -20433081.183 8 -17688760.304 9
  19935040.355    19935041.303   -43601246.322 8  26510278.515 8
 88  3 21  5 48 59.0800000  0  4G 6G13G11G 9
  21136795.929    21136798.312    -5157726.874 9  -5741388.616 8
  21001122.312    21001124.279   -54938466.323 9  39742436.446 8
  20747293.105    20747297.343   -20396531.601 8 -17660280.108 9
  19931799.112    19931799.966   -43618279.437 7  26497005.962 7
 88  3 21  5 49 29.0800000  0  4G 6G13G11G 9
  21149796.531    21149798.764    -5089405.373 9  -5688151.107 9
  20990676.888    20990679.599   -54993355.231 9  39699665.878 8
  20754319.580    20754324.500   -20359607.324 8 -17631507.942 9
  19928669.519    19928669.887   -43634726.217 8  26484190.273 7
 88  3 21  5 49 59.0800000  0  4G 6G13G11G 9
  21162894.113    21162893.856    -5020585.100 9  -5634524.949 8
  20980320.838    20980322.949   -55047777.738 9  39657258.747 8
  20761418.470    20761421.294   -20322310.452 8 -17602445.448 8
  19925652.149    19925652.979   -43650585.092 7  26471832.697 8
 88  3 21  5 50 29.0800000  0  4G 6G13G11G 9
  21176084.448    21176086.216    -4951267.347 9  -5580511.146 9
  20970053.964    20970055.244   -55101732.837 9  39615215.822 8
  20768586.277    20768589.745   -20284643.175 8 -17573094.317 9
  19922746.360    19922746.875   -43665854.481 8  26459934.460 8
 88  3 21  5 50 59.0800000  0  4G 6G13G11G 9
  21189370.303    21189371.455    -4881452.964 9  -5526110.350 9
  20959875.062    20959876.929   -55155220.462 9  39573537.171 8
  20775822.828    20775827.127   -20246607.695 8 -17543456.274 9
  19919953.255    19919953.237   -43680532.848 8  26448496.769 8
 88  3 21  5 51 29.0800000  0  4G 6G13G11G 9
  21202749.284    21202750.342    -4811143.692 9  -5471323.929 8
  20949786.251    20949788.419   -55208240.996 9  39532222.462 8
  20783131.255    20783134.330   -20208206.328 9 -17513533.144 9
  19917271.823    19917273.242   -43694618.520 8  26437520.919 8
 88  3 21  5 51 59.0800000  0  4G 6G13G11G 9
  21216222.174    21216223.104    -4740340.639 9  -5416152.761 9
  20939785.299    20939788.554   -55260793.581 9  39491272.424 8
  20790508.927    20790511.545   -20169441.180 9 -17483326.537 9
  19914704.431    19914706.445   -43708110.016 7  26427008.065 8
 88  3 21  5 52 29.0800000  0  4G 6G13G11G 9
  21229789.614    21229790.758    -4669045.104 9  -5360597.815 8
  20929874.065    20929875.689   -55312878.068 9  39450687.121 8
  20797954.222    20797957.068   -20130314.493 9 -17452838.210 8
  19912251.023    19912251.773   -43721005.564 8  26416959.591 8
 88  3 21  5 52 59.0800000  0  4G 6G13G11G 9
  21243449.403    21243451.293    -4597258.464 9  -5304660.210 9
  20920052.264    20920054.159   -55364494.276 9  39410466.712 8
  20805467.148    20805471.114   -20090828.513 8 -17422069.915 8
  19909911.180    19909911.562   -43733304.287 8  26407376.159 8
 88  3 21  5 53 29.0800000  0  4G 6G13G11G 9
  21257203.507    21257205.280    -4524982.095 9  -5248340.979 9
  20910319.580    20910321.261   -55415642.007 8  39370611.348 8
  20813049.511    20813052.585   -20050985.327 8 -17391023.279 9
  19907684.555    19907684.221   -43745004.170 7  26398259.369 8
 88  3 21  5 53 59.0800000  0  4G 6G13G11G 9
  21271050.160    21271052.085    -4452217.375 8  -5191641.232 8
  20900675.212    20900676.994   -55466321.853 9  39331120.586 9
  20820699.418    20820702.071   -20010787.348 9 -17359700.172 9
  19905573.221    19905573.930   -43756103.757 7  26389610.335 7
 88  3 21  5 54 29.0800000  0  4G 6G13G11G 9
  21284989.552    21284990.783    -4378965.838 9  -5134562.134 9
  20891120.220    20891122.089   -55516533.071 9  39291994.970 8
  20828416.680    20828418.958   -19970236.818 9 -17328102.343 8
  19903574.434    19903576.337   -43766601.767 7  26381430.049 8
 88  3 21  5 54 59.0800000  0  4G 6G13G11G 9
  21299021.539    21299023.264    -4305228.924 9  -5077104.824 9
  20881653.258    20881656.356   -55566275.667 9  39253234.509 8
  20836198.107    20836201.938   -19929335.874 9 -17296231.478 9
  19901691.195    19901692.750   -43776497.064 8  26373719.439 8
 88  3 21  5 55 29.0800000  0  4G 6G13G11G 9
  21313145.785    21313147.709    -4231008.077 9  -5019270.418 8
  20872277.389    20872279.671   -55615549.645 9  39214839.213 8
  20844048.914    20844052.218   -19888086.747 9 -17264089.296 9
  19899922.609    19899924.577   -43785787.956 8  26366479.761 8
 88  3 21  5 55 59.0800000  0  4G 6G13G11G 9
  21327360.708    21327362.088    -4156304.642 9  -4961059.989 9
  20862990.207    20862992.862   -55664355.224 9  39176808.903 8
  20851963.954    20851966.306   -19846491.557 9 -17231677.452 9
  19898269.400    19898271.507   -43794473.233 8  26359712.001 8
 88  3 21  5 56 29.0800000  0  4G 6G13G11G 9
  21341668.219    21341669.126    -4081120.091 9  -4902474.657 9
  20853792.745    20853795.156   -55712691.739 9  39139144.107 8
  20859945.095    20859946.775   -19804552.751 9 -17198997.867 8
  19896732.603    19896734.771   -43802551.378 8  26353417.348 8
 88  3 21  5 56 59.0800000  0  4G 6G13G11G 9
  21356067.715    21356068.853    -4005455.889 9  -4843515.565 8
  20844683.055    20844685.866   -55760559.419 9  39101844.636 8
  20867990.892    20867993.181   -19762272.479 9 -17166052.191 9
  19895312.222    19895312.883   -43810021.061 8  26347596.803 8
 88  3 21  5 57 29.0800000  0  4G 6G13G11G 9
  21370554.598    21370557.767    -3929313.692 8  -4784184.013 9
  20835663.341    20835666.009   -55807958.171 9  39064910.561 8
  20876100.642    20876102.075   -19719653.528 9 -17132842.616 9
  19894005.946    19894007.980   -43816881.374 8  26342251.102 7
 88  3 21  5 57 59.0800000  0  4G 6G13G11G 9
  21385136.159    21385137.225    -3852695.153 9  -4724481.271 9
  20826732.544    20826734.869   -55854888.500 9  39028341.482 8
  20884274.155    20884276.422   -19676697.422 9 -17099370.335 8
  19892817.974    19892817.956   -43823130.811 8  26337381.403 7
 88  3 21  5 58 29.0800000  0  4G 6G13G11G 9
  21399806.621    21399807.616    -3775601.649 9  -4664408.440 9
  20817892.010    20817893.248   -55901350.051 9  38992137.697 9
  20892511.846    20892515.189   -19633406.446 8 -17065637.100 9
  19891745.654    19891745.285   -43828767.951 8  26332988.811 7
 88  3 21  5 58 59.0800000  0  4G 6G13G11G 9
  21414567.490    21414568.241    -3698035.078 9  -4603966.990 9
  20809139.077    20809140.987   -55947342.790 9  38956299.201 8
  20900814.554    20900816.721   -19589783.171 9 -17031644.928 9
  19890787.868    19890789.663   -43833792.097 7  26329073.879 8
 88  3 21  5 59 29.0800000  0  4G 6G13G11G 9
  21429416.983    21429418.356    -3619996.744 9  -4543157.939 9
  20800476.692    20800478.674   -55992867.173 9  38920825.681 9
  20909177.496    20909180.167   -19545830.075 9 -16997395.760 9
  19889948.375    19889951.369   -43838201.706 7  26325637.812 8
 88  3 21  5 59 59.0800000  0  4G 6G13G11G 9
  21444356.566    21444357.596    -3541488.204 9  -4481982.473 8
  20791902.337    20791904.448   -56037923.195 9  38885717.102 7
  20917603.822    20917606.811   -19501549.097 9 -16962891.106 9
  19889227.943    19889227.814   -43841995.688 8  26322681.465 8
 88  3 21  6  0 29.0800000  0  4G 6G13G11G 9
  21459386.197    21459387.148    -3462511.293 9  -4420442.037 9
  20783418.388    20783420.270   -56082511.174 9  38850973.245 7
  20926092.371    20926096.015   -19456942.605 8 -16928132.794 9
  19888621.930    19888623.697   -43845173.153 7  26320205.517 8
 88  3 21  6  0 59.0800000  0  4G 6G13G11G 9
  21474503.100    21474505.267    -3383067.762 9  -4358538.006 9
  20775021.726    20775024.123   -56126630.909 9  38816594.256 8
  20934641.790    20934644.733   -19412012.755 9 -16893122.533 9
  19888136.376    19888136.998   -43847732.753 6  26318211.028 7
 88  3 21  6  1 29.0800000  0  4G 6G13G11G 9
  21489709.706    21489710.751    -3303159.106 8  -4296271.540 9
  20766715.468    20766717.778   -56170282.467 9  38782580.051 8
  20943252.795    20943256.506   -19366761.679 9 -16857861.964 9
  19887766.808    19887768.339   -43849673.260 7  26316698.934 9
 88  3 21  6  1 59.0800000  0  4G 6G13G11G 9
  21505004.702    21505004.573    -3222787.073 9  -4233644.010 9
  20758498.729    20758500.266   -56213465.683 9  38748930.811 8
  20951925.334    20951927.375   -19321192.013 9 -16822353.133 9
  19887515.463    19887515.557   -43850993.855 7  26315669.904 8
 88  3 21  6  2 29.0800000  0  4G 6G13G11G 9
  21520386.260    21520387.261    -3141953.292 9  -4170656.673 9
  20750368.388    20750372.015   -56256180.841 9  38715646.294 8
  20960657.024    20960658.382   -19275305.843 9 -16786597.679 9
  19887381.574    19887383.331   -43851693.543 7  26315124.681 8
 88  3 21  6  2 59.0800000  0  4G 6G13G11G 9
  21535855.176    21535857.544    -3060659.898 9  -4107311.194 9
  20742329.999    20742330.792   -56298429.122 9  38682725.557 8
  20969448.206    20969450.314   -19229105.811 9 -16750597.652 9
  19887364.654    19887369.003   -43851771.528 7  26315063.905 8
 88  3 21  6  3 29.0800000  0  4G 6G13G11G 9
  21551412.079    21551415.363    -2978907.974 9  -4043608.426 9
  20734379.468    20734381.678   -56340210.239 9  38650168.855 8
  20978299.317    20978301.977   -19182593.525 9 -16714354.314 9
  19887469.916    19887472.472   -43851226.317 6  26315488.744 8
 88  3 21  6  3 59.0800000  0  4G 6G13G11G 9
  21567055.903    21567057.800    -2896699.792 9  -3979550.136 9
  20726516.881    20726520.136   -56381523.880 9  38617976.425 7
  20987209.207    20987211.399   -19135771.806 9 -16677869.854 9
  19887693.285    19887696.002   -43850057.272 7  26316399.660 8
 88  3 21  6  4 29.0800000  0  4G 6G13G11G 9
  21582785.890    21582787.300    -2814037.063 9  -3915137.649 9
  20718744.442    20718747.053   -56422371.035 9  38586147.474 8
  20996177.962    20996180.307   -19088642.456 9 -16641145.693 8
  19888035.914    19888036.349   -43848263.534 7  26317797.375 8
 88  3 21  6  4 59.0800000  0  4G 6G13G11G 9
  21598603.050    21598604.101    -2730921.369 9  -3850372.197 9
  20711060.348    20711062.373   -56462751.737 9  38554682.008 8
  21005205.112    21005207.422   -19041208.337 9 -16604184.048 9
  19888495.635    19888497.230   -43845843.794 7  26319682.869 7
 88  3 21  6  5 29.0800000  0  4G 6G13G11G 9
  21614506.515    21614506.285    -2647354.673 9  -3785255.328 9
  20703465.143    20703466.581   -56502666.325 9  38523579.748 8
  21014288.630    21014291.197   -18993471.404 9 -16566986.434 8
  19889074.650    19889076.928   -43842797.612 7  26322056.516 8
 88  3 21  6  5 59.0800000  0  4G 6G13G11G 9
  21630492.786    21630495.447    -2563338.999 9  -3719788.595 8
  20695956.795    20695959.134   -56542115.268 9  38492840.322 8
  21023429.038    21023432.131   -18945433.896 9 -16529554.619 8
  19889773.703    19889776.492   -43839123.982 7  26324919.088 8
 88  3 21  6  6 29.0800000  0  4G 6G13G11G 9
  21646565.464    21646567.196    -2478876.027 9  -3653973.335 9
  20688538.479    20688542.021   -56581098.329 9  38462463.925 7
  21032627.505    21032629.718   -18897097.959 8 -16491890.253 9
  19890593.787    19890594.587   -43834822.252 7  26328271.065 8
 88  3 21  6  6 59.0800000  0  4G 6G13G11G 9
  21662722.696    21662725.557    -2393967.564 9  -3587810.925 9
  20681210.341    20681212.823   -56619616.108 9  38432450.086 9
  21041882.908    21041884.642   -18848466.155 9 -16453995.339 8
  19891532.233    19891531.929   -43829891.439 7  26332113.254 8
 88  3 21  6  7 29.0800000  0  4G 6G13G11G 9
  21678965.768    21678967.363    -2308615.609 9  -3521302.935 9
  20673969.288    20673970.727   -56657669.082 9  38402798.438 8
  21051193.069    21051193.883   -18799540.643 9 -16415871.557 8
  19892590.447    19892589.199   -43824330.833 6  26336446.175 8
 88  3 21  6  7 59.0800000  0  4G 6G13G11G 9
  21695291.718    21695291.704    -2222821.913 9  -3454450.725 8
  20666815.865    20666818.133   -56695257.375 8  38373508.863 8
  21060557.262    21060560.169   -18750323.601 8 -16377520.616 9
  19893767.299    19893767.781   -43818139.867 7  26341270.284 8
 88  3 21  6  8 29.0800000  0  4G 6G13G11G 9
  21711701.586    21711702.852    -2136588.587 9  -3387255.947 9
  20659752.361    20659753.613   -56732381.607 9  38344580.898 7
  21069978.828    21069979.366   -18700817.517 9 -16338944.440 9
  19895064.466    19895066.075   -43811317.507 8  26346586.413 8
 88  3 21  6  8 59.0800000  0  4G 6G13G11G 9
  21728193.251    21728195.441    -2049917.472 9  -3319720.028 9
  20652774.883    20652776.994   -56769042.431 9  38316014.028 8
  21079454.142    21079455.521   -18651024.624 9 -16300144.784 8
  19896485.272    19896486.379   -43803863.288 6  26352394.882 7
 88  3 21  6  9 29.0800000  0  4G 6G13G11G 9
  21744769.520    21744771.895    -1962810.567 9  -3251844.541 9
  20645886.382    20645889.536   -56805240.416 9  38287807.816 8
  21088983.201    21088985.614   -18600947.282 9 -16261123.480 8
  19898023.238    19898025.866   -43795776.600 8  26358696.197 8
 88  3 21  6  9 59.0800000  0  4G 6G13G11G 9
  21761427.201    21761429.254    -1875269.877 9  -3183631.045 8
  20639086.424    20639088.934   -56840976.084 9  38259961.854 8
  21098566.000    21098569.471   -18550587.702 9 -16221882.252 9
  19899682.530    19899682.806   -43787056.780 8  26365490.850 8
 88  3 21  6 10 29.0800000  0  4G 6G13G11G 9
  21778168.003    21778169.878    -1787297.326 9  -3115081.025 9
  20632373.895    20632376.364   -56876249.125 9  38232476.382 8
  21108202.320    21108204.297   -18499948.228 8 -16182422.914 8
  19901461.485    19901462.757   -43777703.372 7  26372779.219 8
 88  3 21  6 10 59.0800000  0  4G 6G13G11G 9
  21794990.197    21794992.851    -1698894.856 9  -3046196.003 9
  20625748.796    20625751.951   -56911059.949 9  38205351.079 8
  21117892.519    21117893.362   -18449030.860 9 -16142747.050 9
  19903362.206    19903364.309   -43767715.463 7  26380561.983 8
 88  3 21  6 11 29.0800000  0  4G 6G13G11G 9
  21811893.774    21811896.278    -1610064.527 9  -2976977.583 8
  20619213.272    20619215.355   -56945409.593 9  38178585.117 8
  21127633.620    21127634.760   -18397837.727 9 -16102856.297 8
  19905383.916    19905385.189   -43757093.009 7  26388839.214 8
 88  3 21  6 11 59.0800000  0  4G 6G13G11G 9
  21828879.750    21828882.076    -1520808.452 9  -2907427.427 9
  20612764.291    20612767.160   -56979299.083 9  38152177.735 8
  21137428.229    21137429.923   -18346371.614 8 -16062752.836 9
  19907526.506    19907528.773   -43745835.104 8  26397611.595 8
 88  3 21  6 12 29.0800000  0  4G 6G13G11G 9
  21845944.606    21845948.041    -1431128.707 9  -2837547.122 8
  20606402.881    20606405.036   -57012728.208 8  38126129.090 8
  21147271.254    21147274.812   -18294634.707 9 -16022438.369 9
  19909789.919    19909790.380   -43733941.399 7  26406879.387 8
 88  3 21  6 12 59.0800000  0  4G 6G13G11G 9
  21863090.381    21863092.549    -1341027.300 9  -2767338.256 9
  20600128.872    20600131.026   -57045697.514 9  38100438.728 8
  21157169.852    21157171.071   -18242629.263 9 -15981914.651 9
  19912173.357    19912175.386   -43721411.426 7  26416642.983 8
 88  3 21  6 13 29.0800000  0  4G 6G13G11G 9
  21880316.838    21880318.212    -1250506.298 9  -2696802.417 9
  20593942.121    20593943.659   -57078208.319 9  38075105.651 7
  21167116.511    21167118.717   -18190357.405 9 -15941183.333 9
  19914679.490    19914679.809   -43708244.860 7  26426902.646 8
 88  3 21  6 13 59.0800000  0  4G 6G13G11G 9
  21897621.445    21897623.713    -1159567.757 9  -2625941.230 9
  20587844.316    20587844.280   -57110260.444 9  38050129.982 8
  21177113.049    21177116.084   -18137821.214 9 -15900246.035 9
  19917305.604    19917306.264   -43694441.193 7  26437658.736 8
 88  3 21  6 14 29.0800000  0  4G 6G13G11G 9
  21915004.114    21915007.192    -1068213.733 9  -2554756.299 8
  20581831.621    20581832.330   -57141854.727 9  38025511.064 9
  21187160.369    21187163.548   -18085023.199 9 -15859104.735 9
  19920053.632    19920055.595   -43680000.114 7  26448911.511 8
 88  3 21  6 14 59.0800000  0  4G 6G13G11G 9
  21932468.219    21932471.152     -976446.540 9  -2483249.424 8
  20575905.354    20575907.894   -57172992.347 9  38001247.985 8
  21197256.681    21197259.442   -18031965.877 9 -15817761.366 9
  19922923.923    19922924.276   -43664921.206 8  26460661.299 8
 88  3 21  6 15 29.0800000  0  4G 6G13G11G 9
  21950009.478    21950011.102     -884268.268 9  -2411422.232 8
  20570067.804    20570069.815   -57203673.612 9  37977340.519 8
  21207401.548    21207404.580   -17978651.108 9 -15776217.393 9
  19925912.587    19925915.473   -43649204.362 7  26472908.175 7
 88  3 21  6 15 59.0800000  0  4G 6G13G11G 9
  21967628.279    21967630.997     -791680.840 9  -2339276.210 9
  20564315.595    20564317.491   -57233898.675 9  37953788.526 8
  21217596.317    21217599.021   -17925080.853 9 -15734474.341 9
  19929026.796    19929028.695   -43632849.007 8  26485652.584 8
 88  3 21  6 16 29.0800000  0  4G 6G13G11G 9
  21985324.563    21985326.410     -698686.551 9  -2266813.147 9
  20558650.556    20558653.025   -57263668.802 9  37930591.037 8
  21227838.154    21227840.732   -17871258.078 8 -15692534.516 8
  19932261.109    19932262.665   -43615855.079 8  26498894.608 8
 88  3 21  6 16 59.0800000  0  4G 6G13G11G 9
  22003098.018    22003099.806     -605287.912 9  -2194035.023 9
  20553072.490    20553074.443   -57292984.372 9  37907747.745 8
  21238127.324    21238131.219   -17817184.914 9 -15650399.588 9
  19935615.140    19935616.613   -43598222.392 7  26512634.342 7
 88  3 21  6 17 29.0800000  0  4G 6G13G11G 9
  22020946.953    22020950.237     -511486.821 9  -2120943.287 9
  20547580.106    20547581.072   -57321845.974 9  37885258.192 9
  21248464.403    21248468.226   -17762863.306 9 -15608071.071 9
  19939092.930    19939093.993   -43579950.804 7  26526871.947 8
 88  3 21  6 17 59.0800000  0  4G 6G13G11G 9
  22038873.158    22038876.178     -417285.392 9  -2047539.608 9
  20542174.093    20542177.119   -57350254.770 9  37863121.480 8
  21258849.524    21258852.002   -17708295.369 9 -15565550.588 9
  19942691.811    19942691.718   -43561039.870 7  26541607.724 8
 88  3 21  6 18 29.0800000  0  4G 6G13G11G 9
  22056875.396    22056877.069     -322686.053 9  -1973825.860 9
  20536853.820    20536855.817   -57378211.672 9  37841336.900 8
  21269279.895    21269282.322   -17653483.784 9 -15522840.268 9
  19946411.950    19946413.410   -43541489.637 7  26556841.652 8
 88  3 21  6 18 59.0800000  0  4G 6G13G11G 9
  22074951.790    22074954.537     -227691.020 9  -1899803.781 9
  20531618.973    20531622.028   -57405716.907 9  37819904.265 8
  21279756.334    21279757.996   -17598430.607 9 -15479941.693 9
  19950251.957    19950254.403   -43521300.012 7  26572573.807 8
 88  3 21  6 19 29.0800000  0  4G 6G13G11G 9
  22093103.894    22093106.227     -132302.401 9  -1825475.011 9
  20526471.041    20526473.595   -57432771.302 9  37798822.935 9
  21290277.411    21290280.060   -17543138.063 9 -15436856.608 8
  19954218.725    19954220.228   -43500471.074 7  26588804.126 8
 88  3 21  6 19 59.0800000  0  4G 6G13G11G 9
  22111329.562    22111333.118      -36522.580 9  -1750841.418 9
  20521409.049    20521411.060   -57459376.059 8  37778091.962 8
  21300845.242    21300847.080   -17487608.063 9 -15393586.477 9
  19958302.661    19958304.024   -43479002.239 8  26605533.085 8
 88  3 21  6 20 29.0800000  0  4G 6G13G11G 9
  22129630.166    22129632.793       59646.269 9  -1675904.673 9
  20516431.797    20516433.120   -57485531.592 9  37757711.040 8
  21311455.630    21311458.998   -17431843.122 9 -15350133.279 9
  19962510.872    19962513.036   -43456893.946 8  26622760.329 7
 88  3 21  6 20 59.0800000  0  4G 6G13G11G 9
  22148004.228    22148007.240      156201.805 9  -1600666.602 9
  20511539.369    20511540.750   -57511239.114 9  37737679.212 8
  21322112.346    21322115.129   -17375845.577 9 -15306498.843 9
  19966839.299    19966841.137   -43434146.052 7  26640485.945 8
 88  3 21  6 21 29.0800000  0  4G 6G13G11G 9
  22166450.644    22166454.536      253141.511 9  -1525129.196 9
  20506733.312    20506733.992   -57536498.583 9  37717996.518 9
  21332812.346    21332815.324   -17319617.744 9 -15262684.945 9
  19971289.925    19971289.786   -43410758.631 8  26658709.887 7
 88  3 21  6 21 59.0800000  0  4G 6G13G11G 9
  22184971.002    22184972.884      350463.421 9  -1449293.963 9
  20502011.077    20502013.374   -57561311.645 9  37698661.686 8
  21343554.550    21343557.850   -17263161.153 9 -15218692.797 9
  19975861.487    19975863.840   -43386731.720 8  26677432.157 6
 88  3 21  6 22 29.0800000  0  4G 6G13G11G 9
  22203562.413    22203565.518      448165.207 9  -1373162.715 9
  20497372.781    20497375.450   -57585679.140 9  37679674.032 8
  21354341.723    21354344.305   -17206478.455 9 -15174524.464 9
  19980555.512    19980556.785   -43362065.444 8  26696652.597 8
 88  3 21  6 22 59.0800000  0  4G 6G13G11G 9
  22222225.892    22222229.806      546244.183 9  -1296737.566 9
  20492821.084    20492823.794   -57609601.704 8  37661033.080 8
  21365170.580    21365173.090   -17149571.993 9 -15130181.774 9
  19985371.121    19985371.270   -43336759.961 8  26716371.130 7
 88  3 21  6 23 29.0800000  0  4G 6G13G11G 9
  22240962.012    22240963.994      644698.208 9  -1220020.175 9
  20488353.839    20488356.279   -57633080.248 9  37642738.121 8
  21376042.772    21376044.198   -17092443.989 9 -15085666.449 8
  19990308.095    19990309.067   -43310815.565 8  26736587.548 8
 88  3 21  6 23 59.0800000  0  4G 6G13G11G 9
  22259768.954    22259771.552      743524.910 9  -1143012.369 9
  20483970.933    20483972.100   -57656115.755 9  37624788.386 8
  21386954.737    21386957.232   -17035096.606 9 -15040980.186 9
  19995368.172    19995366.934   -43284231.950 8  26757302.045 7
 88  3 21  6 24 29.0800000  0  4G 6G13G11G 9
  22278645.284    22278647.350      842721.950 8  -1065715.991 9
  20479670.335    20479672.931   -57678709.145 9  37607183.147 9
  21397909.936    21397911.026   -16977532.059 9 -14996124.697 8
  20000547.649    20000548.492   -43257009.713 8  26778514.176 7
 88  3 21  6 24 59.0800000  0  4G 6G13G11G 9
  22297591.211    22297594.967      942286.831 9   -988132.983 9
  20475454.617    20475457.571   -57700861.410 9  37589921.656 8
  21408904.335    21408906.366   -16919752.069 9 -14951101.321 9
  20005848.570    20005851.271   -43229148.971 7  26800223.839 8
 88  3 21  6 25 29.0800000  0  4G 6G13G11G 9
  22316607.540    22316609.593     1042217.276 9   -910265.121 8
  20471323.667    20471327.022   -57722574.018 9  37573002.763 8
  21419940.032    21419942.183   -16861758.764 9 -14905911.752 9
  20011273.385    20011273.209   -43200650.163 8  26822430.676 7
 88  3 21  6 25 59.0800000  0  4G 6G13G11G 9
  22335693.477    22335694.543     1142510.728 9   -832114.406 9
  20467274.966    20467278.193   -57743847.512 9  37556426.015 8
  21431015.886    21431018.300   -16803554.768 9 -14860557.988 9
  20016815.731    20016818.164   -43171513.401 8  26845134.637 8
 88  3 21  6 26 29.0800000  0  4G 6G13G11G 9
  22354847.160    22354849.450     1243164.845 9   -753682.648 9
  20463310.805    20463313.201   -57764682.779 9  37540190.746 8
  21442131.141    21442133.004   -16745142.423 9 -14815041.873 9
  20022481.108    20022485.057   -43141739.141 7  26868335.336 8
 88  3 21  6 26 59.0800000  0  4G 6G13G11G 9
  22374069.063    22374071.324     1344177.280 9   -674971.699 9
  20459429.980    20459431.518   -57785080.748 9  37524296.235 9
  21453285.872    21453288.303   -16686523.768 9 -14769365.001 8
  20028270.571    20028270.939   -43111327.475 7  26892032.708 7
 88  3 21  6 27 29.0800000  0  4G 6G13G11G 9
  22393359.205    22393361.038     1445545.519 9   -595983.476 9
  20455631.289    20455632.427   -57805042.360 9  37508741.743 8
  21464479.595    21464481.819   -16627700.788 9 -14723528.923 8
  20034177.448    20034179.079   -43080279.194 8  26916226.179 6
 88  3 21  6 27 59.0800000  0  4G 6G13G11G 9
  22412714.219    22412716.996     1547266.976 9   -516720.016 9
  20451914.562    20451917.073   -57824569.141 9  37493526.084 8
  21475711.641    21475714.219   -16568675.717 9 -14677535.360 9
  20040207.473    20040209.402   -43048594.404 7  26940915.607 7
 88  3 21  6 28 29.0800000  0  4G 6G13G11G 9
  22432138.618    22432141.065     1649339.128 9   -437183.302 9
  20448281.887    20448282.795   -57843662.256 9  37478648.333 9
  21486980.828    21486984.597   -16509450.526 9 -14631385.870 9
  20046357.388    20046359.129   -43016273.856 8  26966100.439 7
 88  3 21  6 28 59.0800000  0  4G 6G13G11G 9
  22451628.690    22451631.930     1751759.724 9   -357375.075 9
  20444731.375    20444733.100   -57862321.727 9  37464108.502 9
  21498289.379    21498292.200   -16450027.311 9 -14585082.067 9
  20052628.972    20052630.262   -42983317.899 8  26991780.400 8
 88  3 21  6 29 29.0800000  0  4G 6G13G11G 9
  22471185.184    22471187.524     1854526.196 9   -277297.334 9
  20441262.913    20441264.107   -57880549.645 9  37449904.936 8
  21509635.806    21509637.064   -16390408.691 9 -14538626.010 9
  20059020.349    20059021.329   -42949726.912 7  27017955.176 8
 88  3 21  6 29 59.0800000  0  4G 6G13G11G 9
  22490806.541    22490808.509     1957636.144 9   -196951.938 8
  20437875.640    20437876.305   -57898346.804 9  37436037.026 8
  21521018.446    21521018.502   -16330596.715 9 -14492019.283 9
  20065534.301    20065534.397   -42915501.288 8  27044624.481 8
 88  3 21  6 30 29.0800000  0  4G 6G13G11G 9
  22510492.120    22510494.093     2061086.875 8   -116340.999 8
  20434570.617    20434572.327   -57915713.940 9  37422504.216 9
  21532435.233    21532436.826   -16270593.282 9 -14445263.360 9
  20072165.921    20072167.745   -42880641.994 7  27071787.557 8
 88  3 21  6 30 59.0800000  0  4G 6G13G11G 9
  22530241.688    22530245.343     2164875.883 9    -35466.476 9
  20431348.301    20431349.524   -57932652.280 9  37409305.521 9
  21543888.685    21543890.733   -16210400.469 9 -14398359.885 9
  20078920.607    20078921.856   -42845149.247 7  27099444.226 8
 88  3 21  6 31 29.0800000  0  4G 6G13G11G 9
  22550057.329    22550059.660     2269000.700 9     45669.727 9
  20428203.941    20428207.254   -57949163.685 9  37396439.502 8
  21555378.129    21555380.950   -16150020.626 9 -14351310.676 9
  20085794.645    20085796.523   -42809024.006 7  27127593.759 7
 88  3 21  6 31 59.0800000  0  4G 6G13G11G 9
  22569935.064    22569937.188     2373458.735 9    127065.586 9
  20425143.548    20425146.045   -57965248.993 9  37383905.515 9
  21566904.412    21566907.273   -16089455.608 9 -14304117.154 9
  20092789.236    20092792.214   -42772266.661 8  27156235.822 7
 88  3 21  6 32 29.0800000  0  4G 6G13G11G 9
  22589874.952    22589877.077     2478247.451 9    208719.097 9
  20422164.803    20422166.642   -57980909.077 9  37371702.856 8
  21578464.679    21578465.755   -16028707.495 9 -14256780.972 8
  20099905.375    20099906.540   -42734878.102 7  27185369.757 7
 88  3 21  6 32 59.0800000  0  4G 6G13G11G 9
  22609878.600    22609879.910     2583364.185 9    290628.214 9
  20419264.931    20419266.555   -57996145.482 8  37359830.335 8
  21590059.006    21590060.754   -15967778.631 9 -14209303.934 9
  20107139.082    20107140.696   -42696858.988 8  27214995.027 8
 88  3 21  6 33 29.0800000  0  4G 6G13G11G 9
  22629943.751    22629946.384     2688806.488 9    372791.024 9
  20416445.562    20416447.715   -58010959.096 9  37348287.265 9
  21601687.404    21601688.708   -15906670.859 9 -14161687.501 9
  20114494.929    20114495.984   -42658210.078 8  27245111.054 8
 88  3 21  6 33 59.0800000  0  4G 6G13G11G 9
  22650070.795    22650071.548     2794571.984 9    455205.658 9
  20413706.639    20413708.907   -58025350.793 9  37337072.976 8
  21613350.032    21613352.449   -15845386.364 9 -14113933.351 8
  20121968.563    20121968.949   -42618931.748 8  27275717.519 8
 88  3 21  6 34 29.0800000  0  4G 6G13G11G 9
  22670257.496    22670259.928     2900657.679 9    537869.813 9
  20411047.733    20411049.672   -58039322.476 9  37326185.961 9
  21625044.594    21625046.442   -15783927.287 9 -14066043.165 9
  20129562.475    20129564.861   -42579025.180 8  27306813.528 8
 88  3 21  6 34 59.0800000  0  4G 6G13G11G 9
  22690506.054    22690507.134     3007061.132 9    620781.574 9
  20408470.246    20408472.500   -58052875.212 9  37315625.399 9
  21636772.386    21636774.456   -15722295.726 9 -14018018.575 9
  20137277.122    20137277.776   -42538491.039 9  27338398.553 8
 88  3 21  6 35 29.0800000  0  4G 6G13G11G 9
  22710812.536    22710816.578     3113779.765 9    703938.920 9
  20405969.457    20405972.268   -58066009.964 8  37305390.537 9
  21648533.716    21648536.205   -15660493.467 9 -13969860.985 9
  20145109.214    20145110.120   -42497330.360 7  27370471.790 8
 88  3 21  6 35 59.0800000  0  4G 6G13G11G 9
  22731180.698    22731182.565     3220810.961 9    787339.829 9
  20403550.316    20403552.111   -58078727.934 9  37295480.445 9
  21660325.925    21660327.940   -15598522.857 9 -13921572.204 8
  20153061.490    20153061.483   -42455543.789 8  27403032.728 8
 88  3 21  6 36 29.0800000  0  4G 6G13G11G 9
  22751606.411    22751609.008     3328152.102 9    870982.257 9
  20401207.672    20401210.756   -58091030.461 9  37285894.073 8
  21672150.801    21672151.794   -15536385.809 9 -13873153.730 9
  20161131.051    20161132.918   -42413132.293 8  27436080.636 7
 88  3 21  6 36 59.0800000  0  4G 6G13G11G 9
  22772091.479    22772093.897     3435800.590 9    954864.170 9
  20398945.989    20398948.744   -58102919.024 9  37276630.272 8
  21684006.504    21684007.500   -15474084.462 9 -13824607.237 9
  20169320.906    20169321.504   -42370096.767 7  27469614.791 8
 88  3 21  6 37 29.0800000  0  4G 6G13G11G 9
  22792634.958    22792637.554     3543753.716 9   1038983.464 9
  20396762.663    20396764.217   -58114394.936 9  37267688.006 8
  21695891.550    21695894.078   -15411620.978 9 -13775934.390 8
  20177629.012    20177629.656   -42326438.276 8  27503634.384 8
 88  3 21  6 37 59.0800000  0  4G 6G13G11G 9
  22813234.670    22813238.019     3652008.891 9   1123338.112 9
  20394657.638    20394658.732   -58125458.963 9  37259066.693 8
  21707809.268    21707811.017   -15348997.095 9 -13727136.565 9
  20186056.825    20186056.292   -42282157.686 7  27538138.710 7
 88  3 21  6 38 29.0800000  0  4G 6G13G11G 9
  22833892.786    22833894.590     3760563.403 9   1207926.009 9
  20392629.911    20392630.948   -58136112.735 9  37250765.067 8
  21719756.282    21719757.972   -15286215.049 9 -13678215.497 9
  20194598.797    20194600.747   -42237256.067 8  27573126.963 7
 88  3 21  6 38 59.0800000  0  4G 6G13G11G 9
  22854606.014    22854607.481     3869414.635 9   1292745.101 9
  20390680.655    20390682.221   -58146358.058 9  37242781.697 7
  21731732.767    21731735.581   -15223276.527 9 -13629172.504 9
  20203262.169    20203263.753   -42191734.454 8  27608598.354 9
 88  3 21  6 39 29.0800000  0  4G 6G13G11G 9
  22875375.720    22875378.024     3978559.850 9   1377793.288 9
  20388807.782    20388810.850   -58156195.951 9  37235115.813 8
  21743739.800    21743741.008   -15160183.613 9 -13580009.195 9
  20212041.859    20212044.262   -42145594.066 8  27644551.885 7
 88  3 21  6 39 59.0800000  0  4G 6G13G11G 9
  22896201.827    22896203.336     4087996.527 9   1463068.598 9
  20387011.691    20387014.488   -58165627.434 9  37227766.610 9
  21755773.977    21755775.228   -15096938.456 9 -13530727.265 9
  20220941.700    20220941.109   -42098835.725 8  27680986.940 7
 88  3 21  6 40 29.0800000  0  4G 6G13G11G 9
  22917081.428    22917083.345     4197721.899 8   1548568.862 8
  20385295.675    20385296.900   -58174653.841 9  37220733.050 8
  21767837.956    21767838.782   -15033543.287 9 -13481328.443 8
  20229954.569    20229956.687   -42051460.790 8  27717902.457 8
 88  3 21  6 40 59.0800000  0  4G 6G13G11G 9
  22938015.690    22938018.358     4307732.648 9   1634291.505 8
  20383654.039    20383656.307   -58183276.679 9  37214013.964 7
  21779929.735    21779931.559   -14969999.765 9 -13431814.031 8
  20239087.443    20239088.155   -42003470.488 8  27755297.464 8
 88  3 21  6 41 29.0800000  0  4G 6G13G11G 9
  22959004.190    22959005.658     4418027.428 8   1720235.462 9
  20382089.557    20382092.984   -58191497.175 9  37207608.391 9
  21792049.435    21792052.385   -14906309.903 9 -13382185.574 9
  20248337.592    20248338.814   -41954865.597 8  27793171.388 8
 88  3 21  6 41 59.0800000  0  4G 6G13G11G 9
  22980045.400    22980047.882     4528602.486 9   1806397.820 9
  20380601.543    20380604.498   -58199317.123 9  37201514.925 7
  21804197.002    21804199.630   -14842475.635 9 -13332444.596 9
  20257702.134    20257703.644   -41905647.506 7  27831523.138 8
 88  3 21  6 42 29.0800000  0  4G 6G13G11G 9
  23001140.862    23001142.199     4639455.478 9   1892776.774 9
  20379189.341    20379191.923   -58206738.274 9  37195732.216 8
  21816371.885    21816372.878   -14778498.751 9 -13282592.485 9
  20267186.756    20267186.963   -41855817.378 8  27870351.779 8
 88  3 21  6 42 59.0800000  0  4G 6G13G11G 9
  23022288.288    23022289.411     4750583.433 9   1979369.941 8
  20377853.606    20377855.716   -58213761.304 9  37190259.729 8
  21828573.905    21828574.548   -14714381.684 9 -13232631.139 9
  20276784.575    20276784.450   -41805376.587 8  27909656.282 8
 88  3 21  6 43 29.0800000  0  4G 6G13G11G 9
  23043486.561    23043488.122     4861983.686 8   2066175.328 9
  20376591.792    20376594.417   -58220387.685 9  37185096.327 8
  21840800.362    21840802.156   -14650126.009 9 -13182561.794 9
  20286498.298    20286498.602   -41754326.561 8  27949435.513 6
 88  3 21  6 43 59.0800000  0  4G 6G13G11G 9
  23064735.362    23064737.529     4973653.616 8   2153190.831 8
  20375405.645    20375409.187   -58226618.969 9  37180240.789 9
  21853054.278    21853055.060   -14585733.525 8 -13132385.835 9
  20296328.398    20296329.295   -41702668.628 8  27989688.428 8
 88  3 21  6 44 29.0800000  0  4G 6G13G11G 9
  23086036.961    23086039.638     5085590.511 9   2240414.357 8
  20374296.540    20374297.334   -58232456.038 9  37175692.439 8
  21865332.477    21865334.809   -14521206.386 9 -13082104.962 9
  20306272.226    20306274.952   -41650403.638 8  28030414.363 8
 88  3 21  6 44 59.0800000  0  4G 6G13G11G 9
  23107387.343    23107390.469     5197791.615 8   2327843.779 9
  20373259.752    20373261.047   -58237900.731 9  37171449.831 9
  21877637.434    21877639.219   -14456546.430 9 -13031720.583 9
  20316334.987    20316337.143   -41597533.282 8  28071612.031 8
 88  3 21  6 45 29.0800000  0  4G 6G13G11G 9
  23128788.914    23128791.733     5310254.069 8   2415476.836 8
  20372299.004    20372299.970   -58242954.873 9  37167511.547 8
  21889965.759    21889968.719   -14391755.552 9 -12981234.191 9
  20326511.015    20326512.320   -41544059.055 9  28113280.236 8
 88  3 21  6 45 59.0800000  0  4G 6G13G11G 9
  23150239.266    23150241.484     5422975.092 9   2503311.393 9
  20371411.234    20371411.885   -58247619.715 9  37163876.601 9
  21902319.961    21902322.972   -14326835.754 9 -12930647.353 9
  20336801.412    20336803.407   -41489982.390 8  28155417.882 8
 88  3 21  6 46 29.0800000  0  4G 6G13G11G 9
  23171737.782    23171739.693     5535951.904 9   2591345.262 9
  20370596.925    20370598.492   -58251896.951 9  37160543.695 8
  21914697.520    21914700.219   -14261789.098 9 -12879961.657 9
  20347207.410    20347208.362   -41435304.673 8  28198023.872 8
 88  3 21  6 46 59.0800000  0  4G 6G13G11G 9
  23193285.172    23193286.696     5649182.021 9   2679576.498 9
  20369856.452    20369858.306   -58255787.715 9  37157511.944 8
  21927099.436    21927101.674   -14196617.110 9 -12829178.301 9
  20357725.275    20357726.969   -41380027.022 8  28241097.353 7
 88  3 21  6 47 29.0800000  0  4G 6G13G11G 9
  23214879.695    23214882.014     5762662.366 9   2768002.723 9
  20369188.700    20369191.297   -58259293.334 9  37154780.291 8
  21939524.215    21939527.186   -14131321.928 9 -12778298.938 9
  20368357.597    20368359.099   -41324151.229 8  28284636.914 7
 88  3 21  6 47 59.0800000  0  4G 6G13G11G 9
  23236521.325    23236523.586     5876390.212 8   2856621.824 9
  20368594.754    20368596.706   -58262415.712 9  37152347.285 9
  21951972.404    21951976.177   -14065905.331 9 -12727324.980 9
  20379104.412    20379105.578   -41267678.995 9  28328641.227 8
 88  3 21  6 48 29.0800000  0  4G 6G13G11G 9
  23258209.245    23258212.186     5990362.914 8   2945431.696 9
  20368073.097    20368075.480   -58265156.332 9  37150211.741 8
  21964444.710    21964446.411   -14000369.234 9 -12676257.905 9
  20389964.226    20389966.454   -41210611.422 8  28373109.457 8
 88  3 21  6 48 59.0800000  0  4G 6G13G11G 9
  23279943.448    23279946.619     6104577.363 8   3034429.939 9
  20367624.332    20367626.772   -58267516.522 9  37148372.637 9
  21976937.805    21976941.502   -13934715.391 9 -12625099.073 9
  20400936.568    20400938.520   -41152950.457 8  28418040.070 8
 88  3 21  6 49 29.0800000  0  4G 6G13G11G 9
  23301723.069    23301725.931     6219030.987 8   3123614.568 9
  20367247.513    20367249.180   -58269498.387 9  37146828.324 8
  21989453.169    21989456.829   -13868945.582 9 -12573849.870 9
  20412020.843    20412023.243   -41094697.504 8  28463431.957 8
 88  3 21  6 49 59.0800000  0  4G 6G13G11G 9
  23323547.757    23323551.169     6333721.084 9   3212983.464 9
  20366942.327    20366943.335   -58271102.755 9  37145578.183 8
  22001991.250    22001993.710   -13803061.445 9 -12522511.591 9
  20423217.836    20423220.383   -41035854.108 8  28509283.913 8
 88  3 21  6 50 29.0800000  0  4G 6G13G11G 9
  23345418.234    23345420.266     6448644.625 8   3302534.238 9
  20366707.941    20366709.638   -58272331.399 9  37144620.801 8
  22014550.081    22014551.797   -13737065.028 9 -12471085.823 9
  20434528.633    20434531.339   -40976422.078 9  28555594.587 8
 88  3 21  6 50 59.0800000  0  4G 6G13G11G 9
  23367329.978    23367332.797     6563798.753 8   3392264.719 9
  20366545.475    20366547.313   -58273185.556 9  37143955.222 8
  22027129.596    22027132.306   -13670958.324 9 -12419574.133 9
  20445949.568    20445952.146   -40916403.011 8  28602362.662 9
 88  3 21  6 51 29.0800000  0  4G 6G13G11G 9
  23389286.911    23389289.072     6679180.809 9   3482172.771 8
  20366454.582    20366454.933   -58273666.885 9  37143580.179 9
  22039729.172    22039732.891   -13604742.920 9 -12367977.716 9
  20457482.622    20457483.619   -40855798.675 9  28649586.799 7
 88  3 21  6 51 59.0800000  0  4G 6G13G11G 9
  23411285.920    23411288.796     6794787.890 9   3572256.212 8
  20366432.145    20366434.599   -58273777.334 9  37143494.114 8
  22052349.937    22052352.783   -13538420.864 9 -12316298.202 9
  20469127.281    20469129.026   -40794610.899 9  28697265.561 8
 88  3 21  6 52 29.0800000  0  4G 6G13G11G 9
  23433327.327    23433330.927     6910617.193 9   3662512.811 8
  20366482.370    20366483.451   -58273518.594 9  37143695.739 8
  22064991.360    22064994.325   -13471993.608 9 -12264536.717 9
  20480881.763    20480883.623   -40732841.144 8  28745397.811 9
 88  3 21  6 52 59.0800000  0  4G 6G13G11G 9
  23455411.211    23455412.900     7026666.088 9   3752940.522 8
  20366601.851    20366603.304   -58272891.288 8  37144184.558 8
  22077652.105    22077653.753   -13405462.638 9 -12212694.403 9
  20492744.802    20492747.203   -40670491.287 9  28793982.098 9
 88  3 21  6 53 29.0800000  0  4G 6G13G11G 9
  23477535.691    23477538.324     7142931.513 9   3843536.959 8
  20366791.104    20366792.013   -58271897.893 9  37144958.646 8
  22090331.956    22090333.718   -13338830.265 9 -12160773.080 9
  20504721.474    20504721.817   -40607563.123 8  28843017.007 8
 88  3 21  6 53 59.0800000  0  4G 6G13G11G 9
  23499701.323    23499704.028     7259410.635 9   3934299.916 9
  20367049.414    20367051.395   -58270539.901 9  37146016.842 9
  22103029.514    22103031.902   -13272098.351 9 -12108774.194 9
  20516805.782    20516806.731   -40544058.427 9  28892501.172 8
 88  3 21  6 54 29.0800000  0  4G 6G13G11G 9
  23521906.706    23521909.453     7376100.675 8   4025227.191 9
  20367376.722    20367378.117   -58268818.496 9  37147358.198 8
  22115748.136    22115749.580   -13205267.963 9 -12056698.559 9
  20528999.450    20529001.370   -40479979.152 9  28942433.067 9
 88  3 21  6 54 59.0800000  0  4G 6G13G11G 9
  23544152.098    23544154.181     7492998.749 8   4116316.572 9
  20367773.057    20367775.139   -58266735.628 6  37148981.219 7
  22128482.799    22128486.238   -13138341.095 9 -12004547.771 9
  20541303.458    20541303.126   -40415327.122 9  28992811.234 8
 88  3 21  6 55 29.0800000  0  4G 6G13G11G 9
  23566435.782    23566438.351     7610102.113 8   4207565.937 9
  20368237.505    20368240.574   -58264292.398 9  37150885.036 9
  22141237.071    22141239.181   -13071319.717 9 -11952323.335 9
  20553714.815    20553714.614   -40350104.089 9  29043634.355 8
 88  3 21  6 55 59.0800000  0  4G 6G13G11G 9
  23588758.136    23588761.534     7727407.921 9   4298973.047 9
  20368771.180    20368773.805   -58261490.990 9  37153067.946 8
  22154007.914    22154010.936   -13004205.330 9 -11900026.422 8
  20566233.569    20566235.293   -40284312.018 9  29094900.886 8
 88  3 21  6 56 29.0800000  0  4G 6G13G11G 9
  23611118.559    23611121.328     7844913.056 8   4390535.471 9
  20369372.624    20369374.348   -58258332.907 9  37155528.807 8
  22166797.109    22166799.082   -12936999.786 9 -11847658.468 9
  20578860.836    20578862.428   -40217953.043 8  29146609.161 9
 88  3 21  6 56 59.0800000  0  4G 6G13G11G 9
  23633515.299    23633519.456     7962614.897 9   4482251.159 9
  20370039.890    20370041.729   -58254819.612 9  37158266.449 8
  22179602.112    22179605.706   -12869704.761 9 -11795220.795 9
  20591596.697    20591597.712   -40151028.671 9  29198757.993 8
 88  3 21  6 57 29.0800000  0  4G 6G13G11G 9
  23655950.510    23655954.753     8080510.580 8   4574117.885 9
  20370776.327    20370777.492   -58250952.975 9  37161279.414 9
  22192425.587    22192427.822   -12802322.023 9 -11742714.764 9
  20604439.472    20604439.689   -40083541.226 9  29251345.598 8
 88  3 21  6 57 59.0800000  0  4G 6G13G11G 9
  23678422.138    23678426.059     8198597.155 9   4666133.370 9
  20371578.356    20371580.825   -58246734.295 9  37164566.712 9
  22205264.285    22205266.587   -12734853.281 9 -11690141.739 9
  20617387.960    20617389.297   -40015492.604 8  29304370.474 7
 88  3 21  6 58 29.0800000  0  4G 6G13G11G 9
  23700929.939    23700932.629     8316871.774 9   4758295.405 9
  20372448.440    20372450.194   -58242165.437 8  37168126.875 8
  22218119.255    22218121.225   -12667300.160 9 -11637502.953 9
  20630444.453    20630444.899   -39946885.121 9  29357830.820 8
 88  3 21  6 58 59.0800000  0  4G 6G13G11G 9
  23723472.296    23723474.457     8435331.510 9   4850601.698 9
  20373384.519    20373385.313   -58237248.346 9  37171958.377 9
  22230988.832    22230991.993   -12599664.006 9 -11584799.451 8
  20643605.177    20643606.594   -39877720.403 8  29411725.390 9
 88  3 21  6 59 29.0800000  0  4G 6G13G11G 9
  23746049.082    23746051.536     8553973.471 9   4943049.982 9
  20374385.990    20374386.942   -58231984.534 9  37176060.068 8
  22243874.692    22243878.464   -12531946.877 9 -11532032.861 9
  20656872.274    20656874.628   -39808000.723 8  29466052.398 8
 88  3 21  6 59 59.0800000  0  4G 6G13G11G 9
  23768658.987    23768662.192     8672794.979 9   5035638.167 8
  20375453.656    20375455.366   -58226375.203 9  37180430.968 8
  22256777.755    22256780.316   -12464150.116 9 -11479204.228 9
  20670243.238    20670246.277   -39737727.935 8  29520810.396 8
 88  3 21  7  0 29.0800000  0  4G 6G13G11G 9
  23791303.912    23791305.193     8791793.125 8   5128363.984 9
  20376586.830    20376587.724   -58220421.868 9  37185069.942 9
  22269693.568    22269696.554   -12396275.203 9 -11426314.712 9
  20683723.240    20683723.282   -39666904.385 9  29575997.552 8
 88  3 21  7  0 59.0800000  0  4G 6G13G11G 9
  23813981.836    23813984.261     8910964.823 9   5221225.032 9
  20377784.079    20377785.402   -58214127.155 9  37189974.916 8
  22282624.481    22282626.261   -12328324.026 9 -11373365.747 9
  20697302.949    20697305.005   -39595532.083 9  29631612.315 8
 88  3 21  7  1 29.0800000  0  4G 6G13G11G 9
  23836692.319    23836693.557     9030307.323 9   5314219.185 8
  20379046.264    20379047.717   -58207492.548 9  37195144.745 8
  22295569.237    22295571.361   -12260298.163 9 -11320358.569 9
  20710989.970    20710990.681   -39523613.303 9  29687652.896 7
 88  3 21  7  1 59.0800000  0  4G 6G13G11G 9
  23859434.269    23859436.916     9149817.779 9   5407344.236 8
  20380373.785    20380374.679   -58200519.476 9  37200578.311 9
  22308527.149    22308530.321   -12192199.201 9 -11267294.458 9
  20724780.188    20724779.769   -39451150.126 9  29744117.701 8
 88  3 21  7  2 29.0800000  0  4G 6G13G11G 9
  23882207.634    23882210.045     9269493.280 8   5500597.865 8
  20381764.380    20381765.690   -58193209.009 9  37206274.779 8
  22321500.353    22321503.768   -12124028.579 9 -11214174.505 9
  20738671.769    20738672.534   -39378144.705 8  29801005.027 8
 88  3 21  7  2 59.0800000  0  4G 6G13G11G 9
  23905011.694    23905014.791     9389330.877 9   5593977.788 9
  20383218.709    20383221.005   -58185563.830 9  37212232.071 8
  22334485.697    22334488.808   -12055788.036 9 -11161000.066 9
  20752666.317    20752667.604   -39304599.144 8  29858313.234 8
 88  3 21  7  3 29.0800000  0  4G 6G13G11G 9
  23927845.858    23927849.092     9509327.692 8   5687481.795 9
  20384737.658    20384739.340   -58177585.348 9  37218449.081 9
  22347485.499    22347487.951   -11987479.279 9 -11107772.454 9
  20766764.981    20766764.598   -39230515.971 9  29916040.375 8
 88  3 21  7  3 59.0800000  0  4G 6G13G11G 9
  23950708.935    23950713.751     9629480.800 8   5781107.567 9
  20386319.682    20386319.989   -58169275.292 9  37224924.458 9
  22360496.100    22360498.345   -11919103.410 9 -11054492.561 8
  20780963.394    20780965.243   -39155897.301 9  29974184.790 9
 88  3 21  7  4 29.0800000  0  4G 6G13G11G 9
  23973603.957    23973607.334     9749787.464 8   5874853.026 9
  20387962.749    20387965.017   -58160634.952 9  37231657.201 9
  22373520.694    22373522.035   -11850662.170 9 -11001161.734 9
  20795265.442    20795266.411   -39080745.316 9  30032744.765 7
 88  3 21  7  4 59.0800000  0  4G 6G13G11G 9
  23996525.444    23996529.580     9870244.861 9   5968715.930 9
  20389669.063    20389671.402   -58151666.461 9  37238645.645 8
  22386555.571    22386559.411   -11782157.228 9 -10947781.266 9
  20809666.495    20809668.308   -39005062.353 8  30091718.471 8
 88  3 21  7  5 29.0800000  0  4G 6G13G11G 9
  24019476.744    24019480.365     9990849.895 9   6062693.910 9
  20391437.994    20391439.632   -58142371.241 9  37245888.672 8
  22399604.152    22399606.522   -11713589.977 9 -10894352.245 9
  20824169.173    20824171.697   -38928850.656 9  30151104.190 8
 88  3 21  7  5 59.0800000  0  4G 6G13G11G 9
  24042454.402    24042456.878    10111599.576 9   6156784.589 9
  20393269.685    20393270.350   -58132751.042 9  37253384.932 9
  22412664.877    22412666.765   -11644962.158 9 -10840876.032 9
  20838772.550    20838771.298   -38852112.777 9  30210899.916 7
 88  3 21  7  6 29.0800000  0  4G 3G13G11G 9
                  22694899.332   -97820435.701 9
  20395161.739    20395162.221   -58122807.440 9  37261133.203 9
  22425734.265    22425736.020   -11576275.153 9 -10787353.702 9
  20853474.235    20853475.451   -38774851.168 9  30271103.748 9
 88  3 21  7  6 59.0800000  0  4G 3G13G11G 9
  22682305.331    22682308.326   -97886762.142 9 124126350.496 9
  20397113.745    20397117.270   -58112543.017 9  37269131.454 8
  22438815.301    22438818.171   -11507530.528 9 -10733786.465 9
  20868275.294    20868277.894   -38697067.942 9  30331714.038 8
 88  3 21  7  7 29.0800000  0  4G 3G13G11G 9
  22669733.570    22669735.079   -97952832.812 9 124074866.871 9
  20399128.283    20399129.343   -58101958.832 8  37277378.871 9
  22451909.545    22451911.340   -11438729.528 9 -10680175.296 9
  20883176.336    20883178.323   -38618765.323 9  30392729.040 8
 88  3 21  7  7 59.0800000  0  4G 3G13G11G 9
  22657207.792    22657210.959   -98018648.363 8 124023582.057 8
  20401202.885    20401204.854   -58091056.712 8  37285874.046 8
  22465012.304    22465013.903   -11369873.951 9 -10626521.607 8
  20898174.896    20898177.352   -38539945.929 9  30454146.736 8
 88  3 21  7  8 29.0800000  0  4G 3G13G11G 9
  22644732.664    22644735.856   -98084209.204 8 123972495.710 9
  20403337.936    20403340.900   -58079838.271 9  37294615.696 9
  22478123.788    22478126.865   -11300965.228 9 -10572826.509 9
  20913272.716    20913273.941   -38460612.418 9  30515965.042 8
 88  3 21  7  8 59.0800000  0  4G 3G13G11G 9
  22632305.130    22632308.105   -98149515.470 8 123921607.737 9
  20405532.512    20405534.780   -58068305.626 9  37303602.173 7
  22491246.823    22491249.529   -11232004.403 9 -10519090.812 9
  20928466.412    20928467.733   -38380766.814 9  30578182.354 8
 88  3 21  7  9 29.0800000  0  4G 3G13G11G 9
  22619925.722    22619928.720   -98214567.271 9 123870918.036 9
  20407786.954    20407788.092   -58056460.000 9  37312832.549 8
  22504378.441    22504381.152   -11162993.217 8 -10465315.868 9
  20943758.435    20943759.061   -38300411.791 9  30640796.657 8
 88  3 21  7  9 59.0800000  0  4G 3G13G11G 9
  22607595.841    22607598.701   -98279364.320 9 123820426.854 9
  20410100.126    20410101.605   -58044303.050 8  37322305.500 8
  22517520.956    22517523.782   -11093933.136 9 -10411502.848 9
  20959144.938    20959146.724   -38219549.821 9  30703805.953 8
 88  3 21  7 10 29.0800000  0  4G 3G13G11G 9
  22595314.310    22595316.526   -98343906.997 9 123770133.874 9
  20412473.077    20412473.809   -58031836.857 9  37332019.406 8
  22530672.097    22530674.921   -11024825.168 8 -10357652.517 8
  20974628.979    20974630.157   -38138183.433 9  30767208.320 7
 88  3 21  7 10 59.0800000  0  4G 3G13G11G 9
  22583078.379    22583081.286   -98408195.609 9 123720038.857 8
  20414903.944    20414904.545   -58019063.315 9  37341972.818 8
  22543831.735    22543834.331   -10955671.026 9 -10303766.174 9
  20990207.337    20990208.956   -38056314.977 9  30831001.893 9
 88  3 21  7 11 29.0800000  0  4G 3G13G11G 9
  22570895.064    22570896.659   -98472229.894 9 123670142.030 8
  20417392.697    20417394.120   -58005984.152 9  37352164.365 8
  22556998.835    22557001.889   -10886472.337 9 -10249845.141 9
  21005881.392    21005882.387   -37973947.183 9  30895184.572 8
 88  3 21  7 11 59.0800000  0  4G 3G13G11G 9
  22558758.288    22558759.872   -98536010.037 9 123620443.243 9
  20419940.103    20419940.669   -57992600.939 8  37362592.846 9
  22570176.045    22570177.782   -10817230.258 8 -10195890.286 9
  21021650.289    21021651.263   -37891082.423 8  30959754.495 8
 88  3 21  7 12 29.0800000  0  4G 3G13G11G 9
  22546670.163    22546671.798   -98599536.169 9 123570942.388 9
  20422542.920    20422545.221   -57978915.596 9  37373256.758 9
  22583359.914    22583362.827   -10747946.164 9 -10141902.686 9
  21037513.762    21037514.242   -37807723.418 9  31024709.556 8
 88  3 21  7 12 59.0800000  0  4G 3G13G11G 9
  22534629.090    22534631.031   -98662808.614 8 123521639.195 8
  20425204.231    20425206.187   -57964929.564 9  37384154.960 8
  22596552.595    22596554.976   -10678621.273 9 -10087883.292 9
  21053469.069    21053470.597   -37723872.682 9  31090047.757 9
 88  3 21  7 13 29.0800000  0  4G 3G13G11G 9
  22522636.533    22522639.883   -98725827.908 8 123472533.293 9
  20427922.809    20427923.905   -57950644.443 9  37395286.229 9
  22609751.440    22609754.815   -10609257.404 9 -10033833.540 9
  21069519.149    21069520.048   -37639532.823 9  31155767.123 8
 88  3 21  7 13 59.0800000  0  4G 3G13G11G 9
  22510693.643    22510693.979   -98788593.733 9 123423624.872 9
  20430697.649    20430700.121   -57936062.288 9  37406648.950 9
  22622958.767    22622960.787   -10539855.310 9  -9979754.008 9
  21085660.395    21085662.690   -37554706.400 8  31221865.610 7
 88  3 21  7 14 29.0800000  0  4G 3G13G11G 9
  22498796.847    22498798.708   -98851106.461 9 123374913.661 8
  20433529.408    20433531.067   -57921184.607 9  37418241.953 9
  22636172.142    22636174.875   -10470416.725 9  -9925646.044 9
  21101894.816    21101897.012   -37469396.217 8  31288341.066 8
 88  3 21  7 14 59.0800000  0  4G 3G13G11G 9
  22486949.556    22486951.813   -98913366.768 8 123326399.178 8
  20436416.267    20436417.498   -57906013.450 9  37430063.632 8
  22649392.953    22649395.311   -10400942.987 9  -9871510.683 9
  21118220.273    21118221.873   -37383604.661 9  31355191.604 8
 88  3 21  7 15 29.0800000  0  4G 3G13G11G 9
  22475149.813    22475152.116   -98975374.472 8 123278081.494 8
  20439358.494    20439361.139   -57890550.561 8  37442112.629 8
  22662619.612    22662622.881   -10331435.096 9  -9817348.704 9
  21134636.465    21134638.386   -37297334.771 9  31422414.885 8
 88  3 21  7 15 59.0800000  0  4G 3G13G11G 9
  22463398.602    22463400.085   -99037129.641 9 123229960.596 8
  20442356.302    20442358.472   -57874797.411 9  37454387.811 8
  22675853.310    22675855.277   -10261894.419 9  -9763161.164 9
  21151143.715    21151145.245   -37210588.852 9  31490009.088 9
 88  3 21  7 16 29.0800000  0  4G 3G13G11G 9
  22451694.211    22451697.599   -99098632.215 8 123182036.536 8
  20445409.025    20445410.504   -57858756.055 9  37466887.567 9
  22689092.338    22689095.191   -10192322.126 9  -9708949.004 9
  21167742.259    21167742.852   -37123369.858 9  31557971.923 8
 88  3 21  7 16 59.0800000  0  4G 3G13G11G 9
  22440038.977    22440041.090   -99159882.846 9 123134308.788 8
  20448516.012    20448517.852   -57842428.171 9  37479610.601 8
  22702337.798    22702338.865   -10122719.959 9  -9654713.549 9
  21184427.115    21184430.261   -37035680.227 9  31626301.485 9
 88  3 21  7 17 29.0800000  0  4G 3G13G11G 9
  22428432.156    22428433.073   -99220881.723 9 123086777.228 9
  20451676.571    20451678.738   -57825815.428 9  37492555.609 8
  22715587.062    22715588.995   -10053088.972 9  -9600455.649 9
  21201204.188    21201204.987   -36947522.838 9  31694995.531 8
 88  3 21  7 17 59.0800000  0  4G 3G13G11G 9
  22416871.033    22416873.301   -99281629.266 9 123039441.506 9
  20454891.560    20454894.299   -57808920.068 9  37505720.835 8
  22728843.617    22728845.832    -9983430.676 9  -9546176.478 9
  21218067.379    21218068.472   -36858900.394 9  31764051.963 8
 88  3 21  7 18 29.0800000  0  4G 3G13G11G 9
  22405359.445    22405361.550   -99342125.250 9 122992301.780 9
  20458160.043    20458162.594   -57791743.030 9  37519105.533 7
  22742102.699    22742105.771    -9913745.907 8  -9491876.667 9
  21235020.667    21235021.964   -36769815.748 9  31833468.553 9
 88  3 21  7 18 59.0800000  0  4G 3G13G11G 9
  22393895.702    22393896.711   -99402370.072 9 122945357.787 9
  20461482.892    20461484.348   -57774286.413 9  37532708.105 8
  22755368.956    22755371.866    -9844035.903 9  -9437557.215 9
  21252059.569    21252061.770   -36680271.691 9  31903243.120 8
 88  3 21  7 19 29.0800000  0  4G 3G13G11G 9
  22382478.767    22382480.711   -99462364.165 8 122898609.169 9
  20464856.832    20464859.142   -57756552.665 9  37546526.598 9
  22768639.266    22768639.714    -9774301.966 9  -9383219.108 8
  21269186.842    21269188.233   -36590271.019 9  31973373.496 8
 88  3 21  7 19 59.0800000  0  4G 3G13G11G 9
  22371110.495    22371112.356   -99522107.719 8 122852055.754 8
  20468284.539    20468286.342   -57738542.901 9  37560560.175 9
  22781913.058    22781915.333    -9704545.414 9  -9328863.358 9
  21286400.203    21286401.835   -36499816.280 9  32043857.693 8
 88  3 21  7 20 29.0800000  0  4G 3G13G11G 9
  22359788.950    22359790.088   -99581601.150 8 122805697.269 9
  20471763.597    20471766.455   -57720258.647 8  37574807.640 8
  22795191.222    22795193.749    -9634767.398 9  -9274490.899 8
  21303698.568    21303700.580   -36408910.325 9  32114693.483 8
 88  3 21  7 20 59.0800000  0  4G 3G13G11G 9
  22348515.224    22348516.385   -99640844.687 9 122759533.500 9
  20475294.082    20475297.047   -57701702.068 8  37589267.321 9
  22808473.561    22808476.534    -9564969.260 8  -9220102.756 8
  21321081.864    21321084.025   -36317556.264 9  32185878.434 8
 88  3 21  7 21 29.0800000  0  4G 3G13G11G 9
  22337289.691    22337288.969   -99699838.824 9 122713564.047 8
  20478877.133    20478879.765   -57682874.515 9  37603938.144 9
  22821758.633    22821762.064    -9495151.904 8  -9165699.647 9
  21338551.171    21338551.412   -36225756.461 9  32257410.738 9
 88  3 21  7 21 59.0800000  0  4G 3G13G11G 9
  22326110.406    22326111.418   -99758583.644 9 122667788.878 9
  20482509.745    20482512.663   -57663778.343 9  37618818.294 9
  22835048.641    22835051.698    -9425316.705 9  -9111282.643 9
  21356103.590    21356106.374   -36133514.080 9  32329287.904 9
 88  3 21  7 22 29.0800000  0  4G 3G13G11G 9
  22314978.705    22314980.510   -99817079.468 9 122622207.736 9
  20486196.685    20486197.825   -57644414.614 9  37633906.915 8
  22848339.507    22848343.500    -9355464.693 9  -9056852.513 9
  21373741.103    21373743.598   -36040831.897 9  32401507.745 9
 88  3 21  7 22 59.0800000  0  4G 3G13G11G 9
  22303894.637    22303895.248   -99875326.600 8 122576820.370 9
  20489931.757    20489932.610   -57624785.838 8  37649202.060 8
  22861636.242    22861639.418    -9285597.079 9  -9002410.238 9
  21391460.918    21391462.550   -35947712.937 9  32474067.961 9
 88  3 21  7 23 29.0800000  0  4G 3G13G11G 9
  22292857.933    22292859.197   -99933325.549 9 122531626.411 8
  20493718.462    20493719.511   -57604893.329 9  37664702.717 8
  22874935.474    22874936.474    -9215714.983 9  -8947956.671 9
  21409263.937    21409265.704   -35854160.019 9  32546966.313 8
 88  3 21  7 23 59.0800000  0  4G 3G13G11G 9
  22281868.245    22281869.670   -99991076.534 9 122486625.644 9
  20497552.237    20497554.565   -57584738.501 9  37680407.773 8
  22888234.741    22888237.716    -9145819.818 9  -8893492.905 9
  21427148.414    21427150.607   -35760175.840 9  32620200.716 9
 88  3 21  7 24 29.0800000  0  4G 3G13G11G 9
  22270924.532    22270927.430  -100048579.732 9 122441817.973 9
  20501437.074    20501439.438   -57564323.437 9  37696315.627 9
  22901536.793    22901539.952    -9075912.316 9  -8839019.547 9
  21445115.525    21445116.399   -35665763.770 9  32693768.552 9
 88  3 21  7 24 59.0800000  0  4G 3G13G11G 9
  22260029.960    22260032.125  -100105835.940 9 122397202.759 9
  20505372.299    20505372.767   -57543649.669 9  37712425.051 8
  22914843.305    22914844.638    -9005993.747 9  -8784537.547 9
  21463161.701    21463163.823   -35570926.396 9  32767667.773 8
 88  3 21  7 25 29.0800000  0  4G 3G13G11G 9
  22249181.692    22249182.935  -100162845.264 9 122352779.915 9
  20509353.864    20509356.407   -57522719.172 8  37728734.534 9
  22928151.254    22928152.835    -8936064.852 9  -8730047.514 9
  21481289.278    21481290.596   -35475666.601 9  32841896.173 8
 88  3 21  7 25 59.0800000  0  4G 3G13G11G 9
  22238380.087    22238381.928  -100219607.800 9 122308549.394 9
  20513385.109    20513387.007   -57501533.566 9  37745242.820 9
  22941459.653    22941462.111    -8866126.904 9  -8675550.450 9
  21499497.130    21499498.515   -35379987.426 9  32916451.349 9
 88  3 21  7 26 29.0800000  0  4G 3G13G11G 9
  22227625.100    22227626.533  -100276124.346 9 122264510.529 9
  20517465.692    20517466.628   -57480094.563 9  37761948.532 9
  22954768.073    22954772.034    -8796181.200 9  -8621047.320 9
  21517782.866    21517784.617   -35283891.872 9  32991330.998 8
 88  3 21  7 26 59.0800000  0  4G 3G13G11G 9
  22216916.436    22216919.159  -100332395.217 9 122220663.116 9
  20521592.694    20521595.832   -57458404.172 9  37778850.110 9
  22968080.111    22968084.191    -8726228.630 9  -8566538.837 9
  21536147.507    21536149.861   -35187382.773 9  33066532.864 8
 88  3 21  7 27 29.0800000  0  4G 3G13G11G 9
  22206255.985    22206257.162  -100388420.816 9 122177006.810 8
  20525767.772    20525769.414   -57436463.778 9  37795946.530 8
  22981393.995    22981395.327    -8656270.467 8  -8512026.014 9
  21554591.466    21554592.444   -35090463.236 9  33142054.561 8
 88  3 21  7 27 59.0800000  0  4G 3G13G11G 9
  22195641.395    22195643.005  -100444201.461 9 122133541.378 9
  20529991.042    20529992.629   -57414274.974 9  37813236.511 9
  22994708.709    22994709.953    -8586307.650 9  -8457509.553 9
  21573111.817    21573113.341   -34993136.343 9  33217893.677 7
 88  3 21  7 28 29.0800000  0  4G 3G13G11G 9
  22185072.500    22185074.865  -100499737.391 8 122090266.634 9
  20534259.508    20534262.364   -57391839.788 9  37830718.473 8
  23008020.778    23008024.104    -8516340.693 9  -8402989.869 9
  21591708.773    21591710.594   -34895404.871 9  33294048.044 8
 88  3 21  7 28 59.0800000  0  4G 3G13G11G 9
  22174550.753    22174553.442  -100555029.216 8 122047182.114 8
  20538575.537    20538576.700   -57369160.099 9  37848390.967 9
  23021336.340    23021338.637    -8446371.137 8  -8348468.157 9
  21610382.248    21610385.454   -34797272.009 9  33370515.192 8
 88  3 21  7 29 29.0800000  0  4G 3G13G11G 9
  22164075.518    22164077.305  -100610077.652 8 122004287.248 8
  20542937.868    20542939.301   -57346237.455 9  37866252.775 8
  23034651.270    23034652.451    -8376400.042 9  -8293945.240 9
  21629132.719    21629135.339   -34698740.785 9  33447292.743 8
 88  3 21  7 29 59.0800000  0  4G 3G13G11G 9
  22153647.640    22153648.646  -100664882.702 9 121961582.032 8
  20547344.809    20547347.640   -57323073.401 9  37884302.681 8
  23047967.289    23047968.938    -8306428.293 9  -8239421.820 8
  21647957.994    21647959.431   -34599813.987 9  33524378.540 9
 88  3 21  7 30 29.0800000  0  4G 3G13G11G 9
  22143263.190    22143265.478  -100719444.872 9 121919066.053 9
  20551798.810    20551800.598   -57299670.225 9  37902538.927 9
  23061281.517    23061284.103    -8236457.053 8  -8184898.793 8
  21666857.410    21666859.478   -34500495.136 9  33601769.837 8
 88  3 21  7 30 59.0800000  0  4G 3G13G11G 9
  22132927.984    22132928.186  -100773764.699 9 121876738.948 9
  20556297.530    20556300.115   -57276029.012 9  37920960.638 9
  23074596.341    23074599.586    -8166486.808 9  -8130376.533 9
  21685832.147    21685834.714   -34400786.542 9  33679464.823 9
 88  3 21  7 31 29.0800000  0  4G 3G13G11G 9
  22122636.266    22122638.182  -100827842.352 9 121834600.512 8
  20560841.463    20560842.590   -57252151.882 9  37939566.191 8
  23087910.692    23087913.250    -8096518.664 9  -8075855.933 9
  21704879.889    21704881.348   -34300691.722 9  33757460.769 9
 88  3 21  7 31 59.0800000  0  4G 3G13G11G 9
  22112391.709    22112393.190  -100881678.433 9 121792650.339 8
  20565428.683    20565431.508   -57228040.600 9  37958354.201 9
  23101224.628    23101226.637    -8026553.523 9  -8021337.644 9
  21723999.746    21724001.590   -34200214.027 9  33835755.059 8
 88  3 21  7 32 29.0800000  0  4G 3G13G11G 9
  22102192.580    22102194.611  -100935273.673 8 121750887.826 9
  20570061.987    20570064.588   -57203696.363 9  37977323.745 8
  23114535.835    23114540.167    -7956592.401 8  -7966822.508 8
  21743193.007    21743194.780   -34099356.008 9  33914345.703 8
 88  3 21  7 32 59.0800000  0  4G 3G13G11G 9
  22092041.699    22092042.725  -100988628.460 8 121709312.679 9
  20574738.673    20574741.306   -57179121.295 9  37996473.160 8
  23127851.067    23127853.363    -7886636.442 9  -7912311.378 9
  21762457.524    21762459.195   -33998121.134 9  33993230.003 9
 88  3 21  7 33 29.0800000  0  4G 3G13G11G 9
  22081931.021    22081933.716  -101041743.090 8 121667924.664 9
  20579458.912    20579461.336   -57154317.039 9  38015801.134 9
  23141160.614    23141163.754    -7816686.675 9  -7857805.087 8
  21781792.292    21781794.014   -33896512.274 9  34072405.722 8
 88  3 21  7 33 59.0800000  0  4G 3G13G11G 9
  22071869.756    22071871.916  -101094618.123 8 121626723.365 9
  20584222.183    20584223.260   -57129285.085 9  38035306.556 8
  23154469.422    23154473.077    -7746743.857 9  -7803304.212 9
  21801198.275    21801200.393   -33794532.630 9  34151870.355 9
 88  3 21  7 34 29.0800000  0  4G 3G13G11G 9
  22061853.974    22061855.447  -101147254.026 8 121585708.403 9
  20589029.223    20589030.911   -57104027.038 8  38054988.143 8
  23167779.566    23167781.075    -7676808.854 9  -7748809.423 9
  21820674.853    21820676.936   -33692185.391 9  34231621.439 8
 88  3 21  7 34 59.0800000  0  4G 3G13G11G 9
  22051883.664    22051885.654  -101199651.072 9 121544879.552 8
  20593876.661    20593881.057   -57078545.063 9  38074844.232 8
  23181086.462    23181087.993    -7606882.597 9  -7694321.458 9
  21840220.039    21840221.163   -33589473.455 9  34311656.700 9
 88  3 21  7 35 29.0800000  0  4G 3G13G11G 9
  22041957.380    22041958.709  -101251810.027 9 121504236.211 9
  20598769.019    20598770.406   -57052840.233 9  38094873.977 9
  23194389.166    23194393.024    -7536965.769 9  -7639840.825 8
  21859834.326    21859836.334   -33486400.057 9  34391973.600 9
 88  3 21  7 35 59.0800000  0  4G 3G13G11G 9
  22032078.419    22032078.607  -101303731.705 9 121463777.786 8
  20603702.802    20603705.136   -57026914.313 9  38115075.997 8
  23207692.942    23207695.536    -7467059.178 9  -7585368.152 9
  21879517.246    21879519.049   -33382968.385 9  34472569.683 8
 88  3 21  7 36 29.0800000  0  4G 3G13G12G 9
  22022241.999    22022243.870  -101355416.259 9 121423504.128 8
  20608678.314    20608679.760   -57000769.365 9  38135448.691 8
                  20360190.831  -108552332.253 9
  21899266.226    21899268.320   -33279181.499 9  34553442.568 9
 88  3 21  7 36 59.0800000  0  4G 3G13G12G 9
  22012451.864    22012453.807  -101406864.077 9 121383414.941 8
  20613694.283    20613696.556   -56974407.058 8  38155990.742 9
  20362933.719    20362935.800  -108538087.194 8 137835791.241 9
  21919083.502    21919086.054   -33175042.818 9  34634589.573 9
 88  3 21  7 37 29.0800000  0  4G 3G13G12G 9
  22002706.737    22002708.125  -101458075.781 9 121343509.717 8
  20618751.936    20618754.512   -56947828.605 9  38176701.220 8
  20365766.540    20365768.263  -108523199.437 8 137847392.090 9
  21938967.069    21938968.247   -33070555.114 9  34716008.550 9
 88  3 21  7 37 59.0800000  0  4G 3G13G12G 9
  21993006.018    21993007.969  -101509052.024 8 121303787.976 8
  20623850.615    20623852.407   -56921036.233 9  38197578.397 8
  20368722.358    20368723.419  -108507669.404 8 137859493.388 7
  21958915.741    21958918.501   -32965721.694 9  34797696.903 9
 88  3 21  7 38 29.0800000  0  4G 3G13G12G 9
  21983350.558    21983352.389  -101559793.173 9 121264249.436 9
  20628989.501    20628991.546   -56894031.467 9  38218621.077 8
  20371798.490    20371802.147  -108491497.560 9 137872094.822 7
  21978930.366    21978932.264   -32860545.887 9  34879652.067 8
 88  3 21  7 38 59.0800000  0  4G 3G13G12G 9
  21973738.943    21973740.928  -101610299.428 9 121224893.932 9
  20634168.955    20634170.545   -56866816.187 9  38239827.791 8
  20374997.790    20375001.401  -108474684.327 9 137885196.037 8
  21999009.287    21999011.513   -32755030.915 9  34961871.510 9
 88  3 21  7 39 29.0800000  0  4G 3G13G12G 9
  21964172.913    21964175.617  -101660571.649 9 121185720.803 9
  20639388.217    20639389.345   -56839391.401 9  38261197.754 8
  20378319.603    20378322.374  -108457230.077 8 137898796.736 9
  22019151.096    22019153.674   -32649179.838 9  35044352.851 9
 88  3 21  7 39 59.0800000  0  4G 3G13G12G 9
  21954650.575    21954652.053  -101710610.765 8 121146729.294 9
  20644645.667    20644647.683   -56811758.722 9  38282729.710 8
  20381762.067    20381765.141  -108439135.020 9 137912896.772 8
  22039357.472    22039360.372   -32542995.580 9  35127093.805 9
 88  3 21  7 40 29.0800000  0  4G 3G13G12G 9
  21945174.401    21945174.646  -101760416.950 9 121107919.305 8
  20649943.710    20649944.824   -56783920.072 9  38304422.159 8
  20385326.528    20385331.313  -108420399.386 8 137927495.947 9
  22059627.119    22059629.208   -32436481.591 9  35210091.700 8
 88  3 21  7 40 59.0800000  0  4G 3G13G12G 9
  21935738.980    21935740.693  -101809990.695 9 121069290.422 9
  20655279.237    20655280.361   -56755877.051 9  38326273.880 8
  20389014.748    20389017.184  -108401023.558 8 137942593.972 8
  22079958.907    22079960.450   -32329641.085 9  35293344.030 8
 88  3 21  7 41 29.0800000  0  4G 3G13G12G 9
  21926348.481    21926352.163  -101859332.891 8 121030841.990 8
  20660654.556    20660655.458   -56727631.311 9  38348283.543 8
  20392824.080    20392825.856  -108381008.690 8 137958189.972 8
  22100351.141    22100353.347   -32222477.198 9  35376848.330 9
 88  3 21  7 41 59.0800000  0  4G 3G13G12G 9
  21917004.503    21917006.474  -101908444.029 9 120992573.596 9
  20666067.681    20666069.407   -56699184.658 9  38370449.760 8
  20396754.806    20396757.765  -108360355.305 9 137974283.516 8
  22120805.357    22120807.193   -32114993.240 9  35460602.040 9
 88  3 21  7 42 29.0800000  0  4G 3G13G12G 9
  21907702.682    21907704.647  -101957324.503 9 120954484.923 9
  20671519.351    20671519.316   -56670538.172 9  38392771.703 9
  20400805.991    20400807.929  -108339063.769 7 137990874.313 8
  22141318.476    22141320.126   -32007192.525 9  35544602.570 9
 88  3 21  7 42 59.0800000  0  4G 3G13G12G 9
  21898444.645    21898446.062  -102005975.053 9 120916575.424 9
  20677008.366    20677009.848   -56641693.939 9  38415247.722 8
  20404977.682    20404981.288  -108317134.926 8 138007961.705 8
  22161891.836    22161894.416   -31899077.986 9  35628847.655 8
 88  3 21  7 43 29.0800000  0  4G 3G13G12G 9
  21889231.426    21889233.008  -102054396.102 9 120878844.759 8
  20682533.384    20682534.864   -56612653.306 9  38437876.790 8
  20409273.400    20409275.335  -108294568.986 8 138025545.538 9
  22182524.661    22182526.342   -31790653.083 9  35713334.574 9
 88  3 21  7 43 59.0800000  0  4G 3G13G12G 9
  21880060.533    21880062.080  -102102588.199 9 120841292.489 8
  20688097.188    20688099.177   -56583418.107 9  38460657.456 9
  20413688.770    20413690.592  -108271366.215 8 138043625.615 8
  22203216.705    22203217.615   -31681920.972 9  35798060.877 9
 88  3 21  7 44 29.0800000  0  4G 3G13G12G 9
  21870932.270    21870934.727  -102150552.080 9 120803918.056 9
  20693697.326    20693698.908   -56553989.656 9  38483588.732 9
  20418224.209    20418227.669  -108247527.474 9 138062201.230 8
  22223963.993    22223966.726   -31572884.873 9  35883024.044 9
 88  3 21  7 44 59.0800000  0  4G 3G13G12G 9
  21861848.540    21861851.367  -102198288.204 9 120766721.100 8
  20699334.776    20699335.438   -56524369.416 9  38506669.428 9
  20422882.063    20422885.151  -108223053.962 8 138081271.492 8
  22244770.020    22244772.415   -31463547.861 9  35968221.706 9
 88  3 21  7 45 29.0800000  0  4G 3G13G12G 9
  21852808.399    21852810.212  -102245797.105 9 120729701.213 9
  20705007.056    20705007.492   -56494558.873 8  38529898.431 8
  20427659.972    20427661.626  -108197945.889 8 138100836.215 8
  22265633.848    22265635.769   -31353913.382 9  36053651.142 8
 88  3 21  7 45 59.0800000  0  4G 3G13G12G 9
  21843810.776    21843811.957  -102293079.596 9 120692857.743 8
  20710714.277    20710714.926   -56464560.219 9  38553274.000 8
  20432557.230    20432560.955  -108172204.187 8 138120894.674 9
  22286551.732    22286554.739   -31243984.802 9  36139309.751 9
 88  3 21  7 46 29.0800000  0  4G 3G13G12G 9
  21834856.601    21834856.864  -102340136.608 9 120656189.953 8
  20716458.240    20716460.304   -56434374.590 9  38576795.267 8
  20437577.339    20437579.894  -108145829.673 8 138141446.229 8
  22307526.383    22307528.152   -31133765.293 9  36225195.061 9
 88  3 21  7 46 59.0800000  0  4G 3G13G12G 9
  21825943.786    21825945.162  -102386968.420 9 120619697.640 8
  20722238.201    20722240.825   -56404003.359 9  38600461.163 9
  20442716.596    20442719.734  -108118823.240 8 138162490.176 8
  22328554.913    22328556.863   -31023257.940 9  36311304.668 9
 88  3 21  7 47 29.0800000  0  4G 3G13G12G 9
  21817075.229    21817076.605  -102433575.660 9 120583380.322 8
  20728053.865    20728054.544   -56373448.692 9  38624269.995 8
  20447975.811    20447978.405  -108091185.373 9 138184026.168 8
  22349637.435    22349640.645   -30912466.041 8  36397636.000 9
 88  3 21  7 47 59.0800000  0  4G 3G13G12G 9
  21808248.675    21808250.014  -102479958.750 9 120547237.673 9
  20733902.571    20733904.228   -56342712.214 9  38648220.502 9
  20453354.832    20453357.604  -108062916.956 9 138206053.490 8
  22370774.130    22370775.903   -30801392.911 9  36484186.467 9
 88  3 21  7 48 29.0800000  0  4G 3G13G12G 9
  21799465.550    21799466.431  -102526118.283 9 120511269.228 8
  20739785.823    20739787.394   -56311794.816 9  38672311.970 8
  20458855.028    20458856.829  -108034019.086 8 138228571.305 8
  22391963.105    22391965.804   -30690041.910 7  36570953.458 9
 88  3 21  7 48 59.0800000  0  4G 3G13G12G 9
  21790723.738    21790725.690  -102572055.200 9 120475474.260 9
  20745703.919    20745704.663   -56280698.187 9  38696543.107 9
  20464473.799    20464474.575  -108004493.117 8 138251578.530 8
  22413206.421    22413207.886   -30578416.337 9  36657934.398 9
 88  3 21  7 49 29.0800000  0  4G 3G13G12G 9
  21782023.650    21782026.490  -102617769.873 8 120439852.446 8
  20751654.337    20751656.355   -56249423.822 9  38720912.734 8
  20470211.809    20470212.747  -107974339.689 8 138275074.695 8
  22434497.784    22434500.744   -30466519.286 9  36745126.889 9
 88  3 21  7 49 59.0800000  0  4G 3G13G12G 9
  21773366.974    21773367.958  -102663263.229 9 120404403.100 8
  20757639.650    20757641.031   -56217973.245 9  38745419.668 9
  20476068.870    20476071.016  -107943559.894 9 138299058.928 9
  22455843.686    22455845.509   -30354354.197 9  36832528.241 9
 88  3 21  7 50 29.0800000  0  4G 3G13G12G 9
  21764752.128    21764753.916  -102708535.476 9 120369126.045 9
  20763657.662    20763658.619   -56186348.177 9  38770062.566 8
  20482043.659    20482046.604  -107912154.544 9 138323530.619 8
  22477237.016    22477239.944   -30241924.256 8  36920135.954 9
 88  3 21  7 50 59.0800000  0  4G 3G13G12G 9
  21756180.264    21756180.346  -102753587.270 9 120334020.758 8
  20769708.090    20769710.202   -56154550.136 9  38794840.257 9
  20488139.317    20488141.181  -107880124.643 8 138348488.978 8
  22498682.322    22498684.940   -30129232.932 9  37007947.348 9
 88  3 21  7 51 29.0800000  0  4G 3G13G12G 9
  21747648.333    21747649.440  -102798419.436 9 120299086.610 8
  20775792.612    20775793.513   -56122580.213 9  38819751.897 8
  20494353.786    20494356.054  -107847471.326 9 138373933.109 8
  22520175.676    22520177.613   -30016283.175 9  37095960.127 9
 88  3 21  7 51 59.0800000  0  4G 3G13G12G 9
  21739158.054    21739160.764  -102843032.636 9 120264323.096 8
  20781908.387    20781910.141   -56090440.018 9  38844796.192 9
  20500683.764    20500687.135  -107814195.727 8 138399862.141 8
  22541718.995    22541720.272   -29903078.731 9  37184171.359 9
 88  3 21  7 52 29.0800000  0  4G 3G13G12G 9
  21730710.185    21730711.071  -102887427.498 9 120229729.725 8
  20788056.208    20788057.628   -56058130.999 9  38869972.051 9
  20507136.030    20507138.998  -107780298.769 9 138426275.345 8
  22563308.822    22563310.230   -29789622.438 9  37272578.837 9
 88  3 21  7 52 59.0800000  0  4G 3G13G12G 9
  21722304.361    21722304.415  -102931604.891 9 120195305.794 9
  20794235.789    20794237.413   -56025654.950 9  38895278.054 8
  20513702.995    20513706.014  -107745781.959 9 138453171.539 8
  22584944.879    22584948.780   -29675917.705 9  37361179.911 9
 88  3 21  7 53 29.0800000  0  4G 3G13G12G 9
  21713936.803    21713939.113  -102975565.597 9 120161050.719 9
  20800447.371    20800449.283   -55993013.321 9  38920713.088 9
  20520389.904    20520392.609  -107710646.716 8 138480549.633 7
  22606628.996    22606631.193   -29561967.921 9  37449971.927 9
 88  3 21  7 53 59.0800000  0  4G 3G13G12G 9
  21705612.743    21705615.123  -103019309.795 9 120126964.335 9
  20806689.440    20806691.864   -55960207.642 9  38946275.947 9
  20527193.949    20527195.760  -107674893.564 9 138508409.222 8
  22628359.755    22628361.065   -29447776.470 9  37538952.262 9
 88  3 21  7 54 29.0800000  0  4G 3G13G12G 9
  21697332.016    21697332.236  -103062838.133 9 120093046.166 8
  20812964.223    20812965.304   -55927238.852 9  38971965.923 8
  20534114.006    20534117.806  -107638524.164 9 138536749.012 9
  22650135.415    22650136.916   -29333346.351 9  37628118.575 9
 88  3 21  7 54 59.0800000  0  4G 3G13G12G 9
  21689088.714    21689090.010  -103106151.336 9 120059295.633 9
  20819269.599    20819270.286   -55894108.777 9  38997781.562 8
  20541153.747    20541155.816  -107601540.212 9 138565567.664 9
  22671955.070    22671956.842   -29218681.226 9  37717468.004 8
 88  3 21  7 55 29.0800000  0  4G 3G13G12G 9
  21680886.330    21680888.507  -103149250.273 9 120025712.059 8
  20825603.332    20825605.350   -55860818.844 9  39023721.753 9
  20548306.710    20548309.637  -107563942.399 8 138594864.643 8
  22693820.032    22693820.371   -29103784.295 9  37806998.051 9
 88  3 21  7 55 59.0800000  0  4G 3G13G12G 9
  21672725.795    21672726.435  -103192136.034 9 119992294.597 8
  20831968.016    20831970.777   -55827370.256 9  39049785.583 8
  20555579.202    20555581.909  -107525732.331 9 138624638.715 8
  22715726.877    22715728.659   -28988658.819 9  37896706.205 8
 88  3 21  7 56 29.0800000  0  4G 3G13G12G 9
  21664605.314    21664606.478  -103234808.578 9 119959043.271 8
  20838363.593    20838365.098   -55793764.417 9  39075971.959 9
  20562966.113    20562968.709  -107486911.278 9 138654888.873 8
  22737676.848    22737679.343   -28873308.146 9  37986589.823 9
 88  3 21  7 56 59.0800000  0  4G 3G13G12G 9
  21656525.898    21656527.703  -103277268.948 9 119925957.286 9
  20844788.764    20844789.525   -55760002.980 9  39102279.571 8
  20570469.619    20570472.671  -107447480.531 9 138685614.123 8
  22759669.208    22759672.093   -28757735.347 8  38076646.523 9
 88  3 21  7 57 29.0800000  0  4G 3G13G12G 9
  21648485.187    21648487.511  -103319517.355 9 119893036.461 9
  20851242.077    20851243.751   -55726086.982 9  39128707.613 8
  20578088.190    20578090.582  -107407441.313 9 138716813.505 8
  22781703.999    22781706.484   -28641943.730 9  38166873.738 9
 88  3 21  7 57 59.0800000  0  4G 3G13G12G 9
  21640486.598    21640487.436  -103361554.485 9 119860280.269 9
  20857725.081    20857727.394   -55692018.369 9  39155254.577 8
  20585822.797    20585825.080  -107366795.241 9 138748485.765 8
  22803779.205    22803781.913   -28525936.936 9  38257268.604 9
 88  3 21  7 58 29.0800000  0  4G 3G13G12G 9
  21632526.815    21632528.972  -103403381.518 9 119827687.780 8
  20864237.426    20864238.048   -55657798.738 9  39181919.225 8
  20593672.750    20593676.292  -107325543.994 9 138780629.575 8
  22825895.348    22825897.942   -28409717.964 9  38347828.826 9
 88  3 21  7 58 59.0800000  0  4G 3G13G12G 9
  21624607.375    21624608.388  -103444999.109 9 119795258.480 8
  20870777.455    20870779.159   -55623428.708 9  39208701.055 8
  20601637.381    20601640.647  -107283688.817 9 138813244.001 8
  22848051.071    22848052.721   -28293290.381 9  38438551.594 9
 88  3 21  7 59 29.0800000  0  4G 3G13G12G 9
  21616728.205    21616728.338  -103486407.687 9 119762992.067 9
  20877346.229    20877347.190   -55588909.656 9  39235599.001 9
  20609718.064    20609718.978  -107241231.091 8 138846327.934 9
  22870245.935    22870247.764   -28176657.419 9  38529434.415 9
 88  3 21  7 59 59.0800000  0  4G 3G13G12G 9
  21608887.672    21608888.950  -103527608.316 9 119730887.681 8
  20883943.174    20883944.352   -55554243.156 9  39262611.862 8
  20617910.789    20617912.588  -107198172.547 9 138879880.034 8
  22892478.965    22892480.693   -28059822.296 9  38620474.748 8
 88  3 21  8  0 29.0800000  0  4G 3G13G12G 9
  21601085.919    21601088.695  -103568601.452 9 119698945.000 9
  20890567.299    20890569.419   -55519431.208 9  39289738.052 9
  20626218.032    20626220.714  -107154515.438 8 138913898.534 7
  22914749.268    22914751.613   -27942788.281 9  38711670.079 9
 88  3 21  8  0 59.0800000  0  4G 3G13G12G 9
  21593325.592    21593326.782  -103609387.734 9 119667163.490 8
  20897220.076    20897220.605   -55484474.215 9  39316977.270 8
  20634640.588    20634641.956  -107110260.624 9 138948382.800 8
  22937057.302    22937059.386   -27825558.971 8  38803017.562 8
 88  3 21  8  1 29.0800000  0  4G 3G13G12G 9
  21585602.919    21585604.653  -103649967.984 9 119635542.523 9
  20903899.807    20903901.060   -55449373.917 9  39344328.150 9
  20643175.751    20643176.176  -107065409.781 9 138983331.486 8
  22959401.059    22959403.371   -27708137.503 9  38894514.799 8
 88  3 21  8  1 59.0800000  0  4G 3G13G12G 9
  21577919.955    21577921.273  -103690342.764 8 119604081.666 8
  20910605.071    20910606.666   -55414131.814 9  39371789.531 9
  20651823.228    20651825.807  -107019964.327 9 139018743.523 8
  22981782.427    22981785.002   -27590527.132 9  38986159.209 8
 88  3 21  8  2 29.0800000  0  4G 3G13G12G 9
  21570275.420    21570278.134  -103730512.946 9 119572780.235 8
  20917338.228    20917339.170   -55378748.263 9  39399361.126 9
  20660582.388    20660585.649  -106973926.727 9 139054616.966 8
  23004199.285    23004200.506   -27472731.151 9  39077948.276 9
 88  3 21  8  2 59.0800000  0  4G 3G13G12G 9
  21562669.092    21562672.465  -103770478.925 9 119541637.927 8
  20924098.471    20924100.767   -55343225.579 9  39427041.131 8
  20669457.461    20669459.351  -106927298.186 8 139090950.887 8
  23026648.665    23026651.079   -27354753.145 9  39169879.177 9
 88  3 21  8  3 29.0800000  0  4G 3G13G12G 9
  21555104.027    21555104.743  -103810241.764 9 119510653.919 8
  20930885.072    20930886.337   -55307565.100 9  39454828.516 8
  20678442.326    20678444.998  -106880080.373 9 139127743.977 9
  23049133.231    23049135.067   -27236596.155 9  39261949.535 8
 88  3 21  8  3 59.0800000  0  4G 3G13G12G 9
  21547576.175    21547577.315  -103849802.110 9 119479827.683 8
  20937696.816    20937697.431   -55271767.460 9  39482722.773 9
  20687540.393    20687541.642  -106832275.228 9 139164994.729 8
  23071651.412    23071654.204   -27118263.527 8  39354156.775 8
 88  3 21  8  4 29.0800000  0  4G 3G13G12G 9
  21540085.222    21540088.705  -103889160.273 9 119449158.995 8
  20944533.815    20944535.087   -55235834.702 9  39510722.333 8
  20696747.293    20696749.858  -106783884.549 9 139202701.731 9
  23094201.342    23094203.854   -26999758.749 9  39446498.138 8
 88  3 21  8  4 59.0800000  0  4G 3G13G12G 9
  21532634.730    21532635.952  -103928317.286 9 119418647.052 9
  20951398.509    20951398.589   -55199767.717 9  39538826.484 9
  20706067.197    20706068.667  -106734910.478 9 139240863.340 8
  23116784.656    23116787.423   -26881084.949 9  39538971.205 8
 88  3 21  8  5 29.0800000  0  4G 3G13G12G 9
  21525220.480    21525222.893  -103967273.619 8 119388291.461 9
  20958286.779    20958287.889   -55163567.612 9  39567034.338 8
  20715497.247    20715499.402  -106685354.446 9 139279478.425 9
  23139399.187    23139400.811   -26762245.272 9  39631573.532 9
 88  3 21  8  5 59.0800000  0  4G 3G13G12G 9
  21517846.428    21517847.621  -104006030.188 9 119358091.554 9
  20965199.840    20965201.223   -55127235.792 9  39595344.835 8
  20725037.747    20725039.330  -106635218.497 9 139318545.387 7
  23162043.884    23162047.517   -26643243.421 9  39724302.235 9
 88  3 21  8  6 29.0800000  0  4G 3G13G12G 9
  21510508.440    21510510.459  -104044587.621 9 119328046.807 8
  20972138.805    20972139.464   -55090773.502 9  39623757.001 9
  20734689.113    20734690.567  -106584504.101 9 139358063.078 8
  23184719.664    23184722.951   -26524082.238 9  39817155.084 8
 88  3 21  8  6 59.0800000  0  4G 3G13G12G 9
  21503209.959    21503210.814  -104082946.862 9 119298156.503 9
  20979101.235    20979102.734   -55054182.217 9  39652269.686 8
  20744449.613    20744451.456  -106533213.434 9 139398029.832 8
  23207426.669    23207427.838   -26404765.360 9  39910129.263 9
 88  3 21  8  7 29.0800000  0  4G 3G13G12G 9
  21495948.396    21495949.890  -104121108.802 9 119268419.923 8
  20986088.764    20986091.091   -55017462.974 9  39680882.083 9
  20754318.778    20754321.483  -106481348.098 9 139438444.366 8
  23230159.651    23230161.516   -26285296.186 9  40003222.107 9
 88  3 21  8  7 59.0800000  0  4G 3G13G12G 9
  21488723.332    21488724.406  -104159073.850 9 119238836.788 8
  20993101.258    20993102.305   -54980617.211 9  39709593.059 8
  20764297.273    20764299.516  -106428910.398 9 139479304.896 8
  23252922.356    23252923.995   -26165677.644 9  40096431.339 8
 88  3 21  8  8 29.0800000  0  4G 3G13G12G 9
  21481536.912    21481538.061  -104196842.695 8 119209406.541 9
  21000135.228    21000137.166   -54943646.023 9  39738401.775 8
  20774383.875    20774385.722  -106375902.552 9 139520609.697 8
  23275712.355    23275714.909   -26045913.156 9  40189754.278 9
 88  3 21  8  8 59.0800000  0  4G 3G13G12G 9
  21474386.070    21474387.053  -104234415.904 8 119180128.733 8
  21007194.149    21007195.923   -54906550.930 9  39767307.039 8
  20784578.735    20784582.090  -106322326.359 9 139562357.368 7
  23298530.208    23298533.046   -25926006.137 9  40283188.289 9
 88  3 21  8  9 29.0800000  0  4G 3G13G12G 9
  21467273.603    21467275.420  -104271794.054 9 119151002.903 8
  21014276.983    21014277.902   -54869332.627 9  39796308.312 8
  20794882.629    20794884.177  -106268183.922 9 139604546.275 8
  23321375.474    23321376.000   -25805959.807 8  40376730.844 9
 88  3 21  8  9 59.0800000  0  4G 3G13G12G 9
  21460197.265    21460198.771  -104308978.248 9 119122028.227 8
  21021382.439    21021385.123   -54831992.032 9  39825404.882 9
  20805292.424    20805295.306  -106213477.305 9 139647174.794 8
  23344244.502    23344247.549   -25685777.275 9  40470379.538 8
 88  3 21  8 10 29.0800000  0  4G 3G13G12G 9
  21453158.309    21453159.917  -104345969.043 9 119093204.236 9
  21028511.342    21028512.904   -54794530.850 9  39854595.404 9
  20815810.013    20815812.764  -106158208.647 8 139690241.264 9
  23367138.789    23367142.216   -25565462.111 9  40564131.613 7
 88  3 21  8 10 59.0800000  0  4G 3G13G12G 9
  21446155.596    21446157.504  -104382767.182 9 119064530.363 9
  21035662.473    21035664.086   -54756950.184 9  39883879.042 8
  20826433.295    20826436.131  -106102379.895 9 139733744.176 9
  23390058.767    23390062.263   -25445017.386 9  40657984.628 8
 88  3 21  8 11 29.0800000  0  4G 3G13G12G 9
  21439189.590    21439191.932  -104419372.906 9 119036006.435 9
  21042836.413    21042838.609   -54719251.147 9  39913254.904 9
  20837164.153    20837166.227  -106045993.616 9 139777681.535 8
  23413002.414    23413005.724   -25324446.517 8  40751935.947 8
 88  3 21  8 11 59.0800000  0  4G 3G13G12G 9
  21432259.896    21432262.658  -104455787.429 9 119007631.498 9
  21050032.486    21050035.229   -54681434.602 9  39942722.337 8
  20847999.441    20848001.055  -105989051.826 9 139822051.734 8
  23435970.038    23435972.831   -25203752.710 9  40845983.050 8
 88  3 21  8 12 29.0800000  0  4G 3G13G12G 9
  21425367.872    21425368.469  -104492012.077 9 118979404.507 8
  21057251.079    21057252.569   -54643502.243 9  39972280.004 9
  20858941.182    20858941.954  -105931556.132 9 139866853.561 8
  23458961.451    23458963.175   -25082939.311 9  40940123.326 8
 88  3 21  8 12 59.0800000  0  4G 3G13G12G 9
  21418511.021    21418510.846  -104528046.936 9 118951325.409 8
  21064492.008    21064493.813   -54605454.893 9  40001927.272 8
  20869987.014    20869989.745  -105873508.985 9 139912085.092 8
  23481972.867    23481974.520   -24962009.497 8  41034354.346 9
 88  3 21  8 13 29.0800000  0  4G 3G13G12G 9
  21411688.685    21411689.872  -104563892.768 9 118923393.597 8
  21071753.280    21071754.981   -54567293.633 9  40031663.323 9
  20881137.335    20881138.905  -105814912.607 9 139957744.601 9
  23505005.046    23505009.371   -24840966.623 9  41128673.447 7
 88  3 21  8 13 59.0800000  0  4G 3G13G12G 9
  21404903.714    21404904.301  -104599550.231 9 118895608.574 8
  21079036.454    21079038.658   -54529019.502 9  40061487.312 8
  20892391.563    20892394.150  -105755769.538 8 140003830.092 8
  23528062.345    23528062.986   -24719813.942 9  41223078.123 9
 88  3 21  8 14 29.0800000  0  4G 3G13G12G 9
  21398155.007    21398155.227  -104635019.927 9 118867969.853 8
  21086341.294    21086341.755   -54490633.889 9  40091398.176 8
  20903748.842    20903752.740  -105696081.913 9 140050339.922 8
  23551135.577    23551139.237   -24598554.755 9  41317565.797 9
 88  3 21  8 14 59.0800000  0  4G 3G13G12G 9
  21391438.321    21391441.297  -104670302.857 9 118840476.646 9
  21093666.500    21093667.660   -54452138.035 9  40121394.937 9
  20915211.765    20915213.969  -105635851.942 9 140097272.350 9
  23574231.011    23574233.557   -24477192.206 9  41412133.999 8
 88  3 21  8 15 29.0800000  0  4G 3G13G12G 9
  21384761.672    21384762.910  -104705399.340 9 118813128.751 8
  21101013.150    21101015.521   -54413532.592 9  40151477.099 9
  20926775.762    20926777.745  -105575081.871 9 140144625.643 9
  23597343.776    23597346.011   -24355729.637 9  41506780.151 8
 88  3 21  8 15 59.0800000  0  4G 3G13G12G 9
  21378117.934    21378119.771  -104740310.349 9 118785925.377 9
  21108379.126    21108382.118   -54374818.639 9  40181643.804 9
  20938441.211    20938443.964  -105513773.982 9 140192398.016 9
  23620476.148    23620479.229   -24234170.255 9  41601501.714 8
 88  3 21  8 16 29.0800000  0  4G 3G13G12G 9
  21371509.000    21371511.051  -104775036.289 9 118758866.215 8
  21115767.578    21115768.932   -54335997.585 9  40211893.966 9
  20950210.565    20950212.006  -105451930.274 9 140240587.894 8
  23643625.783    23643628.154   -24112517.288 9  41696296.218 9
 88  3 21  8 16 59.0800000  0  4G 3G13G12G 9
  21364936.339    21364937.942  -104809578.222 9 118731950.445 9
  21123175.806    21123176.620   -54297070.374 9  40242226.846 9
  20962079.149    20962082.171  -105389553.848 8 140289192.888 8
  23666793.094    23666794.816   -23990773.959 9  41791161.140 8
 88  3 21  8 17 29.0800000  0  4G 3G13G12G 9
  21358398.149    21358398.927  -104843936.762 9 118705177.585 8
  21130602.020    21130603.660   -54258038.094 9  40272641.599 9
  20974050.243    20974053.347  -105326646.965 9 140338211.220 8
  23689976.123    23689978.175   -23868943.609 8  41886093.863 9
 88  3 21  8 17 59.0800000  0  4G 3G13G12G 9
  21351895.251    21351894.731  -104878112.728 9 118678546.957 9
  21138049.297    21138052.044   -54218901.398 9  40303137.720 9
  20986122.894    20986123.355  -105263211.562 9 140387641.385 9
  23713175.917    23713178.950   -23747029.470 7  41981091.872 9
 88  3 21  8 18 29.0800000  0  4G 3G13G12G 9
  21345426.765    21345427.032  -104912106.602 9 118652058.226 8
  21145517.696    21145518.466   -54179661.486 9  40333714.275 8
  20998294.036    20998296.732  -105199250.488 9 140437481.173 8
  23736391.259    23736392.449   -23625034.557 8  42076152.816 9
 88  3 21  8 18 59.0800000  0  4G 3G13G12G 9
  21338991.869    21338992.551  -104945919.019 9 118625710.883 8
  21153003.918    21153005.305   -54140319.262 9  40364370.544 8
  21010564.215    21010567.591  -105134766.297 9 140487728.587 8
  23759621.180    23759623.554   -23502962.526 8  42171273.846 8
 88  3 21  8 19 29.0800000  0  4G 3G13G12G 9
  21332592.994    21332593.280  -104979550.682 9 118599504.408 9
  21160509.175    21160511.646   -54100876.073 9  40395105.490 8
  21022934.560    21022937.853  -105069761.371 9 140538381.755 9
  23782864.516    23782866.948   -23380816.090 8  42266452.864 9
 88  3 21  8 19 59.0800000  0  4G 3G13G12G 9
  21326225.479    21326226.710  -105013002.675 9 118573437.921 8
  21168034.011    21168036.229   -54061332.703 9  40425918.488 9
  21035403.360    21035406.101  -105004238.075 9 140589438.856 9
  23806122.080    23806123.976   -23258598.757 9  42361687.124 9
 88  3 21  8 20 29.0800000  0  4G 3G13G12G 9
  21319893.941    21319896.694  -105046275.604 9 118547510.973 9
  21175578.308    21175579.969   -54021690.801 9  40456808.276 9
  21047970.167    21047973.404  -104938198.934 9 140640897.914 8
  23829392.120    23829392.955   -23136313.861 9  42456974.038 8
 88  3 21  8 20 59.0800000  0  4G 3G13G12G 9
  21313596.380    21313597.702  -105079370.168 9 118521723.023 9
  21183140.062    21183141.445   -53981950.828 9  40487774.480 9
  21060635.228    21060636.840  -104871646.616 9 140692756.846 9
  23852674.309    23852675.710   -23013964.403 9  42552311.267 8
 88  3 21  8 21 29.0800000  0  4G 3G13G12G 9
  21307332.612    21307333.242  -105112287.121 9 118496073.459 9
  21190721.215    21190722.182   -53942113.485 9  40518816.567 9
  21073396.215    21073398.932  -104804583.244 9 140745014.013 8
  23875967.753    23875970.176   -22891553.804 9  42647696.137 8
 88  3 21  8 21 59.0800000  0  4G 3G13G12G 9
  21301102.490    21301104.336  -105145026.842 9 118470561.996 8
  21198320.455    21198322.885   -53902179.628 9  40549933.844 9
  21086255.623    21086257.105  -104737011.668 9 140797667.160 9
  23899273.289    23899275.295   -22769085.212 9  42743126.206 8
 88  3 21  8 22 29.0800000  0  4G 3G13G12G 9
  21294906.094    21294906.538  -105177590.165 9 118445187.986 8
  21205937.473    21205938.994   -53862150.429 9  40581125.408 8
  21099209.496    21099211.988  -104668934.381 9 140850714.381 8
  23922586.990    23922590.429   -22646561.432 9  42838599.274 9
 88  3 21  8 22 59.0800000  0  4G 3G13G12G 9
  21288743.779    21288744.675  -105209977.833 9 118419950.855 8
  21213572.936    21213575.639   -53822027.352 9  40612390.137 9
  21112260.073    21112262.187  -104600354.354 9 140904153.351 9
  23945914.033    23945916.347   -22523986.053 9  42934112.543 9
 88  3 21  8 23 29.0800000  0  4G 3G13G12G 9
  21282613.868    21282613.292  -105242190.124 9 118394850.366 8
  21221226.134    21221227.732   -53781810.975 9  40643727.556 8
  21125405.930    21125407.595  -104531274.402 9 140957981.874 9
  23969248.687    23969249.133   -22401362.275 8  43029663.534 9
 88  3 21  8 23 59.0800000  0  4G 3G13G12G 9
  21276517.421    21276518.070  -105274228.259 9 118369885.587 9
  21228897.043    21228898.032   -53741501.911 9  40675137.210 9
  21138645.729    21138647.920  -104461696.746 9 141012198.207 8
  23992591.857    23992593.704   -22278693.025 8  43125249.944 8
 88  3 21  8 24 29.0800000  0  4G 3G13G12G 9
  21270453.782    21270453.214  -105306092.901 9 118345056.000 9
  21236584.615    21236585.675   -53701101.460 9  40706618.070 8
  21151980.633    21151982.334  -104391623.942 9 141066800.382 8
  24015943.036    24015944.967   -22155981.760 9  43220869.108 9
 88  3 21  8 24 59.0800000  0  4G 3G13G12G 9
  21264422.338    21264424.483  -105337784.424 9 118320361.308 8
  21244289.549    21244291.227   -53660610.288 9  40738169.636 8
  21165407.567    21165410.867  -104321058.452 9 141121786.453 9
  24039301.604    24039303.063   -22033231.405 9  43316518.707 8
 88  3 21  8 25 29.0800000  0  4G 3G13G12G 9
  21258424.015    21258426.328  -105369304.396 9 118295800.301 8
  21252011.969    21252013.097   -53620029.999 9  40769790.619 9
  21178929.204    21178932.314  -104250003.938 9 141177153.598 9
  24062665.805    24062669.791   -21910445.647 8  43412195.921 9
 88  3 21  8 25 59.0800000  0  4G 3G13G12G 9
  21252458.140    21252459.442  -105400652.131 9 118271373.492 8
  21259750.680    21259752.211   -53579360.765 9  40801480.925 8
  21192543.337    21192546.049  -104178462.272 9 141232900.342 9
  24086037.306    24086040.370   -21787627.162 8  43507898.627 9
 88  3 21  8 26 29.0800000  0  4G 3G13G12G 9
  21246525.815    21246526.622  -105431828.716 9 118247080.060 8
  21267507.054    21267508.501   -53538603.590 9  40833239.744 9
  21206249.559    21206252.541  -104106436.202 9 141289024.532 9
  24109415.307    24109418.059   -21664779.114 9  43603624.380 8
 88  3 21  8 26 59.0800000  0  4G 3G13G12G 9
  21240624.394    21240628.353  -105462835.171 8 118222919.212 9
  21275278.689    21275280.322   -53497758.951 9  40865066.736 9
  21220047.651    21220049.133  -104033928.648 9 141345523.919 8
  24132798.175    24132800.378   -21541904.505 9  43699370.816 9
 88  3 21  8 27 29.0800000  0  4G 3G13G12G 9
  21234757.691    21234759.476  -105493672.022 9 118198890.493 9
  21283067.616    21283069.801   -53456827.701 9  40896961.205 9
  21233935.776    21233937.484  -103960942.831 9 141402395.960 8
  24156184.501    24156186.732   -21419006.788 9  43795135.272 9
 88  3 21  8 27 59.0800000  0  4G 3G13G12G 9
  21228922.094    21228923.681  -105524339.926 9 118174993.433 9
  21290874.192    21290875.044   -53415810.674 9  40928922.507 8
  21247915.369    21247917.473  -103887481.222 8 141459638.758 9
  24179574.693    24179577.264   -21296088.949 9  43890915.399 8
 88  3 21  8 28 29.0800000  0  4G 3G13G12G 9
  21223117.614    21223120.120  -105554839.204 9 118151227.756 9
  21298694.687    21298696.477   -53374709.057 9  40960949.748 8
  21261984.698    21261986.863  -103813546.264 9 141517250.408 9
  24202968.013    24202970.899   -21173154.348 9  43986708.590 9
 88  3 21  8 28 59.0800000  0  4G 3G13G12G 9
  21217344.949    21217346.780  -105585171.066 9 118127592.550 8
  21306533.183    21306533.279   -53333524.185 9  40993041.854 8
  21276143.181    21276145.670  -103739140.924 9 141575228.579 8
  24226365.316    24226366.932   -21050205.888 9  44082512.582 9
 88  3 21  8 29 29.0800000  0  4G 3G13G12G 9
  21211605.288    21211605.352  -105615335.993 9 118104087.415 8
  21314385.434    21314386.585   -53292256.309 9  41025198.638 9
  21290391.477    21290393.855  -103664268.426 9 141633570.759 8
  24249763.891    24249766.519   -20927246.852 9  44178324.825 8
 88  3 21  8 29 59.0800000  0  4G 3G13G12G 9
  21205896.855    21205898.702  -105645334.429 9 118080712.020 9
  21322253.145    21322255.712   -53250905.829 9  41057419.788 8
  21304727.212    21304729.032  -103588931.659 9 141692274.731 8
  24273162.216    24273164.750   -20804280.384 9  44274142.855 7
 88  3 21  8 30 29.0800000  0  4G 3G13G12G 9
  21200219.769    21200220.700  -105675167.293 8 118057465.633 8
  21330137.685    21330139.280   -53209474.001 9  41089704.308 8
  21319151.590    21319153.745  -103513132.786 9 141751338.755 9
  24296562.673    24296566.072   -20681309.378 9  44369964.442 8
 88  3 21  8 30 59.0800000  0  4G 3G13G12G 9
  21194575.527    21194576.352  -105704834.788 9 118034348.110 9
  21338037.766    21338038.693   -53167961.310 9  41122051.848 8
  21333662.422    21333664.439  -103436874.787 9 141810760.563 9
  24319964.369    24319966.197   -20558336.939 8  44465787.138 8
 88  3 21  8 31 29.0800000  0  4G 3G13G12G 9
  21188961.014    21188961.978  -105734337.979 8 118011358.619 9
  21345952.716    21345954.494   -53126368.927 9  41154461.498 9
  21348260.450    21348262.843  -103360161.476 9 141870537.157 9
  24343365.454    24343366.809   -20435366.329 7  44561608.404 8
 88  3 21  8 31 59.0800000  0  4G 3G13G12G 9
  21183377.167    21183378.246  -105763677.613 9 117988496.574 8
  21353882.165    21353884.538   -53084697.521 9  41186932.724 9
  21362945.362    21362948.298  -103282995.142 9 141930666.767 8
  24366764.194    24366767.587   -20312400.646 7  44657425.773 8
 88  3 21  8 32 29.0800000  0  4G 3G13G12G 9
  21177824.718    21177826.173  -105792854.421 9 117965761.393 8
  21361826.653    21361828.417   -53042948.226 9  41219464.636 9
  21377714.997    21377717.919  -103205378.870 9 141991146.952 8
  24390161.909    24390164.977   -20189443.004 8  44753236.901 7
 88  3 21  8 32 59.0800000  0  4G 3G13G12G 9
  21172305.047    21172305.151  -105821868.868 9 117943152.734 9
  21369786.513    21369788.159   -53001120.914 9  41252057.336 9
  21392570.477    21392572.064  -103127315.654 9 142051975.419 9
  24413557.631    24413560.443   -20066496.283 7  44849039.530 9
 88  3 21  8 33 29.0800000  0  4G 3G13G12G 9
  21166812.391    21166814.572  -105850721.656 9 117920670.067 8
  21377760.366    21377761.976   -52959216.794 9  41284709.898 9
  21407509.241    21407512.203  -103048807.849 9 142113150.308 8
  24436951.672    24436954.032   -19943563.793 9  44944831.095 8
 88  3 21  8 33 59.0800000  0  4G 3G13G12G 9
  21161352.614    21161354.442  -105879413.058 9 117898313.127 8
  21385748.532    21385750.165   -52917236.481 9  41317421.821 8
  21422533.002    21422535.300  -102969858.962 9 142174668.912 9
  24460341.712    24460345.760   -19820648.408 8  45040609.321 8
 88  3 21  8 34 29.0800000  0  4G 3G13G12G 9
  21155923.835    21155925.447  -105907944.033 9 117876081.197 8
  21393752.648    21393753.865   -52875180.459 9  41350192.737 8
  21437640.149    21437642.472  -102890472.016 9 142236528.844 9
  24483727.505    24483729.424   -19697753.378 8  45136371.683 8
 88  3 21  8 34 59.0800000  0  4G 3G13G12G 9
  21150526.149    21150525.863  -105936314.801 9 117853974.104 8
  21401769.535    21401772.310   -52833050.162 9  41383021.523 9
  21452829.986    21452832.459  -102810649.907 9 142298727.888 8
  24507109.844    24507112.127   -19574881.715 9  45232115.815 9
 88  3 21  8 35 29.0800000  0  4G 3G13G12G 9
  21145156.506    21145159.400  -105964526.240 9 117831991.161 9
  21409799.857    21409802.024   -52790845.712 9  41415908.105 9
  21468102.320    21468103.738  -102730395.258 9 142361263.957 8
  24530487.212    24530488.802   -19452036.386 9  45327839.419 9
